Wetterdaten: Samstag, 13.05.2017
Datum Zeit Temp. A. Pool Temp. Feuchte A. Luftdruck Regen Wind Richtung Richtung Sonnenschein ET UV Solar Taupunkt Windchill Windben Empfang
13.05.2017 00:00 13,7 C 18,3 C 79 % 1005,0 hPa 0,0 l/m 5,7 km/h (1 Bft) S-SW 207 0 min 0,000 mm 0,0 UV-I 0 W/m 10,1 C 13,7 C 9,7 km/h (2 Bft) 92,00 %
13.05.2017 00:02 13,7 C 18,3 C 78 % 1005,0 hPa 0,0 l/m 6,1 km/h (2 Bft) S-SW 213 0 min 0,000 mm 0,0 UV-I 0 W/m 9,9 C 13,7 C 9,7 km/h (2 Bft) 94,29 %
13.05.2017 00:04 13,7 C 18,3 C 79 % 1005,0 hPa 0,0 l/m 5,9 km/h (2 Bft) S-SW 207 0 min 0,000 mm 0,0 UV-I 0 W/m 10,1 C 13,7 C 8,0 km/h (2 Bft) 94,34 %
13.05.2017 00:06 13,6 C 18,3 C 79 % 1005,0 hPa 0,0 l/m 5,9 km/h (2 Bft) S-SW 202 0 min 0,000 mm 0,0 UV-I 0 W/m 10,0 C 13,6 C 9,7 km/h (2 Bft) 95,74 %
13.05.2017 00:08 13,5 C 18,3 C 79 % 1005,1 hPa 0,0 l/m 6,6 km/h (2 Bft) S-SW 205 0 min 0,000 mm 0,0 UV-I 0 W/m 9,9 C 13,4 C 11,3 km/h (2 Bft) 89,36 %
13.05.2017 00:10 13,4 C 18,3 C 79 % 1005,1 hPa 0,0 l/m 7,1 km/h (2 Bft) S-SW 213 0 min 0,000 mm 0,0 UV-I 0 W/m 9,8 C 13,0 C 11,3 km/h (2 Bft) 95,24 %
13.05.2017 00:12 13,4 C 18,3 C 79 % 1005,1 hPa 0,0 l/m 7,1 km/h (2 Bft) S-SW 206 0 min 0,000 mm 0,0 UV-I 0 W/m 9,8 C 13,0 C 11,3 km/h (2 Bft) 92,45 %
13.05.2017 00:14 13,4 C 18,3 C 79 % 1005,2 hPa 0,0 l/m 5,9 km/h (2 Bft) S-SW 199 0 min 0,000 mm 0,0 UV-I 0 W/m 9,8 C 13,4 C 9,7 km/h (2 Bft) 92,68 %
13.05.2017 00:16 13,4 C 18,3 C 79 % 1005,2 hPa 0,0 l/m 8,0 km/h (2 Bft) S 171 0 min 0,000 mm 0,0 UV-I 0 W/m 9,8 C 12,4 C 12,9 km/h (3 Bft) 95,74 %
13.05.2017 00:18 13,4 C 18,3 C 79 % 1005,2 hPa 0,0 l/m 6,2 km/h (2 Bft) SW 221 0 min 0,000 mm 0,0 UV-I 0 W/m 9,8 C 13,4 C 9,7 km/h (2 Bft) 95,74 %
13.05.2017 00:20 13,4 C 18,3 C 79 % 1005,2 hPa 0,0 l/m 8,7 km/h (2 Bft) S-SW 207 0 min 0,000 mm 0,0 UV-I 0 W/m 9,8 C 12,0 C 12,9 km/h (3 Bft) 98,00 %
13.05.2017 00:22 13,4 C 18,3 C 79 % 1005,2 hPa 0,0 l/m 8,0 km/h (2 Bft) S-SW 196 0 min 0,000 mm 0,0 UV-I 0 W/m 9,8 C 12,4 C 11,3 km/h (2 Bft) 95,74 %
13.05.2017 00:24 13,4 C 18,3 C 79 % 1005,3 hPa 0,0 l/m 7,2 km/h (2 Bft) S-SW 206 0 min 0,000 mm 0,0 UV-I 0 W/m 9,8 C 12,9 C 11,3 km/h (2 Bft) 94,00 %
13.05.2017 00:26 13,4 C 18,3 C 79 % 1005,4 hPa 0,0 l/m 8,3 km/h (2 Bft) SW 214 0 min 0,000 mm 0,0 UV-I 0 W/m 9,8 C 12,2 C 11,3 km/h (2 Bft) 94,74 %
13.05.2017 00:28 13,4 C 18,3 C 79 % 1005,4 hPa 0,0 l/m 5,9 km/h (2 Bft) W-SW 245 0 min 0,000 mm 0,0 UV-I 0 W/m 9,8 C 13,4 C 8,0 km/h (2 Bft) 97,78 %
13.05.2017 00:30 13,4 C 18,3 C 79 % 1005,4 hPa 0,0 l/m 4,5 km/h (1 Bft) S-SW 213 0 min 0,000 mm 0,0 UV-I 0 W/m 9,8 C 13,4 C 8,0 km/h (2 Bft) 96,43 %
13.05.2017 00:32 13,4 C 18,3 C 79 % 1005,4 hPa 0,0 l/m 2,8 km/h (1 Bft) S-SW 213 0 min 0,000 mm 0,0 UV-I 0 W/m 9,8 C 13,4 C 4,8 km/h (1 Bft) 97,87 %
13.05.2017 00:34 13,4 C 18,3 C 79 % 1005,5 hPa 0,0 l/m 1,9 km/h (1 Bft) S-SW 213 0 min 0,000 mm 0,0 UV-I 0 W/m 9,8 C 13,4 C 4,8 km/h (1 Bft) 98,00 %
13.05.2017 00:36 13,3 C 18,3 C 79 % 1005,6 hPa 0,0 l/m 1,4 km/h (1 Bft) N-NO 13 0 min 0,000 mm 0,0 UV-I 0 W/m 9,7 C 13,3 C 6,4 km/h (2 Bft) 100,00 %
13.05.2017 00:38 12,9 C 18,3 C 80 % 1005,6 hPa 0,0 l/m 0,8 km/h (0 Bft) N-NO 15 0 min 0,000 mm 0,0 UV-I 0 W/m 9,5 C 12,9 C 4,8 km/h (1 Bft) 97,87 %
13.05.2017 00:40 12,7 C 18,3 C 81 % 1005,7 hPa 0,0 l/m 2,5 km/h (1 Bft) N-NO 13 0 min 0,000 mm 0,0 UV-I 0 W/m 9,5 C 12,7 C 4,8 km/h (1 Bft) 98,00 %
13.05.2017 00:42 12,6 C 18,3 C 82 % 1005,7 hPa 0,0 l/m 2,6 km/h (1 Bft) N-NO 13 0 min 0,000 mm 0,0 UV-I 0 W/m 9,6 C 12,6 C 4,8 km/h (1 Bft) 100,00 %
13.05.2017 00:44 12,6 C 18,3 C 82 % 1005,8 hPa 0,0 l/m 0,1 km/h (0 Bft) N-NO 13 0 min 0,000 mm 0,0 UV-I 0 W/m 9,6 C 12,6 C 1,6 km/h (1 Bft) 97,22 %
13.05.2017 00:46 12,7 C 18,3 C 82 % 1005,7 hPa 0,0 l/m 0,4 km/h (0 Bft) N-NO 13 0 min 0,000 mm 0,0 UV-I 0 W/m 9,7 C 12,7 C 1,6 km/h (1 Bft) 100,00 %
13.05.2017 00:48 12,9 C 18,3 C 81 % 1005,8 hPa 0,0 l/m 0,8 km/h (0 Bft) N-NO 13 0 min 0,000 mm 0,0 UV-I 0 W/m 9,7 C 12,9 C 1,6 km/h (1 Bft) 97,14 %
13.05.2017 00:50 13,1 C 18,3 C 81 % 1005,9 hPa 0,0 l/m 2,5 km/h (1 Bft) N-NW 327 0 min 0,000 mm 0,0 UV-I 0 W/m 9,9 C 13,1 C 4,8 km/h (1 Bft) 98,46 %
13.05.2017 00:52 13,2 C 18,3 C 80 % 1005,9 hPa 0,0 l/m 3,7 km/h (1 Bft) SW 229 0 min 0,000 mm 0,0 UV-I 0 W/m 9,8 C 13,2 C 6,4 km/h (2 Bft) 100,00 %
13.05.2017 00:54 13,3 C 18,3 C 80 % 1005,9 hPa 0,0 l/m 4,3 km/h (1 Bft) W-SW 247 0 min 0,000 mm 0,0 UV-I 0 W/m 9,9 C 13,3 C 6,4 km/h (2 Bft) 100,00 %
13.05.2017 00:56 13,3 C 18,3 C 80 % 1006,0 hPa 0,0 l/m 5,2 km/h (1 Bft) W-SW 247 0 min 0,000 mm 0,0 UV-I 0 W/m 9,9 C 13,3 C 6,4 km/h (2 Bft) 98,00 %
13.05.2017 00:58 13,3 C 18,3 C 80 % 1006,0 hPa 0,0 l/m 5,8 km/h (2 Bft) W 261 0 min 0,000 mm 0,0 UV-I 0 W/m 9,9 C 13,3 C 11,3 km/h (2 Bft) 100,00 %
13.05.2017 01:00 13,3 C 18,3 C 80 % 1006,1 hPa 0,0 l/m 6,2 km/h (2 Bft) W 263 0 min 0,025 mm 0,0 UV-I 0 W/m 9,9 C 13,3 C 9,7 km/h (2 Bft) 98,00 %
13.05.2017 01:02 13,4 C 18,3 C 80 % 1006,1 hPa 0,0 l/m 5,3 km/h (1 Bft) W 263 0 min 0,000 mm 0,0 UV-I 0 W/m 10,0 C 13,4 C 8,0 km/h (2 Bft) 100,00 %
13.05.2017 01:04 13,4 C 17,8 C 79 % 1006,1 hPa 0,0 l/m 8,0 km/h (2 Bft) W-SW 257 0 min 0,000 mm 0,0 UV-I 0 W/m 9,8 C 12,4 C 12,9 km/h (3 Bft) 97,87 %
13.05.2017 01:06 13,6 C 17,8 C 79 % 1006,2 hPa 0,0 l/m 9,7 km/h (2 Bft) W 273 0 min 0,000 mm 0,0 UV-I 0 W/m 10,0 C 11,7 C 14,5 km/h (3 Bft) 98,11 %
13.05.2017 01:08 13,6 C 17,8 C 78 % 1006,2 hPa 0,0 l/m 8,2 km/h (2 Bft) W 263 0 min 0,000 mm 0,0 UV-I 0 W/m 9,8 C 12,5 C 12,9 km/h (3 Bft) 95,12 %
13.05.2017 01:10 13,7 C 17,8 C 78 % 1006,2 hPa 0,0 l/m 10,8 km/h (2 Bft) W-SW 247 0 min 0,000 mm 0,0 UV-I 0 W/m 9,9 C 11,3 C 14,5 km/h (3 Bft) 98,11 %
13.05.2017 01:12 13,8 C 17,8 C 78 % 1006,2 hPa 0,0 l/m 9,8 km/h (2 Bft) W-SW 253 0 min 0,000 mm 0,0 UV-I 0 W/m 10,0 C 11,9 C 16,1 km/h (3 Bft) 100,00 %
13.05.2017 01:14 13,8 C 17,8 C 77 % 1006,2 hPa 0,0 l/m 7,8 km/h (2 Bft) SW 221 0 min 0,000 mm 0,0 UV-I 0 W/m 9,8 C 13,0 C 14,5 km/h (3 Bft) 96,23 %
13.05.2017 01:16 13,9 C 17,8 C 77 % 1006,3 hPa 0,0 l/m 9,6 km/h (2 Bft) W-SW 246 0 min 0,000 mm 0,0 UV-I 0 W/m 9,9 C 12,1 C 14,5 km/h (3 Bft) 100,00 %
13.05.2017 01:18 13,9 C 17,8 C 77 % 1006,3 hPa 0,0 l/m 10,0 km/h (2 Bft) SW 234 0 min 0,000 mm 0,0 UV-I 0 W/m 9,9 C 11,9 C 14,5 km/h (3 Bft) 97,87 %
13.05.2017 01:20 13,9 C 17,8 C 78 % 1006,3 hPa 0,0 l/m 11,6 km/h (2 Bft) W-SW 238 0 min 0,000 mm 0,0 UV-I 0 W/m 10,1 C 11,2 C 17,7 km/h (3 Bft) 96,00 %
13.05.2017 01:22 13,9 C 17,8 C 77 % 1006,4 hPa 0,0 l/m 9,6 km/h (2 Bft) W-SW 242 0 min 0,000 mm 0,0 UV-I 0 W/m 9,9 C 12,1 C 17,7 km/h (3 Bft) 100,00 %
13.05.2017 01:24 13,9 C 17,8 C 77 % 1006,4 hPa 0,0 l/m 7,3 km/h (2 Bft) W-SW 253 0 min 0,000 mm 0,0 UV-I 0 W/m 9,9 C 13,4 C 12,9 km/h (3 Bft) 96,00 %
13.05.2017 01:26 13,9 C 17,8 C 77 % 1006,3 hPa 0,0 l/m 8,3 km/h (2 Bft) W-SW 242 0 min 0,000 mm 0,0 UV-I 0 W/m 9,9 C 12,8 C 14,5 km/h (3 Bft) 100,00 %
13.05.2017 01:28 14,0 C 17,8 C 77 % 1006,4 hPa 0,0 l/m 9,2 km/h (2 Bft) W-SW 251 0 min 0,000 mm 0,0 UV-I 0 W/m 10,0 C 12,4 C 14,5 km/h (3 Bft) 97,87 %
13.05.2017 01:30 14,1 C 17,8 C 76 % 1006,5 hPa 0,0 l/m 7,0 km/h (2 Bft) SW 236 0 min 0,000 mm 0,0 UV-I 0 W/m 9,9 C 13,7 C 11,3 km/h (2 Bft) 98,00 %
13.05.2017 01:32 14,1 C 17,8 C 77 % 1006,5 hPa 0,0 l/m 8,4 km/h (2 Bft) SW 236 0 min 0,000 mm 0,0 UV-I 0 W/m 10,1 C 12,9 C 12,9 km/h (3 Bft) 97,87 %
13.05.2017 01:34 14,0 C 17,8 C 77 % 1006,6 hPa 0,0 l/m 8,0 km/h (2 Bft) SW 233 0 min 0,000 mm 0,0 UV-I 0 W/m 10,0 C 13,1 C 11,3 km/h (2 Bft) 98,00 %
13.05.2017 01:36 13,9 C 17,8 C 78 % 1006,6 hPa 0,0 l/m 8,7 km/h (2 Bft) W-SW 249 0 min 0,000 mm 0,0 UV-I 0 W/m 10,1 C 12,6 C 12,9 km/h (3 Bft) 100,00 %
13.05.2017 01:38 13,9 C 17,8 C 78 % 1006,6 hPa 0,0 l/m 7,7 km/h (2 Bft) SW 234 0 min 0,000 mm 0,0 UV-I 0 W/m 10,1 C 13,1 C 11,3 km/h (2 Bft) 97,37 %
13.05.2017 01:40 13,9 C 17,8 C 78 % 1006,6 hPa 0,0 l/m 9,5 km/h (2 Bft) S-SW 209 0 min 0,000 mm 0,0 UV-I 0 W/m 10,1 C 12,1 C 11,3 km/h (2 Bft) 98,15 %
13.05.2017 01:42 13,9 C 17,8 C 78 % 1006,6 hPa 0,0 l/m 9,0 km/h (2 Bft) W-SW 245 0 min 0,000 mm 0,0 UV-I 0 W/m 10,1 C 12,4 C 14,5 km/h (3 Bft) 94,00 %
13.05.2017 01:44 13,9 C 17,8 C 77 % 1006,6 hPa 0,0 l/m 8,2 km/h (2 Bft) SW 236 0 min 0,000 mm 0,0 UV-I 0 W/m 9,9 C 12,8 C 12,9 km/h (3 Bft) 95,74 %
13.05.2017 01:46 13,9 C 17,8 C 77 % 1006,6 hPa 0,0 l/m 10,0 km/h (2 Bft) W 262 0 min 0,000 mm 0,0 UV-I 0 W/m 9,9 C 11,9 C 14,5 km/h (3 Bft) 97,87 %
13.05.2017 01:48 14,1 C 17,8 C 77 % 1006,6 hPa 0,0 l/m 10,2 km/h (2 Bft) W-SW 257 0 min 0,000 mm 0,0 UV-I 0 W/m 10,1 C 12,0 C 14,5 km/h (3 Bft) 97,37 %
13.05.2017 01:50 14,1 C 17,8 C 76 % 1006,6 hPa 0,0 l/m 13,5 km/h (3 Bft) W-SW 254 0 min 0,000 mm 0,0 UV-I 0 W/m 9,9 C 10,6 C 19,3 km/h (3 Bft) 94,92 %
13.05.2017 01:52 14,2 C 17,8 C 76 % 1006,7 hPa 0,0 l/m 12,2 km/h (2 Bft) W-SW 256 0 min 0,000 mm 0,0 UV-I 0 W/m 10,0 C 11,3 C 16,1 km/h (3 Bft) 97,56 %
13.05.2017 01:54 14,3 C 17,8 C 76 % 1006,7 hPa 0,0 l/m 11,6 km/h (2 Bft) SW 225 0 min 0,000 mm 0,0 UV-I 0 W/m 10,1 C 11,6 C 17,7 km/h (3 Bft) 94,00 %
13.05.2017 01:56 14,3 C 17,8 C 76 % 1006,7 hPa 0,0 l/m 11,4 km/h (2 Bft) W-SW 243 0 min 0,000 mm 0,0 UV-I 0 W/m 10,1 C 11,7 C 17,7 km/h (3 Bft) 95,45 %
13.05.2017 01:58 14,3 C 17,8 C 76 % 1006,7 hPa 0,0 l/m 13,1 km/h (3 Bft) W-SW 242 0 min 0,000 mm 0,0 UV-I 0 W/m 10,1 C 11,0 C 17,7 km/h (3 Bft) 96,00 %
13.05.2017 02:00 14,3 C 17,8 C 76 % 1006,7 hPa 0,0 l/m 12,4 km/h (3 Bft) W-SW 254 0 min 0,026 mm 0,0 UV-I 0 W/m 10,1 C 11,3 C 17,7 km/h (3 Bft) 92,31 %
13.05.2017 02:02 14,3 C 17,8 C 76 % 1006,8 hPa 0,0 l/m 10,4 km/h (2 Bft) W-SW 257 0 min 0,000 mm 0,0 UV-I 0 W/m 10,1 C 12,2 C 14,5 km/h (3 Bft) 98,11 %
13.05.2017 02:04 14,3 C 17,8 C 76 % 1006,8 hPa 0,0 l/m 12,5 km/h (3 Bft) W-SW 248 0 min 0,000 mm 0,0 UV-I 0 W/m 10,1 C 11,3 C 14,5 km/h (3 Bft) 95,45 %
13.05.2017 02:06 14,3 C 17,8 C 77 % 1006,8 hPa 0,0 l/m 14,5 km/h (3 Bft) SW 215 0 min 0,000 mm 0,0 UV-I 0 W/m 10,3 C 10,5 C 20,9 km/h (4 Bft) 98,00 %
13.05.2017 02:08 14,3 C 17,8 C 77 % 1006,8 hPa 0,0 l/m 15,7 km/h (3 Bft) W-SW 248 0 min 0,000 mm 0,0 UV-I 0 W/m 10,3 C 10,1 C 20,9 km/h (4 Bft) 95,12 %
13.05.2017 02:10 14,3 C 17,8 C 77 % 1006,8 hPa 0,0 l/m 14,4 km/h (3 Bft) W-SW 243 0 min 0,000 mm 0,0 UV-I 0 W/m 10,3 C 10,6 C 17,7 km/h (3 Bft) 93,62 %
13.05.2017 02:12 14,3 C 17,8 C 77 % 1006,9 hPa 0,0 l/m 11,4 km/h (2 Bft) W 267 0 min 0,000 mm 0,0 UV-I 0 W/m 10,3 C 11,7 C 17,7 km/h (3 Bft) 98,21 %
13.05.2017 02:14 14,3 C 17,8 C 78 % 1006,9 hPa 0,0 l/m 10,9 km/h (2 Bft) W 259 0 min 0,000 mm 0,0 UV-I 0 W/m 10,5 C 11,9 C 14,5 km/h (3 Bft) 95,74 %
13.05.2017 02:16 14,2 C 17,8 C 78 % 1006,9 hPa 0,0 l/m 9,4 km/h (2 Bft) W-SW 254 0 min 0,000 mm 0,0 UV-I 0 W/m 10,4 C 12,5 C 12,9 km/h (3 Bft) 97,56 %
13.05.2017 02:18 14,2 C 17,8 C 78 % 1006,9 hPa 0,0 l/m 10,8 km/h (2 Bft) W-SW 256 0 min 0,000 mm 0,0 UV-I 0 W/m 10,4 C 11,9 C 16,1 km/h (3 Bft) 98,11 %
13.05.2017 02:20 14,2 C 17,8 C 79 % 1006,9 hPa 0,0 l/m 8,9 km/h (2 Bft) W-SW 252 0 min 0,000 mm 0,0 UV-I 0 W/m 10,6 C 12,8 C 16,1 km/h (3 Bft) 97,56 %
13.05.2017 02:22 14,1 C 17,8 C 80 % 1006,9 hPa 0,0 l/m 10,7 km/h (2 Bft) W-SW 249 0 min 0,000 mm 0,0 UV-I 0 W/m 10,7 C 11,8 C 16,1 km/h (3 Bft) 98,11 %
13.05.2017 02:24 14,1 C 17,8 C 80 % 1006,9 hPa 0,0 l/m 10,2 km/h (2 Bft) W-SW 250 0 min 0,000 mm 0,0 UV-I 0 W/m 10,7 C 12,0 C 19,3 km/h (3 Bft) 100,00 %
13.05.2017 02:26 14,0 C 17,8 C 81 % 1006,9 hPa 0,0 l/m 14,6 km/h (3 Bft) W 265 0 min 0,000 mm 0,0 UV-I 0 W/m 10,8 C 10,1 C 19,3 km/h (3 Bft) 96,00 %
13.05.2017 02:28 14,0 C 17,8 C 82 % 1006,9 hPa 0,0 l/m 12,8 km/h (3 Bft) W-SW 239 0 min 0,000 mm 0,0 UV-I 0 W/m 11,0 C 10,8 C 17,7 km/h (3 Bft) 97,73 %
13.05.2017 02:30 13,9 C 17,8 C 82 % 1006,9 hPa 0,0 l/m 14,3 km/h (3 Bft) W 261 0 min 0,000 mm 0,0 UV-I 0 W/m 10,9 C 10,1 C 22,5 km/h (4 Bft) 98,00 %
13.05.2017 02:32 13,9 C 17,8 C 82 % 1006,9 hPa 0,0 l/m 13,9 km/h (3 Bft) W-SW 256 0 min 0,000 mm 0,0 UV-I 0 W/m 10,9 C 10,3 C 20,9 km/h (4 Bft) 100,00 %
13.05.2017 02:34 13,8 C 17,8 C 83 % 1007,0 hPa 0,0 l/m 11,9 km/h (2 Bft) W-SW 248 0 min 0,000 mm 0,0 UV-I 0 W/m 11,0 C 10,9 C 17,7 km/h (3 Bft) 96,30 %
13.05.2017 02:36 13,7 C 17,8 C 84 % 1007,0 hPa 0,0 l/m 11,6 km/h (2 Bft) W-SW 246 0 min 0,000 mm 0,0 UV-I 0 W/m 11,0 C 10,9 C 16,1 km/h (3 Bft) 98,63 %
13.05.2017 02:38 13,6 C 17,8 C 84 % 1006,9 hPa 0,0 l/m 11,9 km/h (2 Bft) W-SW 256 0 min 0,000 mm 0,0 UV-I 0 W/m 10,9 C 10,7 C 19,3 km/h (3 Bft) 100,00 %
13.05.2017 02:40 13,5 C 17,8 C 85 % 1006,9 hPa 0,0 l/m 11,7 km/h (2 Bft) W-SW 239 0 min 0,000 mm 0,0 UV-I 0 W/m 11,0 C 10,7 C 17,7 km/h (3 Bft) 96,30 %
13.05.2017 02:42 13,4 C 17,8 C 86 % 1006,9 hPa 0,0 l/m 15,3 km/h (3 Bft) W-SW 248 0 min 0,000 mm 0,0 UV-I 0 W/m 11,1 C 9,1 C 24,1 km/h (4 Bft) 100,00 %
13.05.2017 02:44 13,3 C 17,8 C 87 % 1006,9 hPa 0,0 l/m 14,2 km/h (3 Bft) W-SW 255 0 min 0,000 mm 0,0 UV-I 0 W/m 11,2 C 9,4 C 20,9 km/h (4 Bft) 95,74 %
13.05.2017 02:46 13,2 C 17,8 C 87 % 1006,9 hPa 0,0 l/m 11,3 km/h (2 Bft) S-SW 205 0 min 0,000 mm 0,0 UV-I 0 W/m 11,1 C 10,5 C 20,9 km/h (4 Bft) 97,87 %
13.05.2017 02:48 13,2 C 17,8 C 88 % 1006,9 hPa 0,0 l/m 15,4 km/h (3 Bft) SW 236 0 min 0,000 mm 0,0 UV-I 0 W/m 11,3 C 8,9 C 24,1 km/h (4 Bft) 100,00 %
13.05.2017 02:50 13,1 C 17,8 C 88 % 1006,9 hPa 0,0 l/m 16,5 km/h (3 Bft) SW 221 0 min 0,000 mm 0,0 UV-I 0 W/m 11,2 C 8,4 C 22,5 km/h (4 Bft) 98,00 %
13.05.2017 02:52 13,1 C 17,8 C 89 % 1007,0 hPa 0,0 l/m 12,5 km/h (3 Bft) W-SW 243 0 min 0,000 mm 0,0 UV-I 0 W/m 11,3 C 9,9 C 19,3 km/h (3 Bft) 100,00 %
13.05.2017 02:54 13,1 C 17,8 C 89 % 1007,0 hPa 0,0 l/m 10,8 km/h (2 Bft) S 186 0 min 0,000 mm 0,0 UV-I 0 W/m 11,3 C 10,6 C 16,1 km/h (3 Bft) 95,74 %
13.05.2017 02:56 13,0 C 17,8 C 90 % 1007,0 hPa 0,0 l/m 12,4 km/h (3 Bft) SW 229 0 min 0,000 mm 0,0 UV-I 0 W/m 11,4 C 9,8 C 17,7 km/h (3 Bft) 100,00 %
13.05.2017 02:58 13,0 C 17,8 C 90 % 1007,0 hPa 0,0 l/m 13,8 km/h (3 Bft) SW 231 0 min 0,000 mm 0,0 UV-I 0 W/m 11,4 C 9,2 C 19,3 km/h (3 Bft) 97,87 %
13.05.2017 03:00 12,9 C 17,8 C 90 % 1007,0 hPa 0,0 l/m 13,6 km/h (3 Bft) W-SW 248 0 min 0,025 mm 0,0 UV-I 0 W/m 11,3 C 9,2 C 20,9 km/h (4 Bft) 100,00 %
13.05.2017 03:02 12,9 C 17,8 C 91 % 1007,1 hPa 0,0 l/m 11,3 km/h (2 Bft) W 263 0 min 0,000 mm 0,0 UV-I 0 W/m 11,5 C 10,2 C 17,7 km/h (3 Bft) 98,31 %
13.05.2017 03:04 12,9 C 17,8 C 91 % 1007,1 hPa 0,2 l/m 12,6 km/h (3 Bft) W-SW 253 0 min 0,000 mm 0,0 UV-I 0 W/m 11,5 C 9,6 C 17,7 km/h (3 Bft) 100,00 %
13.05.2017 03:06 12,9 C 17,8 C 91 % 1007,2 hPa 0,0 l/m 9,7 km/h (2 Bft) W-SW 257 0 min 0,000 mm 0,0 UV-I 0 W/m 11,5 C 11,0 C 17,7 km/h (3 Bft) 98,11 %
13.05.2017 03:08 12,9 C 17,8 C 91 % 1007,2 hPa 0,0 l/m 9,3 km/h (2 Bft) W 261 0 min 0,000 mm 0,0 UV-I 0 W/m 11,5 C 11,2 C 14,5 km/h (3 Bft) 100,00 %
13.05.2017 03:10 12,8 C 17,8 C 91 % 1007,2 hPa 0,0 l/m 10,0 km/h (2 Bft) SW 235 0 min 0,000 mm 0,0 UV-I 0 W/m 11,4 C 10,7 C 16,1 km/h (3 Bft) 98,00 %
13.05.2017 03:12 12,8 C 17,8 C 91 % 1007,2 hPa 0,2 l/m 8,8 km/h (2 Bft) W-SW 242 0 min 0,000 mm 0,0 UV-I 0 W/m 11,4 C 11,3 C 14,5 km/h (3 Bft) 96,00 %
13.05.2017 03:14 12,8 C 17,8 C 92 % 1007,2 hPa 0,0 l/m 6,7 km/h (2 Bft) SW 225 0 min 0,000 mm 0,0 UV-I 0 W/m 11,5 C 12,6 C 9,7 km/h (2 Bft) 97,37 %
13.05.2017 03:16 12,8 C 17,8 C 92 % 1007,2 hPa 0,2 l/m 7,5 km/h (2 Bft) W-SW 244 0 min 0,000 mm 0,0 UV-I 0 W/m 11,5 C 12,1 C 9,7 km/h (2 Bft) 97,78 %
13.05.2017 03:18 12,8 C 17,8 C 92 % 1007,2 hPa 0,0 l/m 8,3 km/h (2 Bft) SW 224 0 min 0,000 mm 0,0 UV-I 0 W/m 11,5 C 11,6 C 14,5 km/h (3 Bft) 100,00 %
13.05.2017 03:20 12,7 C 17,8 C 92 % 1007,2 hPa 0,0 l/m 10,3 km/h (2 Bft) W-SW 246 0 min 0,000 mm 0,0 UV-I 0 W/m 11,4 C 10,4 C 14,5 km/h (3 Bft) 98,11 %
13.05.2017 03:22 12,7 C 17,8 C 92 % 1007,2 hPa 0,2 l/m 8,8 km/h (2 Bft) W-SW 242 0 min 0,000 mm 0,0 UV-I 0 W/m 11,4 C 11,2 C 11,3 km/h (2 Bft) 100,00 %
13.05.2017 03:24 12,7 C 17,8 C 92 % 1007,2 hPa 0,0 l/m 6,7 km/h (2 Bft) S-SW 204 0 min 0,000 mm 0,0 UV-I 0 W/m 11,4 C 12,5 C 8,0 km/h (2 Bft) 98,00 %
13.05.2017 03:26 12,7 C 17,8 C 92 % 1007,2 hPa 0,2 l/m 7,2 km/h (2 Bft) S-SW 204 0 min 0,000 mm 0,0 UV-I 0 W/m 11,4 C 12,2 C 12,9 km/h (3 Bft) 92,11 %
13.05.2017 03:28 12,7 C 17,8 C 92 % 1007,2 hPa 0,0 l/m 9,3 km/h (2 Bft) S-SW 202 0 min 0,000 mm 0,0 UV-I 0 W/m 11,4 C 10,9 C 14,5 km/h (3 Bft) 98,11 %
13.05.2017 03:30 12,7 C 17,8 C 92 % 1007,2 hPa 0,0 l/m 8,2 km/h (2 Bft) W-SW 248 0 min 0,000 mm 0,0 UV-I 0 W/m 11,4 C 11,6 C 12,9 km/h (3 Bft) 91,49 %
13.05.2017 03:32 12,7 C 17,8 C 92 % 1007,2 hPa 0,0 l/m 6,8 km/h (2 Bft) W-SW 239 0 min 0,000 mm 0,0 UV-I 0 W/m 11,4 C 12,5 C 12,9 km/h (3 Bft) 95,12 %
13.05.2017 03:34 12,7 C 17,8 C 92 % 1007,1 hPa 0,0 l/m 5,6 km/h (1 Bft) SW 232 0 min 0,000 mm 0,0 UV-I 0 W/m 11,4 C 12,7 C 8,0 km/h (2 Bft) 98,11 %
13.05.2017 03:36 12,8 C 17,8 C 92 % 1007,2 hPa 0,0 l/m 6,1 km/h (2 Bft) SW 224 0 min 0,000 mm 0,0 UV-I 0 W/m 11,5 C 12,8 C 9,7 km/h (2 Bft) 95,45 %
13.05.2017 03:38 12,8 C 17,8 C 92 % 1007,2 hPa 0,0 l/m 6,7 km/h (2 Bft) SW 217 0 min 0,000 mm 0,0 UV-I 0 W/m 11,5 C 12,6 C 9,7 km/h (2 Bft) 97,87 %
13.05.2017 03:40 12,7 C 17,8 C 92 % 1007,3 hPa 0,0 l/m 6,6 km/h (2 Bft) S-SW 194 0 min 0,000 mm 0,0 UV-I 0 W/m 11,4 C 12,6 C 14,5 km/h (3 Bft) 95,12 %
13.05.2017 03:42 12,8 C 17,8 C 92 % 1007,2 hPa 0,0 l/m 10,0 km/h (2 Bft) SW 226 0 min 0,000 mm 0,0 UV-I 0 W/m 11,5 C 10,7 C 12,9 km/h (3 Bft) 92,86 %
13.05.2017 03:44 12,7 C 17,8 C 92 % 1007,2 hPa 0,0 l/m 9,0 km/h (2 Bft) S-SW 198 0 min 0,000 mm 0,0 UV-I 0 W/m 11,4 C 11,1 C 12,9 km/h (3 Bft) 95,12 %
13.05.2017 03:46 12,7 C 17,8 C 91 % 1007,2 hPa 0,0 l/m 7,4 km/h (2 Bft) S-SW 197 0 min 0,000 mm 0,0 UV-I 0 W/m 11,3 C 12,1 C 12,9 km/h (3 Bft) 95,74 %
13.05.2017 03:48 12,7 C 17,8 C 91 % 1007,2 hPa 0,0 l/m 9,3 km/h (2 Bft) S-SW 199 0 min 0,000 mm 0,0 UV-I 0 W/m 11,3 C 10,9 C 14,5 km/h (3 Bft) 92,00 %
13.05.2017 03:50 12,7 C 17,8 C 91 % 1007,2 hPa 0,0 l/m 5,9 km/h (2 Bft) SW 225 0 min 0,000 mm 0,0 UV-I 0 W/m 11,3 C 12,7 C 9,7 km/h (2 Bft) 95,12 %
13.05.2017 03:52 12,7 C 17,8 C 91 % 1007,2 hPa 0,0 l/m 7,8 km/h (2 Bft) SW 217 0 min 0,000 mm 0,0 UV-I 0 W/m 11,3 C 11,8 C 11,3 km/h (2 Bft) 92,45 %
13.05.2017 03:54 12,7 C 17,8 C 91 % 1007,2 hPa 0,2 l/m 8,4 km/h (2 Bft) S-SW 213 0 min 0,000 mm 0,0 UV-I 0 W/m 11,3 C 11,5 C 11,3 km/h (2 Bft) 96,00 %
13.05.2017 03:56 12,7 C 17,8 C 91 % 1007,2 hPa 0,0 l/m 9,2 km/h (2 Bft) SW 230 0 min 0,000 mm 0,0 UV-I 0 W/m 11,3 C 11,0 C 12,9 km/h (3 Bft) 93,62 %
13.05.2017 03:58 12,7 C 17,8 C 91 % 1007,2 hPa 0,0 l/m 9,1 km/h (2 Bft) SW 235 0 min 0,000 mm 0,0 UV-I 0 W/m 11,3 C 11,1 C 12,9 km/h (3 Bft) 92,31 %
13.05.2017 04:00 12,7 C 17,8 C 91 % 1007,1 hPa 0,0 l/m 9,0 km/h (2 Bft) W 262 0 min 0,000 mm 0,0 UV-I 0 W/m 11,3 C 11,1 C 16,1 km/h (3 Bft) 96,00 %
13.05.2017 04:02 12,7 C 17,8 C 91 % 1007,2 hPa 0,2 l/m 8,6 km/h (2 Bft) W-SW 243 0 min 0,000 mm 0,0 UV-I 0 W/m 11,3 C 11,3 C 12,9 km/h (3 Bft) 91,43 %
13.05.2017 04:04 12,7 C 17,8 C 91 % 1007,2 hPa 0,0 l/m 11,4 km/h (2 Bft) SW 234 0 min 0,000 mm 0,0 UV-I 0 W/m 11,3 C 9,9 C 16,1 km/h (3 Bft) 96,00 %
13.05.2017 04:06 12,7 C 17,8 C 91 % 1007,3 hPa 0,0 l/m 13,8 km/h (3 Bft) W-SW 244 0 min 0,000 mm 0,0 UV-I 0 W/m 11,3 C 8,9 C 19,3 km/h (3 Bft) 92,11 %
13.05.2017 04:08 12,7 C 17,8 C 91 % 1007,4 hPa 0,0 l/m 14,2 km/h (3 Bft) W-SW 248 0 min 0,000 mm 0,0 UV-I 0 W/m 11,3 C 8,7 C 20,9 km/h (4 Bft) 94,00 %
13.05.2017 04:10 12,7 C 17,8 C 91 % 1007,3 hPa 0,0 l/m 14,2 km/h (3 Bft) W-SW 239 0 min 0,000 mm 0,0 UV-I 0 W/m 11,3 C 8,7 C 22,5 km/h (4 Bft) 93,62 %
13.05.2017 04:12 12,7 C 17,8 C 91 % 1007,4 hPa 0,2 l/m 14,3 km/h (3 Bft) W 260 0 min 0,000 mm 0,0 UV-I 0 W/m 11,3 C 8,7 C 20,9 km/h (4 Bft) 95,74 %
13.05.2017 04:14 12,7 C 17,8 C 91 % 1007,4 hPa 0,2 l/m 15,1 km/h (3 Bft) W-SW 257 0 min 0,000 mm 0,0 UV-I 0 W/m 11,3 C 8,4 C 22,5 km/h (4 Bft) 96,43 %
13.05.2017 04:16 12,7 C 17,8 C 91 % 1007,4 hPa 0,0 l/m 15,7 km/h (3 Bft) S-SW 207 0 min 0,000 mm 0,0 UV-I 0 W/m 11,3 C 8,2 C 24,1 km/h (4 Bft) 94,74 %
13.05.2017 04:18 12,7 C 17,8 C 91 % 1007,4 hPa 0,0 l/m 11,5 km/h (2 Bft) SW 223 0 min 0,000 mm 0,0 UV-I 0 W/m 11,3 C 9,8 C 20,9 km/h (4 Bft) 94,74 %
13.05.2017 04:20 12,7 C 17,8 C 92 % 1007,5 hPa 0,0 l/m 13,1 km/h (3 Bft) SW 222 0 min 0,000 mm 0,0 UV-I 0 W/m 11,4 C 9,2 C 19,3 km/h (3 Bft) 92,68 %
13.05.2017 04:22 12,7 C 17,8 C 92 % 1007,5 hPa 0,0 l/m 14,2 km/h (3 Bft) W-SW 249 0 min 0,000 mm 0,0 UV-I 0 W/m 11,4 C 8,7 C 19,3 km/h (3 Bft) 92,45 %
13.05.2017 04:24 12,6 C 17,8 C 92 % 1007,5 hPa 0,0 l/m 14,0 km/h (3 Bft) W-SW 240 0 min 0,000 mm 0,0 UV-I 0 W/m 11,3 C 8,7 C 22,5 km/h (4 Bft) 92,00 %
13.05.2017 04:26 12,6 C 17,8 C 92 % 1007,5 hPa 0,0 l/m 11,4 km/h (2 Bft) W-SW 247 0 min 0,000 mm 0,0 UV-I 0 W/m 11,3 C 9,8 C 19,3 km/h (3 Bft) 94,64 %
13.05.2017 04:28 12,6 C 17,8 C 92 % 1007,5 hPa 0,0 l/m 11,6 km/h (2 Bft) SW 234 0 min 0,000 mm 0,0 UV-I 0 W/m 11,3 C 9,7 C 17,7 km/h (3 Bft) 94,74 %
13.05.2017 04:30 12,6 C 17,8 C 92 % 1007,5 hPa 0,0 l/m 10,5 km/h (2 Bft) S-SW 207 0 min 0,000 mm 0,0 UV-I 0 W/m 11,3 C 10,2 C 17,7 km/h (3 Bft) 96,23 %
13.05.2017 04:32 12,6 C 17,8 C 92 % 1007,5 hPa 0,0 l/m 9,9 km/h (2 Bft) S-SW 211 0 min 0,000 mm 0,0 UV-I 0 W/m 11,3 C 10,5 C 16,1 km/h (3 Bft) 96,30 %
13.05.2017 04:34 12,6 C 17,8 C 92 % 1007,5 hPa 0,0 l/m 11,7 km/h (2 Bft) SW 217 0 min 0,000 mm 0,0 UV-I 0 W/m 11,3 C 9,6 C 16,1 km/h (3 Bft) 97,01 %
13.05.2017 04:36 12,6 C 17,8 C 92 % 1007,5 hPa 0,0 l/m 10,5 km/h (2 Bft) SW 223 0 min 0,000 mm 0,0 UV-I 0 W/m 11,3 C 10,2 C 16,1 km/h (3 Bft) 97,73 %
13.05.2017 04:38 12,6 C 17,8 C 92 % 1007,5 hPa 0,0 l/m 12,1 km/h (2 Bft) W-SW 246 0 min 0,000 mm 0,0 UV-I 0 W/m 11,3 C 9,5 C 17,7 km/h (3 Bft) 97,44 %
13.05.2017 04:40 12,6 C 17,8 C 92 % 1007,5 hPa 0,0 l/m 7,9 km/h (2 Bft) SW 230 0 min 0,000 mm 0,0 UV-I 0 W/m 11,3 C 11,6 C 12,9 km/h (3 Bft) 100,00 %
13.05.2017 04:42 12,6 C 17,8 C 92 % 1007,5 hPa 0,0 l/m 8,2 km/h (2 Bft) S-SW 207 0 min 0,000 mm 0,0 UV-I 0 W/m 11,3 C 11,5 C 14,5 km/h (3 Bft) 94,34 %
13.05.2017 04:44 12,6 C 17,8 C 92 % 1007,5 hPa 0,0 l/m 6,8 km/h (2 Bft) SW 224 0 min 0,000 mm 0,0 UV-I 0 W/m 11,3 C 12,4 C 12,9 km/h (3 Bft) 100,00 %
13.05.2017 04:46 12,6 C 17,8 C 92 % 1007,5 hPa 0,0 l/m 8,2 km/h (2 Bft) SW 220 0 min 0,000 mm 0,0 UV-I 0 W/m 11,3 C 11,5 C 11,3 km/h (2 Bft) 100,00 %
13.05.2017 04:48 12,6 C 17,8 C 92 % 1007,5 hPa 0,0 l/m 8,4 km/h (2 Bft) W-SW 246 0 min 0,000 mm 0,0 UV-I 0 W/m 11,3 C 11,3 C 12,9 km/h (3 Bft) 100,00 %
13.05.2017 04:50 12,6 C 17,8 C 92 % 1007,6 hPa 0,0 l/m 9,0 km/h (2 Bft) W-SW 246 0 min 0,000 mm 0,0 UV-I 0 W/m 11,3 C 11,0 C 14,5 km/h (3 Bft) 98,21 %
13.05.2017 04:52 12,6 C 17,8 C 92 % 1007,6 hPa 0,0 l/m 8,7 km/h (2 Bft) S-SW 200 0 min 0,000 mm 0,0 UV-I 0 W/m 11,3 C 11,2 C 12,9 km/h (3 Bft) 95,12 %
13.05.2017 04:54 12,6 C 17,8 C 92 % 1007,6 hPa 0,0 l/m 8,0 km/h (2 Bft) S-SW 208 0 min 0,000 mm 0,0 UV-I 0 W/m 11,3 C 11,6 C 12,9 km/h (3 Bft) 98,11 %
13.05.2017 04:56 12,6 C 17,8 C 92 % 1007,6 hPa 0,0 l/m 7,2 km/h (2 Bft) W-SW 243 0 min 0,000 mm 0,0 UV-I 0 W/m 11,3 C 12,1 C 9,7 km/h (2 Bft) 97,56 %
13.05.2017 04:58 12,6 C 17,8 C 92 % 1007,7 hPa 0,0 l/m 7,2 km/h (2 Bft) W-SW 250 0 min 0,000 mm 0,0 UV-I 0 W/m 11,3 C 12,1 C 12,9 km/h (3 Bft) 100,00 %
13.05.2017 05:00 12,6 C 17,8 C 92 % 1007,7 hPa 0,0 l/m 5,6 km/h (1 Bft) SW 219 0 min 0,026 mm 0,0 UV-I 0 W/m 11,3 C 12,6 C 8,0 km/h (2 Bft) 95,38 %
13.05.2017 05:02 12,6 C 17,8 C 92 % 1007,7 hPa 0,0 l/m 6,5 km/h (2 Bft) W-SW 244 0 min 0,000 mm 0,0 UV-I 0 W/m 11,3 C 12,6 C 11,3 km/h (2 Bft) 98,11 %
13.05.2017 05:04 12,5 C 17,8 C 92 % 1007,7 hPa 0,0 l/m 5,9 km/h (2 Bft) SW 226 0 min 0,000 mm 0,0 UV-I 0 W/m 11,2 C 12,5 C 8,0 km/h (2 Bft) 97,56 %
13.05.2017 05:06 12,5 C 17,8 C 92 % 1007,7 hPa 0,0 l/m 6,4 km/h (2 Bft) SW 228 0 min 0,000 mm 0,0 UV-I 0 W/m 11,2 C 12,5 C 11,3 km/h (2 Bft) 98,00 %
13.05.2017 05:08 12,4 C 17,8 C 93 % 1007,7 hPa 0,0 l/m 6,9 km/h (2 Bft) SW 229 0 min 0,000 mm 0,0 UV-I 0 W/m 11,3 C 12,1 C 9,7 km/h (2 Bft) 100,00 %
13.05.2017 05:10 12,4 C 17,8 C 93 % 1007,7 hPa 0,0 l/m 9,3 km/h (2 Bft) SW 236 0 min 0,000 mm 0,0 UV-I 0 W/m 11,3 C 10,6 C 11,3 km/h (2 Bft) 97,87 %
13.05.2017 05:12 12,4 C 17,8 C 93 % 1007,8 hPa 0,0 l/m 10,7 km/h (2 Bft) SW 231 0 min 0,000 mm 0,0 UV-I 0 W/m 11,3 C 9,9 C 16,1 km/h (3 Bft) 97,87 %
13.05.2017 05:14 12,4 C 17,8 C 93 % 1007,7 hPa 0,0 l/m 8,9 km/h (2 Bft) SW 217 0 min 0,000 mm 0,0 UV-I 0 W/m 11,3 C 10,8 C 14,5 km/h (3 Bft) 97,44 %
13.05.2017 05:16 12,4 C 17,8 C 93 % 1007,7 hPa 0,0 l/m 8,0 km/h (2 Bft) S-SW 212 0 min 0,000 mm 0,0 UV-I 3 W/m 11,3 C 11,4 C 11,3 km/h (2 Bft) 100,00 %
13.05.2017 05:19 12,4 C 17,8 C 93 % 1007,7 hPa 0,0 l/m 8,5 km/h (2 Bft) SW 236 0 min 0,000 mm 0,0 UV-I 6 W/m 11,3 C 11,1 C 12,9 km/h (3 Bft) 98,68 %
13.05.2017 05:20 12,4 C 17,8 C 93 % 1007,7 hPa 0,0 l/m 7,1 km/h (2 Bft) W-SW 248 0 min 0,000 mm 0,0 UV-I 7 W/m 11,3 C 11,9 C 11,3 km/h (2 Bft) 96,67 %
13.05.2017 05:22 12,4 C 17,8 C 93 % 1007,8 hPa 0,0 l/m 9,1 km/h (2 Bft) W 259 0 min 0,000 mm 0,0 UV-I 8 W/m 11,3 C 10,7 C 16,1 km/h (3 Bft) 97,37 %
13.05.2017 05:24 12,4 C 17,8 C 93 % 1007,8 hPa 0,0 l/m 9,4 km/h (2 Bft) W-SW 249 0 min 0,000 mm 0,0 UV-I 9 W/m 11,3 C 10,6 C 14,5 km/h (3 Bft) 98,00 %
13.05.2017 05:26 12,3 C 17,8 C 93 % 1007,8 hPa 0,0 l/m 12,0 km/h (2 Bft) W 273 0 min 0,000 mm 0,0 UV-I 9 W/m 11,2 C 9,2 C 19,3 km/h (3 Bft) 97,87 %
13.05.2017 05:29 12,3 C 17,8 C 93 % 1007,8 hPa 0,0 l/m 14,0 km/h (3 Bft) W-SW 242 0 min 0,000 mm 0,0 UV-I 11 W/m 11,2 C 8,3 C 19,3 km/h (3 Bft) 97,26 %
13.05.2017 05:30 12,4 C 17,8 C 93 % 1007,8 hPa 0,0 l/m 14,2 km/h (3 Bft) W-SW 254 0 min 0,000 mm 0,0 UV-I 11 W/m 11,3 C 8,4 C 19,3 km/h (3 Bft) 91,67 %
13.05.2017 05:32 12,4 C 17,8 C 92 % 1007,9 hPa 0,0 l/m 12,5 km/h (3 Bft) W 263 0 min 0,000 mm 0,0 UV-I 11 W/m 11,1 C 9,1 C 17,7 km/h (3 Bft) 98,11 %
13.05.2017 05:34 12,4 C 17,8 C 92 % 1007,9 hPa 0,2 l/m 10,8 km/h (2 Bft) W 259 0 min 0,000 mm 0,0 UV-I 11 W/m 11,1 C 9,8 C 16,1 km/h (3 Bft) 100,00 %
13.05.2017 05:36 12,4 C 17,8 C 92 % 1008,0 hPa 0,0 l/m 9,1 km/h (2 Bft) W-SW 247 0 min 0,000 mm 0,0 UV-I 10 W/m 11,1 C 10,7 C 14,5 km/h (3 Bft) 95,45 %
13.05.2017 05:38 12,5 C 17,8 C 92 % 1008,0 hPa 0,2 l/m 6,8 km/h (2 Bft) SW 236 0 min 0,000 mm 0,0 UV-I 10 W/m 11,2 C 12,2 C 12,9 km/h (3 Bft) 96,00 %
13.05.2017 05:40 12,5 C 17,8 C 92 % 1008,0 hPa 0,0 l/m 7,0 km/h (2 Bft) W-SW 242 2 min 0,000 mm 0,0 UV-I 12 W/m 11,2 C 12,1 C 11,3 km/h (2 Bft) 97,87 %
13.05.2017 05:42 12,6 C 17,8 C 91 % 1008,1 hPa 0,0 l/m 4,7 km/h (1 Bft) SW 219 0 min 0,000 mm 0,0 UV-I 13 W/m 11,2 C 12,6 C 11,3 km/h (2 Bft) 100,00 %
13.05.2017 05:44 12,5 C 17,8 C 91 % 1008,1 hPa 0,0 l/m 5,1 km/h (1 Bft) W-SW 257 0 min 0,000 mm 0,0 UV-I 8 W/m 11,1 C 12,5 C 9,7 km/h (2 Bft) 98,00 %
13.05.2017 05:46 12,5 C 17,8 C 91 % 1008,1 hPa 0,2 l/m 5,6 km/h (1 Bft) W-SW 248 0 min 0,000 mm 0,0 UV-I 7 W/m 11,1 C 12,5 C 11,3 km/h (2 Bft) 100,00 %
13.05.2017 05:48 12,5 C 17,8 C 92 % 1008,1 hPa 0,0 l/m 5,4 km/h (1 Bft) W 259 0 min 0,000 mm 0,0 UV-I 7 W/m 11,2 C 12,5 C 8,0 km/h (2 Bft) 100,00 %
13.05.2017 05:50 12,5 C 17,8 C 92 % 1008,2 hPa 0,0 l/m 7,5 km/h (2 Bft) W-SW 249 0 min 0,000 mm 0,0 UV-I 7 W/m 11,2 C 11,8 C 12,9 km/h (3 Bft) 95,08 %
13.05.2017 05:52 12,4 C 17,8 C 92 % 1008,2 hPa 0,0 l/m 9,1 km/h (2 Bft) W-SW 250 0 min 0,000 mm 0,0 UV-I 9 W/m 11,1 C 10,7 C 12,9 km/h (3 Bft) 100,00 %
13.05.2017 05:54 12,4 C 17,8 C 92 % 1008,2 hPa 0,0 l/m 8,6 km/h (2 Bft) W 259 0 min 0,000 mm 0,0 UV-I 9 W/m 11,1 C 11,0 C 12,9 km/h (3 Bft) 98,00 %
13.05.2017 05:56 12,4 C 17,8 C 92 % 1008,2 hPa 0,0 l/m 7,8 km/h (2 Bft) W 281 0 min 0,000 mm 0,0 UV-I 10 W/m 11,1 C 11,5 C 12,9 km/h (3 Bft) 94,55 %
13.05.2017 05:58 12,4 C 17,8 C 92 % 1008,3 hPa 0,0 l/m 8,9 km/h (2 Bft) W 267 0 min 0,000 mm 0,0 UV-I 11 W/m 11,1 C 10,8 C 14,5 km/h (3 Bft) 97,62 %
13.05.2017 06:00 12,4 C 17,8 C 92 % 1008,3 hPa 0,0 l/m 8,8 km/h (2 Bft) W 261 0 min 0,000 mm 0,0 UV-I 11 W/m 11,1 C 10,9 C 12,9 km/h (3 Bft) 95,45 %
13.05.2017 06:02 12,4 C 17,8 C 92 % 1008,4 hPa 0,0 l/m 4,9 km/h (1 Bft) W 262 0 min 0,000 mm 0,0 UV-I 12 W/m 11,1 C 12,4 C 11,3 km/h (2 Bft) 98,15 %
13.05.2017 06:04 12,4 C 17,8 C 92 % 1008,3 hPa 0,0 l/m 6,7 km/h (2 Bft) W 267 0 min 0,000 mm 0,0 UV-I 12 W/m 11,1 C 12,2 C 12,9 km/h (3 Bft) 97,37 %
13.05.2017 06:06 12,3 C 17,8 C 92 % 1008,4 hPa 0,0 l/m 7,8 km/h (2 Bft) W 267 0 min 0,000 mm 0,0 UV-I 14 W/m 11,0 C 11,4 C 11,3 km/h (2 Bft) 98,00 %
13.05.2017 06:08 12,3 C 17,8 C 92 % 1008,4 hPa 0,0 l/m 9,1 km/h (2 Bft) W-SW 252 0 min 0,000 mm 0,0 UV-I 14 W/m 11,0 C 10,6 C 14,5 km/h (3 Bft) 98,00 %
13.05.2017 06:10 12,3 C 17,8 C 93 % 1008,4 hPa 0,0 l/m 7,6 km/h (2 Bft) W 269 0 min 0,000 mm 0,0 UV-I 15 W/m 11,2 C 11,5 C 11,3 km/h (2 Bft) 93,62 %
13.05.2017 06:12 12,3 C 17,8 C 93 % 1008,5 hPa 0,0 l/m 8,8 km/h (2 Bft) SW 233 0 min 0,000 mm 0,0 UV-I 16 W/m 11,2 C 10,8 C 14,5 km/h (3 Bft) 100,00 %
13.05.2017 06:14 12,3 C 17,8 C 93 % 1008,6 hPa 0,0 l/m 9,7 km/h (2 Bft) W 270 0 min 0,000 mm 0,0 UV-I 18 W/m 11,2 C 10,3 C 12,9 km/h (3 Bft) 94,00 %
13.05.2017 06:16 12,3 C 17,8 C 93 % 1008,5 hPa 0,0 l/m 6,9 km/h (2 Bft) W 268 0 min 0,000 mm 0,0 UV-I 18 W/m 11,2 C 12,0 C 11,3 km/h (2 Bft) 98,04 %
13.05.2017 06:18 12,3 C 17,8 C 93 % 1008,6 hPa 0,0 l/m 8,6 km/h (2 Bft) W-SW 252 0 min 0,000 mm 0,0 UV-I 18 W/m 11,2 C 10,9 C 14,5 km/h (3 Bft) 94,29 %
13.05.2017 06:20 12,3 C 17,8 C 93 % 1008,6 hPa 0,0 l/m 7,4 km/h (2 Bft) W 259 0 min 0,000 mm 0,0 UV-I 19 W/m 11,2 C 11,6 C 11,3 km/h (2 Bft) 98,11 %
13.05.2017 06:22 12,3 C 17,8 C 93 % 1008,7 hPa 0,0 l/m 6,0 km/h (2 Bft) W-SW 254 0 min 0,000 mm 0,0 UV-I 19 W/m 11,2 C 12,3 C 11,3 km/h (2 Bft) 95,12 %
13.05.2017 06:24 12,3 C 17,8 C 93 % 1008,7 hPa 0,2 l/m 7,4 km/h (2 Bft) W 259 0 min 0,000 mm 0,0 UV-I 19 W/m 11,2 C 11,6 C 11,3 km/h (2 Bft) 92,45 %
13.05.2017 06:26 12,3 C 17,8 C 93 % 1008,7 hPa 0,0 l/m 6,3 km/h (2 Bft) W 261 0 min 0,000 mm 0,0 UV-I 19 W/m 11,2 C 12,3 C 9,7 km/h (2 Bft) 98,00 %
13.05.2017 06:28 12,3 C 17,8 C 93 % 1008,7 hPa 0,0 l/m 6,0 km/h (2 Bft) W-SW 258 0 min 0,000 mm 0,0 UV-I 20 W/m 11,2 C 12,3 C 9,7 km/h (2 Bft) 96,00 %
13.05.2017 06:30 12,3 C 17,8 C 93 % 1008,7 hPa 0,0 l/m 6,4 km/h (2 Bft) W-SW 250 0 min 0,000 mm 0,0 UV-I 21 W/m 11,2 C 12,3 C 11,3 km/h (2 Bft) 97,56 %
13.05.2017 06:32 12,3 C 17,8 C 93 % 1008,8 hPa 0,0 l/m 6,5 km/h (2 Bft) W-SW 245 0 min 0,000 mm 0,0 UV-I 21 W/m 11,2 C 12,3 C 12,9 km/h (3 Bft) 100,00 %
13.05.2017 06:34 12,2 C 17,8 C 93 % 1008,8 hPa 0,0 l/m 6,3 km/h (2 Bft) W-SW 250 0 min 0,000 mm 0,0 UV-I 21 W/m 11,1 C 12,2 C 8,0 km/h (2 Bft) 100,00 %
13.05.2017 06:36 12,3 C 17,8 C 93 % 1008,8 hPa 0,0 l/m 5,9 km/h (2 Bft) W-SW 237 0 min 0,000 mm 0,0 UV-I 21 W/m 11,2 C 12,3 C 8,0 km/h (2 Bft) 100,00 %
13.05.2017 06:38 12,2 C 17,8 C 93 % 1008,9 hPa 0,0 l/m 6,3 km/h (2 Bft) SW 232 0 min 0,000 mm 0,0 UV-I 22 W/m 11,1 C 12,2 C 9,7 km/h (2 Bft) 100,00 %
13.05.2017 06:40 12,2 C 17,8 C 93 % 1008,9 hPa 0,0 l/m 5,5 km/h (1 Bft) W-SW 249 0 min 0,000 mm 0,0 UV-I 23 W/m 11,1 C 12,2 C 8,0 km/h (2 Bft) 95,74 %
13.05.2017 06:42 12,2 C 17,8 C 93 % 1008,9 hPa 0,0 l/m 4,6 km/h (1 Bft) W-SW 250 0 min 0,000 mm 0,0 UV-I 24 W/m 11,1 C 12,2 C 6,4 km/h (2 Bft) 100,00 %
13.05.2017 06:44 12,3 C 17,8 C 93 % 1009,0 hPa 0,0 l/m 5,1 km/h (1 Bft) W-SW 240 0 min 0,000 mm 0,0 UV-I 25 W/m 11,2 C 12,3 C 9,7 km/h (2 Bft) 95,74 %
13.05.2017 06:46 12,2 C 17,8 C 94 % 1009,0 hPa 0,0 l/m 5,0 km/h (1 Bft) SW 223 0 min 0,000 mm 0,0 UV-I 26 W/m 11,3 C 12,2 C 6,4 km/h (2 Bft) 96,23 %
13.05.2017 06:48 12,2 C 17,8 C 94 % 1009,1 hPa 0,0 l/m 5,2 km/h (1 Bft) W-SW 244 0 min 0,000 mm 0,0 UV-I 26 W/m 11,3 C 12,2 C 8,0 km/h (2 Bft) 97,37 %
13.05.2017 06:50 12,3 C 17,8 C 93 % 1009,1 hPa 0,0 l/m 4,8 km/h (1 Bft) W-SW 238 0 min 0,000 mm 0,0 UV-I 28 W/m 11,2 C 12,3 C 8,0 km/h (2 Bft) 98,00 %
13.05.2017 06:52 12,3 C 17,8 C 94 % 1009,1 hPa 0,0 l/m 4,7 km/h (1 Bft) SW 234 0 min 0,000 mm 0,0 UV-I 28 W/m 11,4 C 12,3 C 8,0 km/h (2 Bft) 93,62 %
13.05.2017 06:54 12,3 C 17,8 C 94 % 1009,1 hPa 0,0 l/m 4,0 km/h (1 Bft) W-SW 244 0 min 0,000 mm 0,0 UV-I 28 W/m 11,4 C 12,3 C 6,4 km/h (2 Bft) 100,00 %
13.05.2017 06:56 12,3 C 17,8 C 94 % 1009,2 hPa 0,0 l/m 4,4 km/h (1 Bft) W-SW 244 0 min 0,000 mm 0,0 UV-I 30 W/m 11,4 C 12,3 C 4,8 km/h (1 Bft) 96,00 %
13.05.2017 06:58 12,3 C 17,8 C 94 % 1009,2 hPa 0,0 l/m 4,3 km/h (1 Bft) W-SW 248 0 min 0,000 mm 0,0 UV-I 30 W/m 11,4 C 12,3 C 6,4 km/h (2 Bft) 98,11 %
13.05.2017 07:00 12,3 C 17,8 C 94 % 1009,2 hPa 0,0 l/m 4,4 km/h (1 Bft) W-SW 249 0 min 0,025 mm 0,0 UV-I 30 W/m 11,4 C 12,3 C 6,4 km/h (2 Bft) 92,11 %
13.05.2017 07:02 12,3 C 17,8 C 94 % 1009,2 hPa 0,0 l/m 4,3 km/h (1 Bft) W-SW 249 0 min 0,000 mm 0,0 UV-I 30 W/m 11,4 C 12,3 C 8,0 km/h (2 Bft) 98,11 %
13.05.2017 07:04 12,3 C 17,8 C 94 % 1009,3 hPa 0,0 l/m 4,5 km/h (1 Bft) W-SW 249 0 min 0,000 mm 0,0 UV-I 30 W/m 11,4 C 12,3 C 8,0 km/h (2 Bft) 97,87 %
13.05.2017 07:06 12,2 C 17,8 C 94 % 1009,3 hPa 0,0 l/m 5,3 km/h (1 Bft) W-SW 249 0 min 0,000 mm 0,0 UV-I 28 W/m 11,3 C 12,2 C 8,0 km/h (2 Bft) 97,37 %
13.05.2017 07:08 12,3 C 17,8 C 94 % 1009,3 hPa 0,0 l/m 4,8 km/h (1 Bft) W-SW 258 0 min 0,000 mm 0,0 UV-I 28 W/m 11,4 C 12,3 C 8,0 km/h (2 Bft) 97,87 %
13.05.2017 07:10 12,3 C 17,8 C 94 % 1009,3 hPa 0,0 l/m 6,1 km/h (2 Bft) W-SW 252 0 min 0,000 mm 0,0 UV-I 26 W/m 11,4 C 12,3 C 9,7 km/h (2 Bft) 98,11 %
13.05.2017 07:12 12,2 C 17,8 C 94 % 1009,4 hPa 0,0 l/m 5,9 km/h (2 Bft) W-SW 255 0 min 0,000 mm 0,0 UV-I 26 W/m 11,3 C 12,2 C 9,7 km/h (2 Bft) 89,36 %
13.05.2017 07:14 12,3 C 17,8 C 94 % 1009,5 hPa 0,2 l/m 6,5 km/h (2 Bft) W-SW 258 0 min 0,000 mm 0,0 UV-I 26 W/m 11,4 C 12,3 C 11,3 km/h (2 Bft) 95,74 %
13.05.2017 07:16 12,2 C 17,8 C 94 % 1009,5 hPa 0,0 l/m 4,6 km/h (1 Bft) W-SW 257 0 min 0,000 mm 0,0 UV-I 25 W/m 11,3 C 12,2 C 9,7 km/h (2 Bft) 97,62 %
13.05.2017 07:18 12,2 C 17,8 C 94 % 1009,5 hPa 0,0 l/m 4,1 km/h (1 Bft) W-SW 257 0 min 0,000 mm 0,0 UV-I 25 W/m 11,3 C 12,2 C 4,8 km/h (1 Bft) 92,45 %
13.05.2017 07:20 12,2 C 17,8 C 94 % 1009,6 hPa 0,2 l/m 5,2 km/h (1 Bft) SW 232 0 min 0,000 mm 0,0 UV-I 25 W/m 11,3 C 12,2 C 6,4 km/h (2 Bft) 96,00 %
13.05.2017 07:22 12,2 C 17,8 C 95 % 1009,6 hPa 0,0 l/m 5,0 km/h (1 Bft) SW 232 0 min 0,000 mm 0,0 UV-I 25 W/m 11,4 C 12,2 C 6,4 km/h (2 Bft) 97,37 %
13.05.2017 07:24 12,2 C 17,8 C 95 % 1009,7 hPa 0,0 l/m 4,3 km/h (1 Bft) SW 232 0 min 0,000 mm 0,0 UV-I 26 W/m 11,4 C 12,2 C 6,4 km/h (2 Bft) 92,45 %
13.05.2017 07:26 12,2 C 17,8 C 95 % 1009,6 hPa 0,0 l/m 4,8 km/h (1 Bft) SW 232 0 min 0,000 mm 0,0 UV-I 26 W/m 11,4 C 12,2 C 6,4 km/h (2 Bft) 98,00 %
13.05.2017 07:28 12,2 C 17,8 C 95 % 1009,7 hPa 0,2 l/m 6,2 km/h (2 Bft) SW 236 0 min 0,000 mm 0,0 UV-I 26 W/m 11,4 C 12,2 C 8,0 km/h (2 Bft) 97,14 %
13.05.2017 07:30 12,2 C 17,8 C 95 % 1009,7 hPa 0,0 l/m 5,4 km/h (1 Bft) W-SW 248 0 min 0,000 mm 0,0 UV-I 26 W/m 11,4 C 12,2 C 6,4 km/h (2 Bft) 96,43 %
13.05.2017 07:32 12,3 C 17,8 C 95 % 1009,7 hPa 0,2 l/m 4,2 km/h (1 Bft) W-SW 248 0 min 0,000 mm 0,0 UV-I 28 W/m 11,5 C 12,3 C 6,4 km/h (2 Bft) 97,37 %
13.05.2017 07:34 12,3 C 17,8 C 95 % 1009,7 hPa 0,0 l/m 5,5 km/h (1 Bft) SW 217 0 min 0,000 mm 0,0 UV-I 28 W/m 11,5 C 12,3 C 8,0 km/h (2 Bft) 95,74 %
13.05.2017 07:36 12,2 C 17,8 C 95 % 1009,7 hPa 0,0 l/m 6,0 km/h (2 Bft) SW 228 0 min 0,000 mm 0,0 UV-I 28 W/m 11,4 C 12,2 C 9,7 km/h (2 Bft) 97,56 %
13.05.2017 07:38 12,2 C 17,8 C 95 % 1009,7 hPa 0,2 l/m 5,3 km/h (1 Bft) S-SW 213 0 min 0,000 mm 0,0 UV-I 28 W/m 11,4 C 12,2 C 8,0 km/h (2 Bft) 94,92 %
13.05.2017 07:40 12,2 C 17,8 C 95 % 1009,7 hPa 0,0 l/m 5,9 km/h (2 Bft) SW 221 0 min 0,000 mm 0,0 UV-I 28 W/m 11,4 C 12,2 C 9,7 km/h (2 Bft) 97,73 %
13.05.2017 07:42 12,2 C 17,8 C 95 % 1009,7 hPa 0,0 l/m 5,9 km/h (2 Bft) SW 234 0 min 0,000 mm 0,0 UV-I 28 W/m 11,4 C 12,2 C 11,3 km/h (2 Bft) 100,00 %
13.05.2017 07:44 12,2 C 17,8 C 95 % 1009,7 hPa 0,2 l/m 6,8 km/h (2 Bft) W-SW 238 0 min 0,000 mm 0,0 UV-I 30 W/m 11,4 C 11,9 C 9,7 km/h (2 Bft) 98,00 %
13.05.2017 07:46 12,2 C 17,8 C 95 % 1009,7 hPa 0,0 l/m 7,9 km/h (2 Bft) W-SW 247 0 min 0,000 mm 0,0 UV-I 31 W/m 11,4 C 11,2 C 11,3 km/h (2 Bft) 92,11 %
13.05.2017 07:48 12,2 C 17,8 C 95 % 1009,7 hPa 0,0 l/m 8,4 km/h (2 Bft) SW 234 0 min 0,000 mm 0,0 UV-I 32 W/m 11,4 C 10,9 C 12,9 km/h (3 Bft) 95,74 %
13.05.2017 07:50 12,3 C 17,8 C 95 % 1009,7 hPa 0,0 l/m 9,2 km/h (2 Bft) W 260 0 min 0,000 mm 0,0 UV-I 34 W/m 11,5 C 10,6 C 14,5 km/h (3 Bft) 94,64 %
13.05.2017 07:52 12,3 C 17,8 C 95 % 1009,8 hPa 0,0 l/m 9,2 km/h (2 Bft) SW 224 0 min 0,000 mm 0,0 UV-I 38 W/m 11,5 C 10,6 C 12,9 km/h (3 Bft) 97,87 %
13.05.2017 07:54 12,3 C 17,8 C 95 % 1009,8 hPa 0,0 l/m 9,3 km/h (2 Bft) SW 232 0 min 0,000 mm 0,0 UV-I 40 W/m 11,5 C 10,5 C 12,9 km/h (3 Bft) 97,44 %
13.05.2017 07:56 12,3 C 17,8 C 95 % 1009,8 hPa 0,2 l/m 11,7 km/h (2 Bft) SW 232 0 min 0,000 mm 0,0 UV-I 45 W/m 11,5 C 9,3 C 17,7 km/h (3 Bft) 94,74 %
13.05.2017 07:58 12,3 C 17,8 C 95 % 1009,9 hPa 0,0 l/m 11,8 km/h (2 Bft) SW 226 0 min 0,000 mm 0,0 UV-I 51 W/m 11,5 C 9,3 C 17,7 km/h (3 Bft) 94,34 %
13.05.2017 08:00 12,3 C 17,8 C 95 % 1009,8 hPa 0,0 l/m 9,9 km/h (2 Bft) W-SW 242 0 min 0,000 mm 0,0 UV-I 56 W/m 11,5 C 10,2 C 16,1 km/h (3 Bft) 89,29 %
13.05.2017 08:02 12,4 C 17,8 C 95 % 1009,8 hPa 0,0 l/m 10,9 km/h (2 Bft) SW 224 0 min 0,025 mm 0,0 UV-I 60 W/m 11,6 C 9,8 C 16,1 km/h (3 Bft) 95,45 %
13.05.2017 08:04 12,4 C 17,8 C 94 % 1009,8 hPa 0,2 l/m 14,3 km/h (3 Bft) SW 225 0 min 0,000 mm 0,0 UV-I 63 W/m 11,5 C 8,3 C 19,3 km/h (3 Bft) 92,00 %
13.05.2017 08:06 12,4 C 17,8 C 95 % 1009,8 hPa 0,0 l/m 15,6 km/h (3 Bft) W-SW 243 0 min 0,000 mm 0,0 UV-I 69 W/m 11,6 C 7,8 C 22,5 km/h (4 Bft) 95,74 %
13.05.2017 08:08 12,4 C 17,8 C 94 % 1009,8 hPa 0,0 l/m 12,5 km/h (3 Bft) SW 229 0 min 0,000 mm 0,0 UV-I 71 W/m 11,5 C 9,1 C 17,7 km/h (3 Bft) 94,74 %
13.05.2017 08:10 12,5 C 17,8 C 94 % 1009,8 hPa 0,0 l/m 11,4 km/h (2 Bft) SW 232 0 min 0,000 mm 0,0 UV-I 75 W/m 11,6 C 9,7 C 22,5 km/h (4 Bft) 94,34 %
13.05.2017 08:12 12,5 C 17,8 C 94 % 1009,8 hPa 0,0 l/m 14,8 km/h (3 Bft) SW 221 0 min 0,000 mm 0,0 UV-I 78 W/m 11,6 C 8,2 C 20,9 km/h (4 Bft) 95,12 %
13.05.2017 08:14 12,6 C 17,8 C 94 % 1009,8 hPa 0,0 l/m 12,8 km/h (3 Bft) SW 234 0 min 0,000 mm 0,0 UV-I 82 W/m 11,7 C 9,2 C 19,3 km/h (3 Bft) 94,64 %
13.05.2017 08:16 12,6 C 17,8 C 94 % 1009,8 hPa 0,0 l/m 13,7 km/h (3 Bft) W-SW 244 0 min 0,000 mm 0,0 UV-I 85 W/m 11,7 C 8,8 C 17,7 km/h (3 Bft) 94,87 %
13.05.2017 08:18 12,6 C 17,8 C 94 % 1009,9 hPa 0,0 l/m 16,2 km/h (3 Bft) W-SW 254 0 min 0,000 mm 0,0 UV-I 93 W/m 11,7 C 7,9 C 20,9 km/h (4 Bft) 94,00 %
13.05.2017 08:20 12,7 C 17,8 C 94 % 1009,9 hPa 0,0 l/m 13,0 km/h (3 Bft) SW 235 0 min 0,000 mm 0,0 UV-I 99 W/m 11,8 C 9,2 C 20,9 km/h (4 Bft) 94,74 %
13.05.2017 08:22 12,7 C 17,8 C 94 % 1009,8 hPa 0,0 l/m 14,9 km/h (3 Bft) W-SW 239 0 min 0,000 mm 0,4 UV-I 107 W/m 11,8 C 8,4 C 22,5 km/h (4 Bft) 96,00 %
13.05.2017 08:24 12,7 C 17,8 C 93 % 1009,8 hPa 0,0 l/m 16,5 km/h (3 Bft) W-SW 244 0 min 0,000 mm 0,5 UV-I 115 W/m 11,6 C 7,9 C 20,9 km/h (4 Bft) 92,59 %
13.05.2017 08:26 12,8 C 17,8 C 93 % 1009,9 hPa 0,0 l/m 12,5 km/h (3 Bft) W-SW 255 0 min 0,000 mm 0,5 UV-I 122 W/m 11,7 C 9,5 C 17,7 km/h (3 Bft) 98,46 %
13.05.2017 08:28 12,8 C 17,8 C 93 % 1009,9 hPa 0,0 l/m 17,0 km/h (3 Bft) W 259 0 min 0,000 mm 0,5 UV-I 131 W/m 11,7 C 7,8 C 29,0 km/h (5 Bft) 97,56 %
13.05.2017 08:30 12,9 C 17,8 C 93 % 1009,9 hPa 0,0 l/m 13,2 km/h (3 Bft) S-SW 194 0 min 0,000 mm 0,5 UV-I 138 W/m 11,8 C 9,3 C 17,7 km/h (3 Bft) 100,00 %
13.05.2017 08:32 12,9 C 17,8 C 93 % 1010,0 hPa 0,0 l/m 13,3 km/h (3 Bft) SW 235 0 min 0,000 mm 0,5 UV-I 143 W/m 11,8 C 9,3 C 24,1 km/h (4 Bft) 97,87 %
13.05.2017 08:34 12,9 C 17,8 C 93 % 1010,0 hPa 0,0 l/m 16,1 km/h (3 Bft) SW 234 0 min 0,000 mm 0,6 UV-I 144 W/m 11,8 C 8,3 C 22,5 km/h (4 Bft) 100,00 %
13.05.2017 08:36 12,9 C 17,8 C 93 % 1010,1 hPa 0,0 l/m 13,9 km/h (3 Bft) SW 231 0 min 0,000 mm 0,6 UV-I 143 W/m 11,8 C 9,1 C 20,9 km/h (4 Bft) 100,00 %
13.05.2017 08:38 12,9 C 17,8 C 93 % 1010,1 hPa 0,0 l/m 14,8 km/h (3 Bft) SW 228 0 min 0,000 mm 0,5 UV-I 137 W/m 11,8 C 8,7 C 20,9 km/h (4 Bft) 100,00 %
13.05.2017 08:40 13,0 C 17,8 C 93 % 1010,2 hPa 0,0 l/m 18,2 km/h (3 Bft) W-SW 254 0 min 0,000 mm 0,5 UV-I 130 W/m 11,9 C 7,7 C 24,1 km/h (4 Bft) 98,11 %
13.05.2017 08:42 13,0 C 17,8 C 93 % 1010,2 hPa 0,0 l/m 17,6 km/h (3 Bft) W-SW 258 0 min 0,000 mm 0,5 UV-I 123 W/m 11,9 C 7,9 C 24,1 km/h (4 Bft) 97,37 %
13.05.2017 08:44 13,0 C 17,8 C 93 % 1010,2 hPa 0,0 l/m 13,4 km/h (3 Bft) SW 225 0 min 0,000 mm 0,1 UV-I 116 W/m 11,9 C 9,4 C 22,5 km/h (4 Bft) 100,00 %
13.05.2017 08:46 13,0 C 17,8 C 93 % 1010,3 hPa 0,0 l/m 16,5 km/h (3 Bft) W-SW 254 0 min 0,000 mm 0,0 UV-I 114 W/m 11,9 C 8,2 C 24,1 km/h (4 Bft) 97,37 %
13.05.2017 08:48 13,0 C 17,8 C 93 % 1010,3 hPa 0,0 l/m 13,1 km/h (3 Bft) SW 219 0 min 0,000 mm 0,0 UV-I 117 W/m 11,9 C 9,5 C 17,7 km/h (3 Bft) 98,11 %
13.05.2017 08:50 13,1 C 17,8 C 93 % 1010,3 hPa 0,0 l/m 13,5 km/h (3 Bft) W-SW 240 0 min 0,000 mm 0,0 UV-I 119 W/m 12,0 C 9,5 C 19,3 km/h (3 Bft) 95,12 %
13.05.2017 08:52 13,1 C 17,8 C 93 % 1010,3 hPa 0,0 l/m 9,6 km/h (2 Bft) W 266 0 min 0,000 mm 0,5 UV-I 123 W/m 12,0 C 11,2 C 16,1 km/h (3 Bft) 100,00 %
13.05.2017 08:54 13,1 C 17,8 C 93 % 1010,3 hPa 0,0 l/m 11,8 km/h (2 Bft) W-SW 248 0 min 0,000 mm 0,5 UV-I 127 W/m 12,0 C 10,2 C 19,3 km/h (3 Bft) 100,00 %
13.05.2017 08:56 13,1 C 17,8 C 93 % 1010,4 hPa 0,0 l/m 12,9 km/h (3 Bft) SW 229 0 min 0,000 mm 0,5 UV-I 129 W/m 12,0 C 9,7 C 17,7 km/h (3 Bft) 97,37 %
13.05.2017 08:58 13,1 C 17,8 C 93 % 1010,4 hPa 0,0 l/m 15,7 km/h (3 Bft) W 266 0 min 0,000 mm 0,5 UV-I 130 W/m 12,0 C 8,6 C 24,1 km/h (4 Bft) 98,31 %
13.05.2017 09:00 13,0 C 17,8 C 93 % 1010,4 hPa 0,0 l/m 14,1 km/h (3 Bft) W-SW 249 0 min 0,077 mm 0,5 UV-I 129 W/m 11,9 C 9,1 C 20,9 km/h (4 Bft) 100,00 %
13.05.2017 09:02 13,0 C 17,8 C 93 % 1010,4 hPa 0,0 l/m 16,5 km/h (3 Bft) W 270 0 min 0,000 mm 0,5 UV-I 127 W/m 11,9 C 8,2 C 24,1 km/h (4 Bft) 98,21 %
13.05.2017 09:04 13,0 C 17,8 C 93 % 1010,4 hPa 0,0 l/m 15,1 km/h (3 Bft) SW 236 0 min 0,000 mm 0,5 UV-I 124 W/m 11,9 C 8,7 C 22,5 km/h (4 Bft) 100,00 %
13.05.2017 09:06 13,0 C 17,8 C 93 % 1010,5 hPa 0,0 l/m 13,5 km/h (3 Bft) SW 225 0 min 0,000 mm 0,3 UV-I 118 W/m 11,9 C 9,3 C 17,7 km/h (3 Bft) 97,37 %
13.05.2017 09:08 13,0 C 17,8 C 93 % 1010,5 hPa 0,0 l/m 10,9 km/h (2 Bft) S-SW 194 0 min 0,000 mm 0,0 UV-I 114 W/m 11,9 C 10,5 C 16,1 km/h (3 Bft) 100,00 %
13.05.2017 09:10 13,0 C 17,8 C 93 % 1010,5 hPa 0,0 l/m 10,5 km/h (2 Bft) SW 231 0 min 0,000 mm 0,0 UV-I 110 W/m 11,9 C 10,7 C 17,7 km/h (3 Bft) 100,00 %
13.05.2017 09:12 13,0 C 17,8 C 93 % 1010,5 hPa 0,0 l/m 13,5 km/h (3 Bft) W-SW 250 0 min 0,000 mm 0,0 UV-I 107 W/m 11,9 C 9,3 C 24,1 km/h (4 Bft) 100,00 %
13.05.2017 09:14 13,0 C 17,8 C 93 % 1010,6 hPa 0,0 l/m 14,0 km/h (3 Bft) W-SW 243 0 min 0,000 mm 0,0 UV-I 105 W/m 11,9 C 9,1 C 19,3 km/h (3 Bft) 97,56 %
13.05.2017 09:16 12,9 C 17,8 C 93 % 1010,6 hPa 0,0 l/m 12,2 km/h (2 Bft) S-SW 207 0 min 0,000 mm 0,0 UV-I 104 W/m 11,8 C 9,8 C 20,9 km/h (4 Bft) 100,00 %
13.05.2017 09:18 12,9 C 17,8 C 93 % 1010,6 hPa 0,0 l/m 13,0 km/h (3 Bft) SW 234 0 min 0,000 mm 0,0 UV-I 104 W/m 11,8 C 9,4 C 20,9 km/h (4 Bft) 100,00 %
13.05.2017 09:20 13,0 C 17,8 C 93 % 1010,7 hPa 0,0 l/m 12,8 km/h (3 Bft) SW 223 0 min 0,000 mm 0,2 UV-I 105 W/m 11,9 C 9,6 C 20,9 km/h (4 Bft) 98,00 %
13.05.2017 09:22 12,9 C 17,8 C 93 % 1010,7 hPa 0,0 l/m 15,1 km/h (3 Bft) SW 227 0 min 0,000 mm 0,5 UV-I 107 W/m 11,8 C 8,6 C 20,9 km/h (4 Bft) 96,00 %
13.05.2017 09:24 12,9 C 17,8 C 93 % 1010,8 hPa 0,0 l/m 11,1 km/h (2 Bft) W 265 0 min 0,000 mm 0,5 UV-I 113 W/m 11,8 C 10,3 C 16,1 km/h (3 Bft) 100,00 %
13.05.2017 09:26 12,9 C 17,8 C 93 % 1010,8 hPa 0,0 l/m 14,0 km/h (3 Bft) W 262 0 min 0,000 mm 0,5 UV-I 119 W/m 11,8 C 9,0 C 20,9 km/h (4 Bft) 100,00 %
13.05.2017 09:28 12,9 C 17,8 C 93 % 1010,8 hPa 0,0 l/m 8,7 km/h (2 Bft) SW 236 0 min 0,000 mm 0,6 UV-I 127 W/m 11,8 C 11,5 C 14,5 km/h (3 Bft) 100,00 %
13.05.2017 09:30 13,0 C 17,8 C 93 % 1010,8 hPa 0,0 l/m 10,7 km/h (2 Bft) SW 226 0 min 0,000 mm 0,6 UV-I 134 W/m 11,9 C 10,6 C 17,7 km/h (3 Bft) 100,00 %
13.05.2017 09:32 13,0 C 17,8 C 93 % 1010,9 hPa 0,0 l/m 10,9 km/h (2 Bft) SW 234 0 min 0,000 mm 0,6 UV-I 141 W/m 11,9 C 10,5 C 17,7 km/h (3 Bft) 100,00 %
13.05.2017 09:34 13,1 C 17,8 C 93 % 1010,9 hPa 0,0 l/m 10,0 km/h (2 Bft) SW 232 0 min 0,000 mm 0,7 UV-I 149 W/m 12,0 C 11,0 C 14,5 km/h (3 Bft) 100,00 %
13.05.2017 09:36 13,1 C 17,8 C 93 % 1010,9 hPa 0,0 l/m 11,0 km/h (2 Bft) S-SW 195 0 min 0,000 mm 0,8 UV-I 157 W/m 12,0 C 10,5 C 16,1 km/h (3 Bft) 100,00 %
13.05.2017 09:38 13,1 C 17,8 C 93 % 1011,0 hPa 0,0 l/m 9,3 km/h (2 Bft) SW 232 0 min 0,000 mm 0,8 UV-I 170 W/m 12,0 C 11,4 C 12,9 km/h (3 Bft) 97,56 %
13.05.2017 09:40 13,2 C 17,8 C 93 % 1011,0 hPa 0,0 l/m 6,8 km/h (2 Bft) S-SW 207 0 min 0,000 mm 0,9 UV-I 179 W/m 12,1 C 13,0 C 12,9 km/h (3 Bft) 100,00 %
13.05.2017 09:42 13,2 C 17,8 C 93 % 1011,0 hPa 0,0 l/m 6,8 km/h (2 Bft) SW 220 0 min 0,000 mm 1,0 UV-I 186 W/m 12,1 C 13,0 C 11,3 km/h (2 Bft) 98,51 %
13.05.2017 09:44 13,3 C 17,8 C 93 % 1011,1 hPa 0,0 l/m 10,8 km/h (2 Bft) S 182 0 min 0,000 mm 1,0 UV-I 188 W/m 12,2 C 10,9 C 16,1 km/h (3 Bft) 98,00 %
13.05.2017 09:46 13,3 C 17,8 C 93 % 1011,1 hPa 0,0 l/m 8,6 km/h (2 Bft) SW 230 0 min 0,000 mm 1,0 UV-I 188 W/m 12,2 C 12,0 C 16,1 km/h (3 Bft) 100,00 %
13.05.2017 09:48 13,3 C 17,8 C 92 % 1011,1 hPa 0,0 l/m 9,5 km/h (2 Bft) W-SW 243 0 min 0,000 mm 1,1 UV-I 192 W/m 12,0 C 11,5 C 14,5 km/h (3 Bft) 100,00 %
13.05.2017 09:50 13,3 C 17,8 C 92 % 1011,1 hPa 0,0 l/m 10,1 km/h (2 Bft) SW 217 0 min 0,000 mm 1,1 UV-I 187 W/m 12,0 C 11,2 C 19,3 km/h (3 Bft) 98,08 %
13.05.2017 09:52 13,4 C 17,8 C 92 % 1011,1 hPa 0,0 l/m 9,2 km/h (2 Bft) S 189 0 min 0,000 mm 1,1 UV-I 180 W/m 12,1 C 11,8 C 14,5 km/h (3 Bft) 97,62 %
13.05.2017 09:54 13,4 C 17,8 C 92 % 1011,2 hPa 0,0 l/m 8,3 km/h (2 Bft) W-SW 247 0 min 0,000 mm 1,1 UV-I 179 W/m 12,1 C 12,2 C 11,3 km/h (2 Bft) 98,00 %
13.05.2017 09:56 13,5 C 17,8 C 92 % 1011,2 hPa 0,0 l/m 8,7 km/h (2 Bft) SW 221 0 min 0,000 mm 1,1 UV-I 180 W/m 12,2 C 12,1 C 12,9 km/h (3 Bft) 96,00 %
13.05.2017 09:58 13,5 C 17,8 C 92 % 1011,2 hPa 0,0 l/m 9,9 km/h (2 Bft) W-SW 245 0 min 0,000 mm 1,2 UV-I 177 W/m 12,2 C 11,5 C 17,7 km/h (3 Bft) 95,12 %
13.05.2017 10:00 13,5 C 17,8 C 92 % 1011,2 hPa 0,0 l/m 9,0 km/h (2 Bft) SW 223 0 min 0,076 mm 1,2 UV-I 169 W/m 12,2 C 12,0 C 16,1 km/h (3 Bft) 98,11 %
13.05.2017 10:02 13,5 C 17,8 C 91 % 1011,3 hPa 0,0 l/m 9,4 km/h (2 Bft) S-SW 201 0 min 0,000 mm 1,2 UV-I 163 W/m 12,1 C 11,8 C 14,5 km/h (3 Bft) 97,14 %
13.05.2017 10:04 13,5 C 17,8 C 92 % 1011,4 hPa 0,0 l/m 10,5 km/h (2 Bft) S-SW 211 0 min 0,000 mm 1,2 UV-I 165 W/m 12,2 C 11,2 C 14,5 km/h (3 Bft) 97,56 %
13.05.2017 10:06 13,6 C 17,8 C 92 % 1011,4 hPa 0,0 l/m 8,7 km/h (2 Bft) S-SW 196 0 min 0,000 mm 1,3 UV-I 176 W/m 12,3 C 12,2 C 14,5 km/h (3 Bft) 96,92 %
13.05.2017 10:08 13,6 C 17,8 C 91 % 1011,4 hPa 0,0 l/m 12,4 km/h (3 Bft) S-SW 210 0 min 0,000 mm 1,4 UV-I 190 W/m 12,2 C 10,5 C 20,9 km/h (4 Bft) 94,29 %
13.05.2017 10:10 13,6 C 17,8 C 91 % 1011,4 hPa 0,0 l/m 8,8 km/h (2 Bft) S-SO 164 0 min 0,000 mm 1,5 UV-I 207 W/m 12,2 C 12,2 C 14,5 km/h (3 Bft) 98,21 %
13.05.2017 10:12 13,7 C 17,8 C 91 % 1011,4 hPa 0,0 l/m 9,4 km/h (2 Bft) W-SW 243 0 min 0,000 mm 1,6 UV-I 236 W/m 12,3 C 12,0 C 12,9 km/h (3 Bft) 95,45 %
13.05.2017 10:14 13,7 C 17,8 C 91 % 1011,4 hPa 0,0 l/m 9,2 km/h (2 Bft) S-SW 202 0 min 0,000 mm 1,8 UV-I 288 W/m 12,3 C 12,1 C 17,7 km/h (3 Bft) 96,23 %
13.05.2017 10:16 13,8 C 17,8 C 92 % 1011,5 hPa 0,0 l/m 8,2 km/h (2 Bft) S-SW 207 0 min 0,000 mm 2,0 UV-I 359 W/m 12,5 C 12,7 C 14,5 km/h (3 Bft) 97,73 %
13.05.2017 10:18 14,0 C 17,8 C 91 % 1011,5 hPa 0,0 l/m 7,9 km/h (2 Bft) W-SW 239 2 min 0,000 mm 2,1 UV-I 452 W/m 12,6 C 13,1 C 11,3 km/h (2 Bft) 98,00 %
13.05.2017 10:20 14,2 C 17,8 C 91 % 1011,5 hPa 0,0 l/m 7,6 km/h (2 Bft) SW 214 2 min 0,000 mm 2,3 UV-I 533 W/m 12,8 C 13,5 C 11,3 km/h (2 Bft) 97,56 %
13.05.2017 10:22 14,4 C 17,8 C 91 % 1011,4 hPa 0,0 l/m 7,3 km/h (2 Bft) SW 235 2 min 0,000 mm 2,1 UV-I 485 W/m 12,9 C 13,9 C 14,5 km/h (3 Bft) 97,73 %
13.05.2017 10:24 14,6 C 17,8 C 91 % 1011,4 hPa 0,0 l/m 9,5 km/h (2 Bft) SW 221 2 min 0,000 mm 2,1 UV-I 450 W/m 13,1 C 12,9 C 14,5 km/h (3 Bft) 96,23 %
13.05.2017 10:26 14,7 C 17,8 C 90 % 1011,5 hPa 0,0 l/m 11,6 km/h (2 Bft) SW 233 2 min 0,000 mm 2,0 UV-I 455 W/m 13,1 C 12,1 C 17,7 km/h (3 Bft) 97,56 %
13.05.2017 10:28 14,9 C 17,8 C 90 % 1011,4 hPa 0,0 l/m 7,2 km/h (2 Bft) S-SW 205 2 min 0,000 mm 2,1 UV-I 540 W/m 13,3 C 14,4 C 11,3 km/h (2 Bft) 95,24 %
13.05.2017 10:30 15,1 C 17,8 C 89 % 1011,4 hPa 0,0 l/m 7,8 km/h (2 Bft) S-SW 211 0 min 0,000 mm 1,7 UV-I 383 W/m 13,3 C 14,3 C 14,5 km/h (3 Bft) 98,11 %
13.05.2017 10:32 15,2 C 17,8 C 89 % 1011,4 hPa 0,0 l/m 7,8 km/h (2 Bft) W 259 0 min 0,000 mm 1,6 UV-I 330 W/m 13,4 C 14,4 C 12,9 km/h (3 Bft) 100,00 %
13.05.2017 10:34 15,2 C 17,8 C 88 % 1011,4 hPa 0,0 l/m 7,2 km/h (2 Bft) W-SW 244 0 min 0,000 mm 1,5 UV-I 312 W/m 13,2 C 14,8 C 11,3 km/h (2 Bft) 95,74 %
13.05.2017 10:36 15,2 C 17,8 C 88 % 1011,4 hPa 0,0 l/m 6,8 km/h (2 Bft) W 265 0 min 0,000 mm 1,6 UV-I 306 W/m 13,2 C 15,0 C 11,3 km/h (2 Bft) 100,00 %
13.05.2017 10:38 15,2 C 17,8 C 88 % 1011,4 hPa 0,0 l/m 8,0 km/h (2 Bft) SW 221 0 min 0,000 mm 1,6 UV-I 309 W/m 13,2 C 14,3 C 11,3 km/h (2 Bft) 98,21 %
13.05.2017 10:40 15,2 C 17,8 C 88 % 1011,4 hPa 0,0 l/m 7,2 km/h (2 Bft) SW 219 0 min 0,000 mm 1,7 UV-I 316 W/m 13,2 C 14,8 C 12,9 km/h (3 Bft) 97,73 %
13.05.2017 10:42 15,2 C 17,8 C 87 % 1011,5 hPa 0,0 l/m 6,4 km/h (2 Bft) S-SW 211 0 min 0,000 mm 1,7 UV-I 325 W/m 13,0 C 15,2 C 11,3 km/h (2 Bft) 100,00 %
13.05.2017 10:44 15,3 C 17,8 C 88 % 1011,5 hPa 0,0 l/m 5,8 km/h (2 Bft) W-SW 242 0 min 0,000 mm 1,8 UV-I 332 W/m 13,3 C 15,3 C 11,3 km/h (2 Bft) 100,00 %
13.05.2017 10:46 15,3 C 17,8 C 87 % 1011,5 hPa 0,0 l/m 8,9 km/h (2 Bft) SW 217 0 min 0,000 mm 1,9 UV-I 335 W/m 13,1 C 14,0 C 17,7 km/h (3 Bft) 100,00 %
13.05.2017 10:48 15,3 C 17,8 C 87 % 1011,5 hPa 0,0 l/m 12,7 km/h (3 Bft) SW 227 0 min 0,000 mm 1,9 UV-I 331 W/m 13,1 C 12,4 C 17,7 km/h (3 Bft) 100,00 %
13.05.2017 10:50 15,4 C 17,8 C 87 % 1011,5 hPa 0,0 l/m 7,7 km/h (2 Bft) SW 233 0 min 0,000 mm 2,0 UV-I 335 W/m 13,2 C 14,7 C 11,3 km/h (2 Bft) 100,00 %
13.05.2017 10:52 15,4 C 17,8 C 87 % 1011,5 hPa 0,0 l/m 8,3 km/h (2 Bft) W-SW 251 0 min 0,000 mm 2,1 UV-I 335 W/m 13,2 C 14,4 C 16,1 km/h (3 Bft) 100,00 %
13.05.2017 10:54 15,5 C 17,8 C 86 % 1011,5 hPa 0,0 l/m 8,9 km/h (2 Bft) SW 232 0 min 0,000 mm 2,1 UV-I 333 W/m 13,2 C 14,2 C 12,9 km/h (3 Bft) 100,00 %
13.05.2017 10:56 15,5 C 17,8 C 86 % 1011,5 hPa 0,0 l/m 11,0 km/h (2 Bft) SW 223 0 min 0,000 mm 2,2 UV-I 345 W/m 13,2 C 13,2 C 16,1 km/h (3 Bft) 100,00 %
13.05.2017 10:58 15,5 C 17,8 C 84 % 1011,5 hPa 0,0 l/m 16,0 km/h (3 Bft) W-SW 244 0 min 0,000 mm 2,3 UV-I 373 W/m 12,8 C 11,5 C 22,5 km/h (4 Bft) 98,00 %
13.05.2017 11:00 15,6 C 17,8 C 84 % 1011,6 hPa 0,0 l/m 11,4 km/h (2 Bft) SW 217 2 min 0,178 mm 2,5 UV-I 428 W/m 12,9 C 13,2 C 17,7 km/h (3 Bft) 100,00 %
13.05.2017 11:02 15,7 C 17,8 C 84 % 1011,6 hPa 0,0 l/m 13,4 km/h (3 Bft) SW 228 2 min 0,000 mm 2,7 UV-I 491 W/m 13,0 C 12,6 C 22,5 km/h (4 Bft) 100,00 %
13.05.2017 11:04 15,8 C 17,8 C 85 % 1011,6 hPa 0,0 l/m 10,1 km/h (2 Bft) SW 221 2 min 0,000 mm 2,8 UV-I 513 W/m 13,3 C 14,0 C 16,1 km/h (3 Bft) 98,08 %
13.05.2017 11:06 15,9 C 17,8 C 83 % 1011,7 hPa 0,0 l/m 14,8 km/h (3 Bft) W-SW 250 2 min 0,000 mm 3,1 UV-I 517 W/m 13,0 C 12,3 C 22,5 km/h (4 Bft) 98,11 %
13.05.2017 11:08 16,1 C 17,8 C 83 % 1011,6 hPa 0,0 l/m 11,7 km/h (2 Bft) SW 231 2 min 0,000 mm 2,7 UV-I 484 W/m 13,2 C 13,7 C 19,3 km/h (3 Bft) 100,00 %
13.05.2017 11:10 16,2 C 17,8 C 83 % 1011,7 hPa 0,0 l/m 13,0 km/h (3 Bft) SW 227 2 min 0,000 mm 2,7 UV-I 486 W/m 13,3 C 13,3 C 17,7 km/h (3 Bft) 98,51 %
13.05.2017 11:12 16,3 C 17,8 C 83 % 1011,8 hPa 0,0 l/m 14,6 km/h (3 Bft) S-SW 194 2 min 0,000 mm 2,7 UV-I 499 W/m 13,4 C 12,9 C 20,9 km/h (4 Bft) 100,00 %
13.05.2017 11:14 16,3 C 17,8 C 82 % 1011,6 hPa 0,0 l/m 13,8 km/h (3 Bft) S-SW 213 2 min 0,000 mm 2,6 UV-I 460 W/m 13,2 C 13,1 C 19,3 km/h (3 Bft) 100,00 %
13.05.2017 11:16 16,3 C 17,8 C 82 % 1011,7 hPa 0,0 l/m 12,0 km/h (2 Bft) SW 215 0 min 0,000 mm 2,7 UV-I 434 W/m 13,2 C 13,8 C 19,3 km/h (3 Bft) 100,00 %
13.05.2017 11:18 16,4 C 17,8 C 82 % 1011,7 hPa 0,0 l/m 13,6 km/h (3 Bft) S-SW 213 2 min 0,000 mm 3,4 UV-I 559 W/m 13,3 C 13,3 C 20,9 km/h (4 Bft) 100,00 %
13.05.2017 11:20 16,5 C 17,8 C 82 % 1011,7 hPa 0,0 l/m 9,1 km/h (2 Bft) S 173 2 min 0,000 mm 3,0 UV-I 643 W/m 13,4 C 15,2 C 17,7 km/h (3 Bft) 100,00 %
13.05.2017 11:22 16,6 C 17,8 C 81 % 1011,7 hPa 0,0 l/m 12,8 km/h (3 Bft) S-SW 210 2 min 0,000 mm 2,9 UV-I 444 W/m 13,3 C 13,8 C 17,7 km/h (3 Bft) 100,00 %
13.05.2017 11:24 16,5 C 17,8 C 81 % 1011,7 hPa 0,0 l/m 11,9 km/h (2 Bft) W-SW 240 0 min 0,000 mm 3,0 UV-I 393 W/m 13,2 C 14,0 C 17,7 km/h (3 Bft) 97,56 %
13.05.2017 11:26 16,6 C 17,8 C 81 % 1011,7 hPa 0,0 l/m 10,9 km/h (2 Bft) S-SO 168 2 min 0,000 mm 4,0 UV-I 561 W/m 13,3 C 14,5 C 17,7 km/h (3 Bft) 94,64 %
13.05.2017 11:28 16,7 C 17,8 C 81 % 1011,7 hPa 0,0 l/m 11,9 km/h (2 Bft) W-SW 253 2 min 0,000 mm 4,5 UV-I 880 W/m 13,4 C 14,3 C 17,7 km/h (3 Bft) 97,37 %
13.05.2017 11:30 16,9 C 17,8 C 80 % 1011,8 hPa 0,0 l/m 20,0 km/h (4 Bft) W-SW 251 2 min 0,000 mm 4,6 UV-I 898 W/m 13,4 C 12,2 C 27,4 km/h (4 Bft) 96,00 %
13.05.2017 11:32 17,2 C 17,8 C 80 % 1011,6 hPa 0,0 l/m 12,5 km/h (3 Bft) W-SW 238 2 min 0,000 mm 4,5 UV-I 922 W/m 13,7 C 14,6 C 19,3 km/h (3 Bft) 97,56 %
13.05.2017 11:34 17,3 C 17,8 C 81 % 1011,6 hPa 0,0 l/m 12,4 km/h (3 Bft) SW 222 2 min 0,000 mm 3,9 UV-I 916 W/m 14,0 C 14,8 C 17,7 km/h (3 Bft) 94,92 %
13.05.2017 11:36 17,4 C 17,8 C 79 % 1011,6 hPa 0,0 l/m 15,1 km/h (3 Bft) SW 227 2 min 0,000 mm 4,7 UV-I 900 W/m 13,7 C 14,1 C 24,1 km/h (4 Bft) 100,00 %
13.05.2017 11:38 17,5 C 17,8 C 77 % 1011,6 hPa 0,0 l/m 16,1 km/h (3 Bft) SW 222 2 min 0,000 mm 4,8 UV-I 884 W/m 13,4 C 13,9 C 24,1 km/h (4 Bft) 94,64 %
13.05.2017 11:40 17,5 C 17,8 C 77 % 1011,6 hPa 0,0 l/m 18,2 km/h (3 Bft) W-SW 253 2 min 0,000 mm 4,9 UV-I 902 W/m 13,4 C 13,4 C 27,4 km/h (4 Bft) 100,00 %
13.05.2017 11:42 17,6 C 17,8 C 77 % 1011,6 hPa 0,0 l/m 17,4 km/h (3 Bft) SW 232 2 min 0,000 mm 5,0 UV-I 982 W/m 13,5 C 13,7 C 29,0 km/h (5 Bft) 97,14 %
13.05.2017 11:44 17,6 C 17,8 C 76 % 1011,6 hPa 0,0 l/m 17,3 km/h (3 Bft) W-SW 250 2 min 0,000 mm 5,1 UV-I 982 W/m 13,3 C 13,7 C 29,0 km/h (5 Bft) 95,74 %
13.05.2017 11:46 17,8 C 17,8 C 79 % 1011,5 hPa 0,0 l/m 13,7 km/h (3 Bft) SW 215 2 min 0,000 mm 5,1 UV-I 987 W/m 14,1 C 15,0 C 22,5 km/h (4 Bft) 97,62 %
13.05.2017 11:48 17,9 C 17,8 C 76 % 1011,6 hPa 0,2 l/m 17,7 km/h (3 Bft) W-SW 237 2 min 0,000 mm 4,8 UV-I 981 W/m 13,6 C 14,0 C 27,4 km/h (4 Bft) 98,00 %
13.05.2017 11:50 18,0 C 17,8 C 76 % 1011,6 hPa 0,0 l/m 16,7 km/h (3 Bft) W 281 2 min 0,000 mm 4,6 UV-I 1110 W/m 13,7 C 14,4 C 29,0 km/h (5 Bft) 93,18 %
13.05.2017 11:52 18,0 C 17,8 C 75 % 1011,6 hPa 0,0 l/m 17,8 km/h (3 Bft) W-SW 238 2 min 0,000 mm 4,8 UV-I 1086 W/m 13,5 C 14,1 C 30,6 km/h (5 Bft) 96,23 %
13.05.2017 11:54 17,9 C 17,8 C 74 % 1011,6 hPa 0,0 l/m 19,4 km/h (3 Bft) W 262 2 min 0,000 mm 5,3 UV-I 1007 W/m 13,2 C 13,6 C 32,2 km/h (5 Bft) 95,12 %
13.05.2017 11:56 18,0 C 17,8 C 74 % 1011,6 hPa 0,0 l/m 19,0 km/h (3 Bft) W-SW 238 2 min 0,000 mm 5,3 UV-I 1009 W/m 13,3 C 13,8 C 27,4 km/h (4 Bft) 94,00 %
13.05.2017 11:58 18,1 C 17,8 C 74 % 1011,6 hPa 0,0 l/m 18,3 km/h (3 Bft) W-SW 240 2 min 0,000 mm 5,4 UV-I 996 W/m 13,4 C 14,1 C 25,7 km/h (4 Bft) 94,00 %
13.05.2017 12:00 18,2 C 17,8 C 75 % 1011,6 hPa 0,0 l/m 16,6 km/h (3 Bft) SW 231 2 min 0,457 mm 5,4 UV-I 985 W/m 13,7 C 14,7 C 27,4 km/h (4 Bft) 95,74 %
13.05.2017 12:02 18,2 C 17,8 C 73 % 1011,6 hPa 0,0 l/m 17,5 km/h (3 Bft) S-SW 197 2 min 0,000 mm 5,4 UV-I 969 W/m 13,3 C 14,4 C 27,4 km/h (4 Bft) 94,74 %
13.05.2017 12:04 18,3 C 17,8 C 76 % 1011,7 hPa 0,0 l/m 11,5 km/h (2 Bft) S-SW 213 2 min 0,000 mm 5,0 UV-I 977 W/m 14,0 C 16,2 C 19,3 km/h (3 Bft) 94,64 %
13.05.2017 12:06 18,3 C 18,3 C 76 % 1011,7 hPa 0,0 l/m 17,9 km/h (3 Bft) SW 223 2 min 0,000 mm 5,5 UV-I 1046 W/m 14,0 C 14,5 C 25,7 km/h (4 Bft) 94,74 %
13.05.2017 12:08 18,3 C 18,3 C 73 % 1011,7 hPa 0,0 l/m 19,9 km/h (4 Bft) W-SW 250 2 min 0,000 mm 5,5 UV-I 1017 W/m 13,4 C 14,0 C 27,4 km/h (4 Bft) 96,43 %
13.05.2017 12:10 18,2 C 18,3 C 72 % 1011,8 hPa 0,0 l/m 16,8 km/h (3 Bft) SW 226 2 min 0,000 mm 5,4 UV-I 978 W/m 13,1 C 14,6 C 27,4 km/h (4 Bft) 95,74 %
13.05.2017 12:12 18,2 C 18,3 C 72 % 1011,8 hPa 0,0 l/m 17,2 km/h (3 Bft) SW 216 2 min 0,000 mm 5,5 UV-I 965 W/m 13,1 C 14,5 C 29,0 km/h (5 Bft) 92,11 %
13.05.2017 12:14 18,2 C 18,3 C 74 % 1011,7 hPa 0,0 l/m 17,3 km/h (3 Bft) S-SW 211 2 min 0,000 mm 5,5 UV-I 964 W/m 13,5 C 14,5 C 25,7 km/h (4 Bft) 94,64 %
13.05.2017 12:16 18,2 C 18,3 C 74 % 1011,7 hPa 0,0 l/m 17,0 km/h (3 Bft) SW 227 2 min 0,000 mm 5,0 UV-I 965 W/m 13,5 C 14,6 C 27,4 km/h (4 Bft) 95,12 %
13.05.2017 12:18 18,4 C 18,3 C 74 % 1011,7 hPa 0,0 l/m 16,5 km/h (3 Bft) W-SW 248 2 min 0,000 mm 4,9 UV-I 979 W/m 13,7 C 14,9 C 24,1 km/h (4 Bft) 94,00 %
13.05.2017 12:20 18,4 C 18,3 C 72 % 1011,8 hPa 0,0 l/m 18,0 km/h (3 Bft) S-SW 204 2 min 0,000 mm 5,5 UV-I 949 W/m 13,3 C 14,6 C 27,4 km/h (4 Bft) 97,56 %
13.05.2017 12:22 18,4 C 18,3 C 72 % 1011,6 hPa 0,0 l/m 19,9 km/h (4 Bft) W 259 2 min 0,000 mm 5,3 UV-I 933 W/m 13,3 C 14,2 C 32,2 km/h (5 Bft) 97,78 %
13.05.2017 12:24 18,3 C 18,3 C 72 % 1011,6 hPa 0,0 l/m 17,5 km/h (3 Bft) SW 236 2 min 0,000 mm 4,5 UV-I 929 W/m 13,2 C 14,6 C 32,2 km/h (5 Bft) 96,15 %
13.05.2017 12:26 18,3 C 18,3 C 74 % 1011,7 hPa 0,0 l/m 19,5 km/h (3 Bft) S-SW 208 2 min 0,000 mm 5,3 UV-I 910 W/m 13,6 C 14,1 C 27,4 km/h (4 Bft) 97,22 %
13.05.2017 12:28 18,4 C 18,3 C 74 % 1011,6 hPa 0,0 l/m 12,3 km/h (3 Bft) W-SW 241 2 min 0,000 mm 5,4 UV-I 936 W/m 13,7 C 16,1 C 20,9 km/h (4 Bft) 96,61 %
13.05.2017 12:30 18,6 C 18,3 C 73 % 1011,6 hPa 0,0 l/m 16,5 km/h (3 Bft) SW 232 2 min 0,000 mm 4,3 UV-I 1023 W/m 13,7 C 15,2 C 25,7 km/h (4 Bft) 97,56 %
13.05.2017 12:32 18,6 C 18,3 C 73 % 1011,6 hPa 0,0 l/m 13,8 km/h (3 Bft) W-NW 288 2 min 0,000 mm 4,5 UV-I 1034 W/m 13,7 C 15,9 C 20,9 km/h (4 Bft) 98,00 %
13.05.2017 12:34 18,4 C 18,3 C 71 % 1011,6 hPa 0,0 l/m 17,1 km/h (3 Bft) W-SW 249 2 min 0,000 mm 3,5 UV-I 647 W/m 13,0 C 14,8 C 25,7 km/h (4 Bft) 93,18 %
13.05.2017 12:36 18,5 C 18,3 C 74 % 1011,6 hPa 0,0 l/m 15,2 km/h (3 Bft) SW 232 2 min 0,000 mm 5,5 UV-I 773 W/m 13,8 C 15,4 C 24,1 km/h (4 Bft) 96,43 %
13.05.2017 12:38 18,5 C 18,3 C 72 % 1011,6 hPa 0,0 l/m 16,3 km/h (3 Bft) W-SW 253 2 min 0,000 mm 4,3 UV-I 1042 W/m 13,4 C 15,1 C 27,4 km/h (4 Bft) 97,37 %
13.05.2017 12:40 18,4 C 18,3 C 72 % 1011,6 hPa 0,0 l/m 17,2 km/h (3 Bft) SW 214 2 min 0,000 mm 3,7 UV-I 1042 W/m 13,3 C 14,8 C 25,7 km/h (4 Bft) 96,23 %
13.05.2017 12:42 18,4 C 18,3 C 72 % 1011,6 hPa 0,0 l/m 15,1 km/h (3 Bft) SW 224 2 min 0,000 mm 5,6 UV-I 1032 W/m 13,3 C 15,3 C 27,4 km/h (4 Bft) 98,00 %
13.05.2017 12:44 18,5 C 18,3 C 72 % 1011,6 hPa 0,0 l/m 16,0 km/h (3 Bft) W-SW 248 2 min 0,000 mm 5,6 UV-I 998 W/m 13,4 C 15,2 C 22,5 km/h (4 Bft) 100,00 %
13.05.2017 12:46 18,7 C 18,3 C 72 % 1011,6 hPa 0,0 l/m 17,3 km/h (3 Bft) S-SW 211 2 min 0,000 mm 5,6 UV-I 1015 W/m 13,5 C 15,1 C 25,7 km/h (4 Bft) 95,59 %
13.05.2017 12:48 18,8 C 18,3 C 71 % 1011,6 hPa 0,0 l/m 16,1 km/h (3 Bft) S 190 2 min 0,000 mm 5,7 UV-I 1062 W/m 13,4 C 15,5 C 27,4 km/h (4 Bft) 95,12 %
13.05.2017 12:50 18,9 C 18,3 C 71 % 1011,5 hPa 0,0 l/m 16,8 km/h (3 Bft) W 277 2 min 0,000 mm 3,8 UV-I 1112 W/m 13,5 C 15,5 C 25,7 km/h (4 Bft) 92,45 %
13.05.2017 12:52 19,1 C 18,3 C 73 % 1011,5 hPa 0,0 l/m 15,4 km/h (3 Bft) W 263 2 min 0,000 mm 3,6 UV-I 945 W/m 14,1 C 16,1 C 24,1 km/h (4 Bft) 100,00 %
13.05.2017 12:54 19,0 C 18,3 C 70 % 1011,6 hPa 0,0 l/m 15,4 km/h (3 Bft) W 263 0 min 0,000 mm 3,5 UV-I 431 W/m 13,4 C 15,9 C 22,5 km/h (4 Bft) 95,45 %
13.05.2017 12:56 18,9 C 18,3 C 70 % 1011,6 hPa 0,0 l/m 15,8 km/h (3 Bft) W 262 0 min 0,000 mm 2,4 UV-I 438 W/m 13,3 C 15,7 C 25,7 km/h (4 Bft) 98,00 %
13.05.2017 12:58 18,8 C 18,3 C 69 % 1011,6 hPa 0,0 l/m 15,5 km/h (3 Bft) S-SW 201 0 min 0,000 mm 1,6 UV-I 252 W/m 13,0 C 15,7 C 24,1 km/h (4 Bft) 98,00 %
13.05.2017 13:00 18,5 C 18,3 C 70 % 1011,6 hPa 0,0 l/m 19,0 km/h (3 Bft) W 269 0 min 0,508 mm 1,1 UV-I 181 W/m 12,9 C 14,5 C 29,0 km/h (5 Bft) 97,37 %
13.05.2017 13:02 18,2 C 18,3 C 73 % 1011,7 hPa 0,2 l/m 18,5 km/h (3 Bft) SW 217 0 min 0,000 mm 1,0 UV-I 157 W/m 13,3 C 14,2 C 25,7 km/h (4 Bft) 97,87 %
13.05.2017 13:04 17,8 C 18,3 C 75 % 1011,7 hPa 0,2 l/m 15,1 km/h (3 Bft) W 260 0 min 0,000 mm 1,2 UV-I 170 W/m 13,3 C 14,6 C 24,1 km/h (4 Bft) 100,00 %
13.05.2017 13:06 17,4 C 18,3 C 77 % 1011,7 hPa 0,0 l/m 15,2 km/h (3 Bft) W 267 0 min 0,000 mm 1,7 UV-I 225 W/m 13,3 C 14,0 C 22,5 km/h (4 Bft) 98,70 %
13.05.2017 13:08 17,1 C 18,3 C 79 % 1011,7 hPa 0,0 l/m 11,5 km/h (2 Bft) W-SW 244 0 min 0,000 mm 2,1 UV-I 277 W/m 13,4 C 14,9 C 17,7 km/h (3 Bft) 98,11 %
13.05.2017 13:10 17,1 C 18,3 C 81 % 1011,7 hPa 0,0 l/m 8,6 km/h (2 Bft) W 266 0 min 0,000 mm 2,6 UV-I 347 W/m 13,8 C 16,0 C 16,1 km/h (3 Bft) 100,00 %
13.05.2017 13:13 17,2 C 18,3 C 81 % 1011,6 hPa 0,0 l/m 9,5 km/h (2 Bft) W-SW 240 0 min 0,000 mm 3,1 UV-I 430 W/m 13,9 C 15,8 C 20,9 km/h (4 Bft) 98,63 %
13.05.2017 13:14 17,2 C 18,3 C 81 % 1011,6 hPa 0,0 l/m 12,3 km/h (3 Bft) S-SW 209 0 min 0,000 mm 2,8 UV-I 341 W/m 13,9 C 14,7 C 17,7 km/h (3 Bft) 91,67 %
13.05.2017 13:16 17,3 C 18,3 C 80 % 1011,6 hPa 0,0 l/m 7,9 km/h (2 Bft) SW 235 0 min 0,000 mm 3,8 UV-I 378 W/m 13,8 C 16,6 C 12,9 km/h (3 Bft) 94,74 %
13.05.2017 13:18 17,6 C 18,3 C 80 % 1011,6 hPa 0,0 l/m 5,8 km/h (2 Bft) SW 225 2 min 0,000 mm 3,4 UV-I 543 W/m 14,1 C 17,6 C 9,7 km/h (2 Bft) 92,68 %
13.05.2017 13:20 17,7 C 18,3 C 78 % 1011,6 hPa 0,0 l/m 5,4 km/h (1 Bft) W-SW 250 2 min 0,000 mm 3,9 UV-I 521 W/m 13,8 C 17,7 C 9,7 km/h (2 Bft) 98,46 %
13.05.2017 13:22 17,8 C 18,3 C 78 % 1011,6 hPa 0,0 l/m 6,1 km/h (2 Bft) SW 215 0 min 0,000 mm 2,2 UV-I 291 W/m 13,9 C 17,8 C 11,3 km/h (2 Bft) 96,00 %
13.05.2017 13:24 17,7 C 18,3 C 77 % 1011,6 hPa 0,0 l/m 4,6 km/h (1 Bft) S-SW 204 0 min 0,000 mm 1,7 UV-I 240 W/m 13,6 C 17,7 C 8,0 km/h (2 Bft) 98,00 %
13.05.2017 13:26 17,7 C 18,3 C 78 % 1011,6 hPa 0,0 l/m 3,1 km/h (1 Bft) SW 229 0 min 0,000 mm 1,5 UV-I 229 W/m 13,8 C 17,7 C 4,8 km/h (1 Bft) 97,37 %
13.05.2017 13:28 17,7 C 18,3 C 78 % 1011,7 hPa 0,0 l/m 4,7 km/h (1 Bft) W-SW 254 0 min 0,000 mm 1,6 UV-I 240 W/m 13,8 C 17,7 C 12,9 km/h (3 Bft) 94,34 %
13.05.2017 13:30 17,7 C 18,3 C 76 % 1011,7 hPa 0,0 l/m 8,2 km/h (2 Bft) W-NW 284 0 min 0,000 mm 2,2 UV-I 311 W/m 13,4 C 16,8 C 12,9 km/h (3 Bft) 100,00 %
13.05.2017 13:32 17,9 C 18,3 C 77 % 1011,6 hPa 0,0 l/m 5,1 km/h (1 Bft) W-SW 254 2 min 0,000 mm 4,5 UV-I 675 W/m 13,8 C 17,9 C 9,7 km/h (2 Bft) 100,00 %
13.05.2017 13:34 18,3 C 18,3 C 79 % 1011,7 hPa 0,0 l/m 6,6 km/h (2 Bft) W-SW 257 2 min 0,000 mm 4,8 UV-I 1041 W/m 14,6 C 18,2 C 16,1 km/h (3 Bft) 100,00 %
13.05.2017 13:36 18,8 C 18,3 C 76 % 1011,6 hPa 0,0 l/m 14,0 km/h (3 Bft) W-SW 257 2 min 0,000 mm 4,9 UV-I 1077 W/m 14,5 C 16,1 C 22,5 km/h (4 Bft) 97,73 %
13.05.2017 13:38 19,2 C 18,3 C 74 % 1011,7 hPa 0,0 l/m 12,5 km/h (3 Bft) SW 234 2 min 0,000 mm 4,1 UV-I 1056 W/m 14,4 C 17,0 C 19,3 km/h (3 Bft) 98,00 %
13.05.2017 13:40 19,2 C 18,3 C 72 % 1011,6 hPa 0,0 l/m 15,1 km/h (3 Bft) SW 232 2 min 0,000 mm 2,1 UV-I 600 W/m 14,0 C 16,3 C 22,5 km/h (4 Bft) 97,56 %
13.05.2017 13:42 18,9 C 18,3 C 71 % 1011,7 hPa 0,0 l/m 15,3 km/h (3 Bft) SW 234 0 min 0,000 mm 1,9 UV-I 259 W/m 13,5 C 15,8 C 24,1 km/h (4 Bft) 97,62 %
13.05.2017 13:44 18,7 C 18,3 C 71 % 1011,6 hPa 0,0 l/m 13,6 km/h (3 Bft) W-SW 258 0 min 0,000 mm 2,2 UV-I 313 W/m 13,3 C 16,1 C 22,5 km/h (4 Bft) 93,10 %
13.05.2017 13:46 18,6 C 18,3 C 70 % 1011,7 hPa 0,0 l/m 10,3 km/h (2 Bft) SW 232 0 min 0,000 mm 3,0 UV-I 459 W/m 13,0 C 17,0 C 16,1 km/h (3 Bft) 97,22 %
13.05.2017 13:48 18,7 C 18,3 C 74 % 1011,7 hPa 0,0 l/m 9,5 km/h (2 Bft) S-SW 207 2 min 0,000 mm 4,1 UV-I 833 W/m 14,0 C 17,4 C 16,1 km/h (3 Bft) 98,00 %
13.05.2017 13:50 19,0 C 18,3 C 74 % 1011,7 hPa 0,0 l/m 8,3 km/h (2 Bft) S-SW 211 2 min 0,000 mm 4,7 UV-I 865 W/m 14,3 C 18,2 C 17,7 km/h (3 Bft) 96,00 %
13.05.2017 13:52 19,2 C 18,3 C 72 % 1011,6 hPa 0,0 l/m 11,2 km/h (2 Bft) NW 304 2 min 0,000 mm 5,1 UV-I 1076 W/m 14,0 C 17,4 C 19,3 km/h (3 Bft) 91,49 %
13.05.2017 13:54 19,4 C 18,3 C 70 % 1011,7 hPa 0,0 l/m 13,5 km/h (3 Bft) W-SW 242 2 min 0,000 mm 2,4 UV-I 719 W/m 13,8 C 16,9 C 20,9 km/h (4 Bft) 97,87 %
13.05.2017 13:56 19,4 C 18,3 C 69 % 1011,7 hPa 0,0 l/m 13,9 km/h (3 Bft) W 260 0 min 0,000 mm 1,6 UV-I 216 W/m 13,6 C 16,8 C 25,7 km/h (4 Bft) 98,11 %
13.05.2017 13:58 19,2 C 18,3 C 69 % 1011,8 hPa 0,0 l/m 14,0 km/h (3 Bft) W-SW 244 0 min 0,000 mm 1,5 UV-I 221 W/m 13,4 C 16,5 C 24,1 km/h (4 Bft) 97,67 %
13.05.2017 14:00 18,9 C 18,3 C 67 % 1011,7 hPa 0,0 l/m 15,9 km/h (3 Bft) W-SW 253 0 min 0,305 mm 1,9 UV-I 252 W/m 12,6 C 15,7 C 25,7 km/h (4 Bft) 93,18 %
13.05.2017 14:02 18,7 C 18,3 C 67 % 1011,7 hPa 0,0 l/m 14,2 km/h (3 Bft) SW 225 0 min 0,000 mm 2,3 UV-I 294 W/m 12,4 C 15,9 C 24,1 km/h (4 Bft) 96,23 %
13.05.2017 14:04 18,7 C 18,3 C 68 % 1011,7 hPa 0,0 l/m 16,1 km/h (3 Bft) W-SW 237 0 min 0,000 mm 3,1 UV-I 404 W/m 12,7 C 15,4 C 22,5 km/h (4 Bft) 96,88 %
13.05.2017 14:06 18,8 C 18,3 C 70 % 1011,7 hPa 0,0 l/m 18,5 km/h (3 Bft) SW 229 2 min 0,000 mm 4,5 UV-I 918 W/m 13,2 C 15,0 C 29,0 km/h (5 Bft) 96,43 %
13.05.2017 14:08 18,9 C 18,3 C 69 % 1011,7 hPa 0,2 l/m 19,3 km/h (3 Bft) S-SW 201 2 min 0,000 mm 4,2 UV-I 986 W/m 13,1 C 14,9 C 29,0 km/h (5 Bft) 93,62 %
13.05.2017 14:10 19,1 C 18,3 C 66 % 1011,7 hPa 0,0 l/m 13,5 km/h (3 Bft) W 270 2 min 0,000 mm 4,7 UV-I 875 W/m 12,6 C 16,6 C 20,9 km/h (4 Bft) 100,00 %
13.05.2017 14:12 19,2 C 18,9 C 69 % 1011,7 hPa 0,0 l/m 11,9 km/h (2 Bft) W-SW 242 2 min 0,000 mm 4,6 UV-I 810 W/m 13,4 C 17,1 C 19,3 km/h (3 Bft) 100,00 %
13.05.2017 14:14 19,3 C 18,9 C 66 % 1011,6 hPa 0,0 l/m 15,2 km/h (3 Bft) W-SW 238 2 min 0,000 mm 4,5 UV-I 775 W/m 12,8 C 16,4 C 27,4 km/h (4 Bft) 94,64 %
13.05.2017 14:16 19,4 C 18,9 C 66 % 1011,6 hPa 0,0 l/m 17,0 km/h (3 Bft) W-SW 248 2 min 0,000 mm 4,4 UV-I 760 W/m 12,9 C 16,1 C 27,4 km/h (4 Bft) 100,00 %
13.05.2017 14:18 19,5 C 18,9 C 66 % 1011,6 hPa 0,0 l/m 12,8 km/h (3 Bft) S-SW 208 2 min 0,000 mm 3,8 UV-I 800 W/m 13,0 C 17,2 C 22,5 km/h (4 Bft) 100,00 %
13.05.2017 14:20 19,5 C 18,9 C 66 % 1011,6 hPa 0,0 l/m 16,2 km/h (3 Bft) SW 222 2 min 0,000 mm 2,4 UV-I 711 W/m 13,0 C 16,4 C 24,1 km/h (4 Bft) 100,00 %
13.05.2017 14:22 19,3 C 18,9 C 66 % 1011,7 hPa 0,0 l/m 14,9 km/h (3 Bft) W-SW 242 0 min 0,000 mm 2,0 UV-I 244 W/m 12,8 C 16,4 C 22,5 km/h (4 Bft) 93,62 %
13.05.2017 14:24 19,2 C 18,9 C 65 % 1011,7 hPa 0,0 l/m 9,0 km/h (2 Bft) SW 229 0 min 0,000 mm 2,0 UV-I 289 W/m 12,5 C 18,1 C 14,5 km/h (3 Bft) 100,00 %
13.05.2017 14:26 19,2 C 18,9 C 66 % 1011,7 hPa 0,0 l/m 6,5 km/h (2 Bft) W-SW 254 0 min 0,000 mm 3,2 UV-I 383 W/m 12,7 C 19,2 C 8,0 km/h (2 Bft) 97,44 %
13.05.2017 14:28 19,2 C 18,9 C 66 % 1011,7 hPa 0,0 l/m 12,4 km/h (3 Bft) W-SW 257 0 min 0,000 mm 2,5 UV-I 347 W/m 12,7 C 17,0 C 19,3 km/h (3 Bft) 98,11 %
13.05.2017 14:30 19,1 C 18,9 C 67 % 1011,7 hPa 0,0 l/m 11,0 km/h (2 Bft) W-SW 245 0 min 0,000 mm 2,4 UV-I 327 W/m 12,8 C 17,3 C 14,5 km/h (3 Bft) 100,00 %
13.05.2017 14:32 19,1 C 18,9 C 66 % 1011,7 hPa 0,0 l/m 9,9 km/h (2 Bft) SW 236 0 min 0,000 mm 3,0 UV-I 329 W/m 12,6 C 17,7 C 16,1 km/h (3 Bft) 94,74 %
13.05.2017 14:34 19,2 C 18,9 C 67 % 1011,7 hPa 0,0 l/m 8,3 km/h (2 Bft) SW 223 0 min 0,000 mm 2,4 UV-I 290 W/m 12,9 C 18,4 C 14,5 km/h (3 Bft) 98,11 %
13.05.2017 14:36 19,2 C 18,9 C 68 % 1011,7 hPa 0,0 l/m 13,8 km/h (3 Bft) W 259 2 min 0,000 mm 3,8 UV-I 545 W/m 13,1 C 16,6 C 29,0 km/h (5 Bft) 100,00 %
13.05.2017 14:38 19,4 C 18,9 C 65 % 1011,8 hPa 0,0 l/m 17,0 km/h (3 Bft) W-SW 253 2 min 0,000 mm 4,2 UV-I 842 W/m 12,6 C 16,1 C 24,1 km/h (4 Bft) 100,00 %
13.05.2017 14:40 19,6 C 18,9 C 65 % 1011,7 hPa 0,0 l/m 17,7 km/h (3 Bft) W 264 2 min 0,000 mm 4,3 UV-I 827 W/m 12,8 C 16,1 C 25,7 km/h (4 Bft) 100,00 %
13.05.2017 14:42 19,7 C 18,9 C 65 % 1011,8 hPa 0,0 l/m 18,3 km/h (3 Bft) W-SW 252 2 min 0,000 mm 4,3 UV-I 814 W/m 12,9 C 16,2 C 27,4 km/h (4 Bft) 98,00 %
13.05.2017 14:44 19,8 C 18,9 C 64 % 1011,8 hPa 0,0 l/m 18,5 km/h (3 Bft) W-SW 248 2 min 0,000 mm 4,4 UV-I 814 W/m 12,8 C 16,2 C 27,4 km/h (4 Bft) 96,43 %
13.05.2017 14:46 19,8 C 18,9 C 65 % 1011,8 hPa 0,0 l/m 11,8 km/h (2 Bft) W-SW 257 2 min 0,000 mm 4,3 UV-I 801 W/m 13,0 C 17,9 C 17,7 km/h (3 Bft) 100,00 %
13.05.2017 14:48 20,0 C 18,9 C 66 % 1011,9 hPa 0,0 l/m 13,7 km/h (3 Bft) W-SW 242 2 min 0,000 mm 4,4 UV-I 817 W/m 13,4 C 17,6 C 19,3 km/h (3 Bft) 100,00 %
13.05.2017 14:50 20,1 C 18,9 C 64 % 1011,8 hPa 0,0 l/m 15,7 km/h (3 Bft) S-SW 196 2 min 0,000 mm 4,4 UV-I 832 W/m 13,1 C 17,2 C 22,5 km/h (4 Bft) 100,00 %
13.05.2017 14:52 20,1 C 18,9 C 64 % 1011,8 hPa 0,0 l/m 14,8 km/h (3 Bft) SW 229 2 min 0,000 mm 4,4 UV-I 811 W/m 13,1 C 17,4 C 22,5 km/h (4 Bft) 98,00 %
13.05.2017 14:54 20,1 C 18,9 C 63 % 1011,8 hPa 0,0 l/m 9,9 km/h (2 Bft) W-SW 246 2 min 0,000 mm 4,3 UV-I 806 W/m 12,8 C 18,8 C 19,3 km/h (3 Bft) 98,11 %
13.05.2017 14:56 20,2 C 18,9 C 64 % 1011,8 hPa 0,0 l/m 12,5 km/h (3 Bft) SW 225 2 min 0,000 mm 4,3 UV-I 817 W/m 13,2 C 18,1 C 19,3 km/h (3 Bft) 100,00 %
13.05.2017 14:58 20,2 C 18,9 C 60 % 1011,8 hPa 0,0 l/m 15,9 km/h (3 Bft) W-SW 241 2 min 0,000 mm 4,3 UV-I 832 W/m 12,2 C 17,3 C 25,7 km/h (4 Bft) 100,00 %
13.05.2017 15:00 20,2 C 18,9 C 60 % 1011,8 hPa 0,0 l/m 15,8 km/h (3 Bft) W-SW 247 2 min 0,431 mm 4,3 UV-I 834 W/m 12,2 C 17,3 C 20,9 km/h (4 Bft) 97,56 %
13.05.2017 15:02 20,2 C 18,9 C 60 % 1011,7 hPa 0,0 l/m 18,8 km/h (3 Bft) W 281 2 min 0,000 mm 4,2 UV-I 832 W/m 12,2 C 16,7 C 25,7 km/h (4 Bft) 100,00 %
13.05.2017 15:04 20,2 C 18,9 C 60 % 1011,7 hPa 0,0 l/m 16,0 km/h (3 Bft) SW 217 2 min 0,000 mm 4,1 UV-I 831 W/m 12,2 C 17,3 C 27,4 km/h (4 Bft) 100,00 %
13.05.2017 15:06 20,2 C 18,9 C 59 % 1011,8 hPa 0,0 l/m 13,4 km/h (3 Bft) W-NW 297 2 min 0,000 mm 4,1 UV-I 815 W/m 11,9 C 17,9 C 22,5 km/h (4 Bft) 100,00 %
13.05.2017 15:08 20,3 C 18,9 C 59 % 1011,6 hPa 0,0 l/m 14,2 km/h (3 Bft) W-SW 244 2 min 0,000 mm 4,1 UV-I 804 W/m 12,0 C 17,8 C 22,5 km/h (4 Bft) 95,74 %
13.05.2017 15:10 20,3 C 18,9 C 61 % 1011,7 hPa 0,0 l/m 11,1 km/h (2 Bft) SW 234 2 min 0,000 mm 3,6 UV-I 803 W/m 12,5 C 18,6 C 16,1 km/h (3 Bft) 100,00 %
13.05.2017 15:12 20,3 C 18,9 C 61 % 1011,7 hPa 0,0 l/m 10,9 km/h (2 Bft) W-SW 237 2 min 0,000 mm 3,8 UV-I 764 W/m 12,5 C 18,7 C 17,7 km/h (3 Bft) 100,00 %
13.05.2017 15:14 20,4 C 18,9 C 61 % 1011,7 hPa 0,0 l/m 13,0 km/h (3 Bft) W-SW 248 2 min 0,000 mm 3,3 UV-I 699 W/m 12,6 C 18,2 C 20,9 km/h (4 Bft) 100,00 %
13.05.2017 15:16 20,5 C 18,9 C 63 % 1011,7 hPa 0,0 l/m 9,4 km/h (2 Bft) W 261 2 min 0,000 mm 3,8 UV-I 712 W/m 13,2 C 19,4 C 19,3 km/h (3 Bft) 100,00 %
13.05.2017 15:18 20,6 C 18,9 C 61 % 1011,6 hPa 0,0 l/m 11,8 km/h (2 Bft) SW 219 2 min 0,000 mm 3,7 UV-I 782 W/m 12,8 C 18,8 C 22,5 km/h (4 Bft) 100,00 %
13.05.2017 15:20 20,5 C 18,9 C 61 % 1011,7 hPa 0,0 l/m 9,1 km/h (2 Bft) SW 235 2 min 0,000 mm 3,1 UV-I 635 W/m 12,7 C 19,5 C 14,5 km/h (3 Bft) 100,00 %
13.05.2017 15:22 20,5 C 18,9 C 62 % 1011,6 hPa 0,0 l/m 7,7 km/h (2 Bft) W-NW 300 2 min 0,000 mm 3,8 UV-I 779 W/m 13,0 C 20,0 C 14,5 km/h (3 Bft) 98,00 %
13.05.2017 15:24 20,6 C 18,9 C 61 % 1011,6 hPa 0,0 l/m 10,7 km/h (2 Bft) W-SW 254 2 min 0,000 mm 3,8 UV-I 849 W/m 12,8 C 19,1 C 25,7 km/h (4 Bft) 100,00 %
13.05.2017 15:26 20,7 C 18,9 C 60 % 1011,6 hPa 0,0 l/m 14,3 km/h (3 Bft) W-SW 257 2 min 0,000 mm 3,6 UV-I 879 W/m 12,7 C 18,3 C 24,1 km/h (4 Bft) 100,00 %
13.05.2017 15:28 20,6 C 18,9 C 59 % 1011,5 hPa 0,0 l/m 11,5 km/h (2 Bft) W-SW 254 2 min 0,000 mm 2,7 UV-I 879 W/m 12,3 C 18,9 C 17,7 km/h (3 Bft) 95,12 %
13.05.2017 15:30 20,5 C 18,9 C 62 % 1011,5 hPa 0,0 l/m 11,7 km/h (2 Bft) W 263 0 min 0,000 mm 2,4 UV-I 332 W/m 13,0 C 18,7 C 16,1 km/h (3 Bft) 94,00 %
13.05.2017 15:32 20,3 C 18,9 C 61 % 1011,5 hPa 0,0 l/m 12,3 km/h (3 Bft) W 280 0 min 0,000 mm 2,1 UV-I 218 W/m 12,5 C 18,3 C 17,7 km/h (3 Bft) 95,12 %
13.05.2017 15:34 20,2 C 18,9 C 61 % 1011,5 hPa 0,0 l/m 7,4 km/h (2 Bft) SW 236 2 min 0,000 mm 3,0 UV-I 513 W/m 12,4 C 19,8 C 17,7 km/h (3 Bft) 95,74 %
13.05.2017 15:36 20,2 C 18,9 C 61 % 1011,5 hPa 0,0 l/m 17,3 km/h (3 Bft) W-SW 257 2 min 0,000 mm 3,4 UV-I 758 W/m 12,4 C 17,0 C 29,0 km/h (5 Bft) 98,11 %
13.05.2017 15:38 20,3 C 18,9 C 59 % 1011,4 hPa 0,0 l/m 9,5 km/h (2 Bft) W 267 2 min 0,000 mm 3,4 UV-I 736 W/m 12,0 C 19,1 C 14,5 km/h (3 Bft) 97,44 %
13.05.2017 15:40 20,3 C 18,9 C 59 % 1011,5 hPa 0,0 l/m 11,9 km/h (2 Bft) W-SW 257 2 min 0,000 mm 3,4 UV-I 728 W/m 12,0 C 18,4 C 17,7 km/h (3 Bft) 95,45 %
13.05.2017 15:42 20,4 C 18,9 C 59 % 1011,3 hPa 0,0 l/m 14,1 km/h (3 Bft) W-SW 248 2 min 0,000 mm 3,4 UV-I 724 W/m 12,1 C 17,9 C 20,9 km/h (4 Bft) 98,11 %
13.05.2017 15:44 20,6 C 18,9 C 61 % 1011,4 hPa 0,0 l/m 9,5 km/h (2 Bft) S-SW 213 2 min 0,000 mm 3,3 UV-I 717 W/m 12,8 C 19,5 C 17,7 km/h (3 Bft) 94,74 %
13.05.2017 15:46 20,8 C 18,9 C 61 % 1011,3 hPa 0,0 l/m 9,9 km/h (2 Bft) SW 229 2 min 0,000 mm 3,3 UV-I 720 W/m 13,0 C 19,6 C 16,1 km/h (3 Bft) 97,73 %
13.05.2017 15:48 20,9 C 18,9 C 60 % 1011,3 hPa 0,0 l/m 12,2 km/h (2 Bft) SW 215 2 min 0,000 mm 3,2 UV-I 701 W/m 12,8 C 19,0 C 22,5 km/h (4 Bft) 96,77 %
13.05.2017 15:50 20,9 C 18,9 C 59 % 1011,4 hPa 0,0 l/m 8,4 km/h (2 Bft) W-SW 238 2 min 0,000 mm 3,2 UV-I 722 W/m 12,6 C 20,2 C 16,1 km/h (3 Bft) 96,00 %
13.05.2017 15:52 20,9 C 18,9 C 60 % 1011,4 hPa 0,0 l/m 14,4 km/h (3 Bft) W 267 2 min 0,000 mm 3,2 UV-I 718 W/m 12,8 C 18,5 C 19,3 km/h (3 Bft) 97,87 %
13.05.2017 15:54 20,9 C 18,9 C 60 % 1011,3 hPa 0,0 l/m 7,9 km/h (2 Bft) W-NW 285 2 min 0,000 mm 3,2 UV-I 717 W/m 12,8 C 20,3 C 12,9 km/h (3 Bft) 95,12 %
13.05.2017 15:56 21,0 C 18,9 C 57 % 1011,5 hPa 0,0 l/m 12,7 km/h (3 Bft) S-SW 202 2 min 0,000 mm 3,1 UV-I 721 W/m 12,1 C 19,0 C 19,3 km/h (3 Bft) 95,74 %
13.05.2017 15:58 21,1 C 18,9 C 57 % 1011,3 hPa 0,0 l/m 9,2 km/h (2 Bft) W 259 2 min 0,000 mm 3,1 UV-I 731 W/m 12,2 C 20,1 C 16,1 km/h (3 Bft) 92,45 %
13.05.2017 16:00 20,9 C 18,9 C 55 % 1011,3 hPa 0,0 l/m 12,1 km/h (2 Bft) SW 235 2 min 0,458 mm 2,6 UV-I 745 W/m 11,5 C 19,0 C 17,7 km/h (3 Bft) 100,00 %
13.05.2017 16:02 20,8 C 18,9 C 56 % 1011,3 hPa 0,0 l/m 7,7 km/h (2 Bft) N-NW 337 2 min 0,000 mm 2,5 UV-I 745 W/m 11,7 C 20,3 C 14,5 km/h (3 Bft) 100,00 %
13.05.2017 16:04 20,7 C 18,9 C 57 % 1011,3 hPa 0,0 l/m 5,5 km/h (1 Bft) SW 230 2 min 0,000 mm 2,6 UV-I 745 W/m 11,9 C 20,7 C 14,5 km/h (3 Bft) 100,00 %
13.05.2017 16:06 20,9 C 18,9 C 58 % 1011,3 hPa 0,0 l/m 12,8 km/h (3 Bft) SW 215 2 min 0,000 mm 2,9 UV-I 713 W/m 12,3 C 18,9 C 19,3 km/h (3 Bft) 100,00 %
13.05.2017 16:08 21,1 C 18,9 C 56 % 1011,3 hPa 0,0 l/m 13,8 km/h (3 Bft) SW 231 2 min 0,000 mm 2,9 UV-I 717 W/m 12,0 C 18,9 C 22,5 km/h (4 Bft) 100,00 %
13.05.2017 16:10 21,3 C 18,9 C 57 % 1011,4 hPa 0,0 l/m 12,3 km/h (3 Bft) W-SW 254 2 min 0,000 mm 2,5 UV-I 731 W/m 12,4 C 19,5 C 17,7 km/h (3 Bft) 100,00 %
13.05.2017 16:12 21,2 C 18,9 C 55 % 1011,4 hPa 0,0 l/m 8,5 km/h (2 Bft) SW 236 0 min 0,000 mm 1,8 UV-I 187 W/m 11,8 C 20,4 C 16,1 km/h (3 Bft) 100,00 %
13.05.2017 16:14 20,9 C 18,9 C 57 % 1011,5 hPa 0,0 l/m 11,0 km/h (2 Bft) W-SW 242 2 min 0,000 mm 2,6 UV-I 368 W/m 12,1 C 19,3 C 20,9 km/h (4 Bft) 98,11 %
13.05.2017 16:16 20,9 C 18,9 C 55 % 1011,5 hPa 0,0 l/m 8,3 km/h (2 Bft) W 273 2 min 0,000 mm 2,4 UV-I 690 W/m 11,5 C 20,2 C 14,5 km/h (3 Bft) 100,00 %
13.05.2017 16:18 20,9 C 18,9 C 57 % 1011,5 hPa 0,0 l/m 9,0 km/h (2 Bft) W-SW 254 2 min 0,000 mm 2,2 UV-I 691 W/m 12,1 C 20,0 C 16,1 km/h (3 Bft) 100,00 %
13.05.2017 16:20 20,9 C 18,9 C 55 % 1011,5 hPa 0,0 l/m 7,9 km/h (2 Bft) W 263 2 min 0,000 mm 2,6 UV-I 683 W/m 11,5 C 20,3 C 12,9 km/h (3 Bft) 98,00 %
13.05.2017 16:22 21,0 C 18,9 C 59 % 1011,5 hPa 0,0 l/m 5,3 km/h (1 Bft) W-SW 242 2 min 0,000 mm 2,6 UV-I 665 W/m 12,7 C 21,0 C 12,9 km/h (3 Bft) 98,00 %
13.05.2017 16:24 21,2 C 18,9 C 57 % 1011,5 hPa 0,0 l/m 7,5 km/h (2 Bft) SW 222 2 min 0,000 mm 2,5 UV-I 652 W/m 12,3 C 20,8 C 16,1 km/h (3 Bft) 96,15 %
13.05.2017 16:26 21,3 C 18,9 C 57 % 1011,5 hPa 0,0 l/m 7,0 km/h (2 Bft) W 281 2 min 0,000 mm 2,5 UV-I 643 W/m 12,4 C 21,1 C 16,1 km/h (3 Bft) 97,62 %
13.05.2017 16:28 21,4 C 18,9 C 57 % 1011,5 hPa 0,0 l/m 7,0 km/h (2 Bft) W 263 2 min 0,000 mm 2,4 UV-I 624 W/m 12,5 C 21,2 C 12,9 km/h (3 Bft) 93,18 %
13.05.2017 16:30 21,3 C 18,9 C 55 % 1011,6 hPa 0,0 l/m 5,5 km/h (1 Bft) W-SW 240 2 min 0,000 mm 2,3 UV-I 597 W/m 11,9 C 21,3 C 12,9 km/h (3 Bft) 98,00 %
13.05.2017 16:32 21,4 C 18,9 C 55 % 1011,7 hPa 0,0 l/m 6,7 km/h (2 Bft) W 274 2 min 0,000 mm 2,2 UV-I 576 W/m 12,0 C 21,3 C 14,5 km/h (3 Bft) 97,87 %
13.05.2017 16:34 21,3 C 19,4 C 55 % 1011,6 hPa 0,0 l/m 2,9 km/h (1 Bft) S-SW 200 2 min 0,000 mm 2,2 UV-I 588 W/m 11,9 C 21,3 C 9,7 km/h (2 Bft) 95,74 %
13.05.2017 16:36 21,1 C 19,4 C 57 % 1011,6 hPa 0,0 l/m 2,0 km/h (1 Bft) S-SW 204 2 min 0,000 mm 2,2 UV-I 603 W/m 12,2 C 21,1 C 8,0 km/h (2 Bft) 96,00 %
13.05.2017 16:38 21,0 C 19,4 C 57 % 1011,6 hPa 0,0 l/m 5,9 km/h (2 Bft) SW 214 2 min 0,000 mm 2,1 UV-I 576 W/m 12,1 C 21,0 C 12,9 km/h (3 Bft) 97,73 %
13.05.2017 16:40 21,1 C 19,4 C 57 % 1011,6 hPa 0,0 l/m 5,2 km/h (1 Bft) S-SW 200 2 min 0,000 mm 2,0 UV-I 560 W/m 12,2 C 21,1 C 9,7 km/h (2 Bft) 97,37 %
13.05.2017 16:42 21,3 C 19,4 C 59 % 1011,7 hPa 0,0 l/m 7,9 km/h (2 Bft) S-SO 151 2 min 0,000 mm 1,9 UV-I 549 W/m 13,0 C 20,8 C 14,5 km/h (3 Bft) 98,18 %
13.05.2017 16:44 21,2 C 19,4 C 56 % 1011,7 hPa 0,0 l/m 8,4 km/h (2 Bft) SW 225 2 min 0,000 mm 1,5 UV-I 482 W/m 12,1 C 20,5 C 12,9 km/h (3 Bft) 100,00 %
13.05.2017 16:46 21,2 C 19,4 C 56 % 1011,6 hPa 0,0 l/m 10,7 km/h (2 Bft) W-SW 254 2 min 0,000 mm 1,6 UV-I 485 W/m 12,1 C 19,8 C 14,5 km/h (3 Bft) 94,83 %
13.05.2017 16:48 21,2 C 19,4 C 57 % 1011,6 hPa 0,0 l/m 9,5 km/h (2 Bft) W 260 2 min 0,000 mm 1,8 UV-I 510 W/m 12,3 C 20,1 C 14,5 km/h (3 Bft) 96,23 %
13.05.2017 16:50 21,3 C 19,4 C 55 % 1011,6 hPa 0,0 l/m 7,2 km/h (2 Bft) W 267 2 min 0,000 mm 1,8 UV-I 514 W/m 11,9 C 21,0 C 12,9 km/h (3 Bft) 95,12 %
13.05.2017 16:52 21,2 C 19,4 C 57 % 1011,6 hPa 0,0 l/m 8,7 km/h (2 Bft) W 279 2 min 0,000 mm 1,5 UV-I 449 W/m 12,3 C 20,4 C 12,9 km/h (3 Bft) 97,73 %
13.05.2017 16:54 21,1 C 19,4 C 57 % 1011,7 hPa 0,0 l/m 10,8 km/h (2 Bft) W-SW 258 0 min 0,000 mm 1,3 UV-I 221 W/m 12,2 C 19,6 C 16,1 km/h (3 Bft) 98,21 %
13.05.2017 16:56 21,0 C 19,4 C 57 % 1011,7 hPa 0,0 l/m 6,9 km/h (2 Bft) W-SW 240 0 min 0,000 mm 1,3 UV-I 235 W/m 12,1 C 20,8 C 12,9 km/h (3 Bft) 92,59 %
13.05.2017 16:58 20,8 C 19,4 C 58 % 1011,7 hPa 0,0 l/m 7,1 km/h (2 Bft) W-SW 237 0 min 0,000 mm 1,4 UV-I 220 W/m 12,2 C 20,5 C 14,5 km/h (3 Bft) 96,43 %
13.05.2017 17:00 20,8 C 19,4 C 58 % 1011,8 hPa 0,0 l/m 6,6 km/h (2 Bft) W-NW 294 2 min 0,355 mm 1,4 UV-I 352 W/m 12,2 C 20,7 C 9,7 km/h (2 Bft) 96,72 %
13.05.2017 17:02 20,8 C 19,4 C 57 % 1011,7 hPa 0,0 l/m 7,3 km/h (2 Bft) S-SW 209 2 min 0,000 mm 1,3 UV-I 301 W/m 12,0 C 20,5 C 11,3 km/h (2 Bft) 94,87 %
13.05.2017 17:04 20,7 C 19,4 C 57 % 1011,8 hPa 0,0 l/m 6,5 km/h (2 Bft) W-SW 251 0 min 0,000 mm 1,2 UV-I 240 W/m 11,9 C 20,7 C 11,3 km/h (2 Bft) 98,11 %
13.05.2017 17:06 20,6 C 19,4 C 58 % 1011,8 hPa 0,0 l/m 4,8 km/h (1 Bft) W-SW 250 0 min 0,000 mm 1,0 UV-I 176 W/m 12,0 C 20,6 C 6,4 km/h (2 Bft) 95,45 %
13.05.2017 17:08 20,5 C 19,4 C 59 % 1011,8 hPa 0,0 l/m 3,2 km/h (1 Bft) W-NW 288 0 min 0,000 mm 0,9 UV-I 152 W/m 12,2 C 20,5 C 6,4 km/h (2 Bft) 98,00 %
13.05.2017 17:10 20,4 C 19,4 C 60 % 1011,8 hPa 0,0 l/m 3,7 km/h (1 Bft) W 281 0 min 0,000 mm 0,8 UV-I 137 W/m 12,4 C 20,4 C 9,7 km/h (2 Bft) 97,73 %
13.05.2017 17:13 20,3 C 19,4 C 61 % 1011,9 hPa 0,0 l/m 4,6 km/h (1 Bft) W-SW 257 0 min 0,000 mm 0,6 UV-I 101 W/m 12,5 C 20,3 C 11,3 km/h (2 Bft) 96,05 %
13.05.2017 17:14 20,2 C 19,4 C 60 % 1011,9 hPa 0,0 l/m 3,4 km/h (1 Bft) W 265 0 min 0,000 mm 0,5 UV-I 82 W/m 12,2 C 20,2 C 4,8 km/h (1 Bft) 100,00 %
13.05.2017 17:16 20,2 C 19,4 C 61 % 1011,9 hPa 0,0 l/m 3,0 km/h (1 Bft) W 265 0 min 0,000 mm 0,0 UV-I 65 W/m 12,4 C 20,2 C 4,8 km/h (1 Bft) 92,00 %
13.05.2017 17:18 20,1 C 19,4 C 63 % 1012,0 hPa 0,0 l/m 3,9 km/h (1 Bft) W 265 0 min 0,000 mm 0,0 UV-I 42 W/m 12,8 C 20,1 C 6,4 km/h (2 Bft) 97,87 %
13.05.2017 17:20 19,8 C 19,4 C 64 % 1012,1 hPa 0,0 l/m 2,9 km/h (1 Bft) W 262 0 min 0,000 mm 0,0 UV-I 27 W/m 12,8 C 19,8 C 11,3 km/h (2 Bft) 97,87 %
13.05.2017 17:22 19,5 C 19,4 C 64 % 1012,2 hPa 0,0 l/m 8,4 km/h (2 Bft) W-NW 287 0 min 0,000 mm 0,0 UV-I 26 W/m 12,5 C 18,7 C 16,1 km/h (3 Bft) 96,00 %
13.05.2017 17:24 19,2 C 19,4 C 60 % 1012,3 hPa 0,0 l/m 10,6 km/h (2 Bft) W-NW 301 0 min 0,000 mm 0,0 UV-I 31 W/m 11,2 C 17,6 C 22,5 km/h (4 Bft) 100,00 %
13.05.2017 17:26 18,7 C 19,4 C 60 % 1012,2 hPa 0,0 l/m 10,3 km/h (2 Bft) W-NW 288 0 min 0,000 mm 0,0 UV-I 41 W/m 10,8 C 17,1 C 19,3 km/h (3 Bft) 93,22 %
13.05.2017 17:28 18,3 C 19,4 C 62 % 1012,2 hPa 0,0 l/m 6,8 km/h (2 Bft) W 259 0 min 0,000 mm 0,0 UV-I 50 W/m 10,9 C 18,1 C 12,9 km/h (3 Bft) 95,12 %
13.05.2017 17:30 18,0 C 19,4 C 64 % 1012,3 hPa 0,0 l/m 8,0 km/h (2 Bft) W-SW 244 0 min 0,000 mm 0,0 UV-I 58 W/m 11,1 C 17,3 C 16,1 km/h (3 Bft) 90,24 %
13.05.2017 17:32 17,8 C 19,4 C 63 % 1012,4 hPa 0,0 l/m 5,9 km/h (2 Bft) W 263 0 min 0,000 mm 0,0 UV-I 62 W/m 10,7 C 17,8 C 11,3 km/h (2 Bft) 96,00 %
13.05.2017 17:35 17,6 C 19,4 C 65 % 1012,6 hPa 0,0 l/m 8,0 km/h (2 Bft) W-SW 247 0 min 0,000 mm 0,0 UV-I 64 W/m 10,9 C 16,8 C 16,1 km/h (3 Bft) 96,49 %
13.05.2017 17:38 17,2 C 19,4 C 67 % 1012,6 hPa 0,0 l/m 10,5 km/h (2 Bft) W-SW 238 0 min 0,000 mm 0,0 UV-I 70 W/m 11,0 C 15,4 C 12,9 km/h (3 Bft) 94,00 %
13.05.2017 17:40 17,1 C 19,4 C 68 % 1012,7 hPa 0,0 l/m 10,6 km/h (2 Bft) SW 224 0 min 0,000 mm 0,0 UV-I 71 W/m 11,1 C 15,2 C 17,7 km/h (3 Bft) 95,74 %
13.05.2017 17:42 17,0 C 19,4 C 69 % 1012,7 hPa 0,0 l/m 13,7 km/h (3 Bft) W-SW 249 0 min 0,000 mm 0,0 UV-I 71 W/m 11,3 C 14,0 C 19,3 km/h (3 Bft) 96,00 %
13.05.2017 17:44 16,9 C 19,4 C 70 % 1012,8 hPa 0,0 l/m 12,5 km/h (3 Bft) W 262 0 min 0,000 mm 0,0 UV-I 69 W/m 11,4 C 14,3 C 19,3 km/h (3 Bft) 97,37 %
13.05.2017 17:46 16,8 C 19,4 C 70 % 1012,8 hPa 0,0 l/m 12,0 km/h (2 Bft) SW 221 0 min 0,000 mm 0,0 UV-I 66 W/m 11,3 C 14,3 C 17,7 km/h (3 Bft) 94,64 %
13.05.2017 17:48 16,8 C 19,4 C 70 % 1012,7 hPa 0,0 l/m 15,0 km/h (3 Bft) SW 223 0 min 0,000 mm 0,0 UV-I 68 W/m 11,3 C 13,4 C 25,7 km/h (4 Bft) 95,12 %
13.05.2017 17:50 16,8 C 19,4 C 70 % 1012,7 hPa 0,0 l/m 13,5 km/h (3 Bft) W-SW 258 0 min 0,000 mm 0,0 UV-I 71 W/m 11,3 C 13,8 C 17,7 km/h (3 Bft) 98,11 %
13.05.2017 17:52 16,8 C 19,4 C 70 % 1012,7 hPa 0,0 l/m 12,2 km/h (2 Bft) W 262 0 min 0,000 mm 0,0 UV-I 74 W/m 11,3 C 14,3 C 17,7 km/h (3 Bft) 97,73 %
13.05.2017 17:54 16,8 C 19,4 C 71 % 1012,6 hPa 0,0 l/m 9,4 km/h (2 Bft) SW 218 0 min 0,000 mm 0,0 UV-I 70 W/m 11,5 C 15,4 C 16,1 km/h (3 Bft) 98,00 %
13.05.2017 17:56 16,8 C 19,4 C 71 % 1012,6 hPa 0,0 l/m 10,0 km/h (2 Bft) SW 236 0 min 0,000 mm 0,0 UV-I 64 W/m 11,5 C 15,1 C 17,7 km/h (3 Bft) 97,37 %
13.05.2017 17:58 16,8 C 19,4 C 72 % 1012,5 hPa 0,0 l/m 8,1 km/h (2 Bft) SW 234 0 min 0,000 mm 0,0 UV-I 57 W/m 11,7 C 15,9 C 12,9 km/h (3 Bft) 95,74 %
13.05.2017 18:00 16,8 C 19,4 C 72 % 1012,5 hPa 0,0 l/m 7,2 km/h (2 Bft) S 190 0 min 0,102 mm 0,0 UV-I 50 W/m 11,7 C 16,4 C 14,5 km/h (3 Bft) 94,34 %
13.05.2017 18:02 16,7 C 19,4 C 72 % 1012,5 hPa 0,0 l/m 6,0 km/h (2 Bft) SW 223 0 min 0,000 mm 0,0 UV-I 46 W/m 11,6 C 16,7 C 9,7 km/h (2 Bft) 97,44 %
13.05.2017 18:04 16,7 C 19,4 C 73 % 1012,5 hPa 0,0 l/m 7,1 km/h (2 Bft) SW 219 0 min 0,000 mm 0,0 UV-I 46 W/m 11,8 C 16,3 C 11,3 km/h (2 Bft) 95,12 %
13.05.2017 18:06 16,7 C 19,4 C 74 % 1012,5 hPa 0,0 l/m 6,4 km/h (2 Bft) SW 214 0 min 0,000 mm 0,0 UV-I 48 W/m 12,0 C 16,7 C 9,7 km/h (2 Bft) 98,39 %
13.05.2017 18:08 16,6 C 19,4 C 73 % 1012,5 hPa 0,0 l/m 6,2 km/h (2 Bft) SW 225 0 min 0,000 mm 0,0 UV-I 55 W/m 11,7 C 16,6 C 11,3 km/h (2 Bft) 97,56 %
13.05.2017 18:10 16,6 C 19,4 C 72 % 1012,4 hPa 0,0 l/m 5,4 km/h (1 Bft) S-SW 213 0 min 0,000 mm 0,0 UV-I 65 W/m 11,5 C 16,6 C 14,5 km/h (3 Bft) 97,87 %
13.05.2017 18:12 16,5 C 19,4 C 71 % 1012,4 hPa 0,0 l/m 9,3 km/h (2 Bft) S-SW 206 0 min 0,000 mm 0,0 UV-I 80 W/m 11,2 C 15,1 C 16,1 km/h (3 Bft) 97,73 %
13.05.2017 18:14 16,5 C 19,4 C 72 % 1012,3 hPa 0,0 l/m 7,3 km/h (2 Bft) S 182 0 min 0,000 mm 0,0 UV-I 135 W/m 11,4 C 16,0 C 14,5 km/h (3 Bft) 95,74 %
13.05.2017 18:16 16,5 C 19,4 C 72 % 1012,3 hPa 0,0 l/m 3,9 km/h (1 Bft) S-SW 193 2 min 0,000 mm 0,0 UV-I 205 W/m 11,4 C 16,5 C 8,0 km/h (2 Bft) 98,11 %
13.05.2017 18:18 16,6 C 19,4 C 73 % 1012,3 hPa 0,0 l/m 4,3 km/h (1 Bft) S-SW 193 2 min 0,000 mm 0,0 UV-I 257 W/m 11,7 C 16,6 C 6,4 km/h (2 Bft) 100,00 %
13.05.2017 18:20 16,7 C 19,4 C 73 % 1012,3 hPa 0,0 l/m 4,3 km/h (1 Bft) S-SW 207 2 min 0,000 mm 0,0 UV-I 296 W/m 11,8 C 16,7 C 6,4 km/h (2 Bft) 100,00 %
13.05.2017 18:22 16,8 C 19,4 C 71 % 1012,4 hPa 0,0 l/m 6,4 km/h (2 Bft) S 184 2 min 0,000 mm 0,0 UV-I 306 W/m 11,5 C 16,8 C 9,7 km/h (2 Bft) 95,12 %
13.05.2017 18:24 16,9 C 19,4 C 71 % 1012,4 hPa 0,0 l/m 5,8 km/h (2 Bft) SW 214 2 min 0,000 mm 0,0 UV-I 327 W/m 11,6 C 16,9 C 9,7 km/h (2 Bft) 97,73 %
13.05.2017 18:26 17,1 C 19,4 C 69 % 1012,4 hPa 0,0 l/m 7,9 km/h (2 Bft) S-SW 213 2 min 0,000 mm 0,0 UV-I 334 W/m 11,4 C 16,4 C 11,3 km/h (2 Bft) 100,00 %
13.05.2017 18:28 17,2 C 19,4 C 68 % 1012,3 hPa 0,0 l/m 8,0 km/h (2 Bft) SW 223 2 min 0,000 mm 0,0 UV-I 355 W/m 11,2 C 16,4 C 11,3 km/h (2 Bft) 100,00 %
13.05.2017 18:30 17,3 C 19,4 C 68 % 1012,4 hPa 0,0 l/m 6,5 km/h (2 Bft) W-SW 248 2 min 0,000 mm 0,0 UV-I 351 W/m 11,3 C 17,3 C 9,7 km/h (2 Bft) 97,87 %
13.05.2017 18:32 17,5 C 19,4 C 68 % 1012,4 hPa 0,0 l/m 6,4 km/h (2 Bft) SW 216 2 min 0,000 mm 0,0 UV-I 364 W/m 11,5 C 17,5 C 11,3 km/h (2 Bft) 100,00 %
13.05.2017 18:34 17,6 C 19,4 C 68 % 1012,4 hPa 0,0 l/m 7,3 km/h (2 Bft) SW 236 2 min 0,000 mm 0,0 UV-I 369 W/m 11,6 C 17,2 C 9,7 km/h (2 Bft) 100,00 %
13.05.2017 18:36 17,6 C 19,4 C 68 % 1012,5 hPa 0,0 l/m 7,1 km/h (2 Bft) W-SW 238 2 min 0,000 mm 0,0 UV-I 355 W/m 11,6 C 17,3 C 9,7 km/h (2 Bft) 100,00 %
13.05.2017 18:38 17,6 C 19,4 C 67 % 1012,5 hPa 0,0 l/m 6,2 km/h (2 Bft) SW 234 2 min 0,000 mm 0,0 UV-I 377 W/m 11,4 C 17,6 C 9,7 km/h (2 Bft) 100,00 %
13.05.2017 18:40 17,7 C 19,4 C 67 % 1012,5 hPa 0,0 l/m 5,7 km/h (1 Bft) SW 232 2 min 0,000 mm 0,0 UV-I 377 W/m 11,5 C 17,7 C 8,0 km/h (2 Bft) 96,00 %
13.05.2017 18:42 17,8 C 19,4 C 68 % 1012,6 hPa 0,0 l/m 5,1 km/h (1 Bft) SW 232 2 min 0,000 mm 0,0 UV-I 390 W/m 11,8 C 17,8 C 6,4 km/h (2 Bft) 97,87 %
13.05.2017 18:44 17,8 C 19,4 C 67 % 1012,6 hPa 0,0 l/m 4,5 km/h (1 Bft) SW 232 2 min 0,000 mm 0,0 UV-I 297 W/m 11,6 C 17,8 C 6,4 km/h (2 Bft) 98,00 %
13.05.2017 18:46 17,8 C 19,4 C 68 % 1012,6 hPa 0,0 l/m 3,4 km/h (1 Bft) SW 229 2 min 0,000 mm 0,0 UV-I 324 W/m 11,8 C 17,8 C 6,4 km/h (2 Bft) 100,00 %
13.05.2017 18:48 17,9 C 19,4 C 69 % 1012,7 hPa 0,0 l/m 5,6 km/h (1 Bft) SW 235 2 min 0,000 mm 0,0 UV-I 280 W/m 12,1 C 17,9 C 8,0 km/h (2 Bft) 100,00 %
13.05.2017 18:50 17,9 C 19,4 C 68 % 1012,7 hPa 0,0 l/m 4,8 km/h (1 Bft) SW 218 2 min 0,000 mm 0,0 UV-I 216 W/m 11,9 C 17,9 C 6,4 km/h (2 Bft) 97,37 %
13.05.2017 18:52 17,9 C 19,4 C 70 % 1012,7 hPa 0,0 l/m 3,8 km/h (1 Bft) SW 218 2 min 0,000 mm 0,0 UV-I 211 W/m 12,3 C 17,9 C 6,4 km/h (2 Bft) 98,11 %
13.05.2017 18:54 17,9 C 19,4 C 69 % 1012,7 hPa 0,0 l/m 5,4 km/h (1 Bft) SW 232 2 min 0,000 mm 0,0 UV-I 197 W/m 12,1 C 17,9 C 8,0 km/h (2 Bft) 100,00 %
13.05.2017 18:56 17,9 C 19,4 C 69 % 1012,8 hPa 0,0 l/m 5,7 km/h (1 Bft) SW 217 2 min 0,000 mm 0,0 UV-I 178 W/m 12,1 C 17,9 C 9,7 km/h (2 Bft) 98,39 %
13.05.2017 18:58 17,8 C 19,4 C 70 % 1012,8 hPa 0,0 l/m 5,6 km/h (1 Bft) SW 225 2 min 0,000 mm 0,0 UV-I 167 W/m 12,3 C 17,8 C 9,7 km/h (2 Bft) 97,37 %
13.05.2017 19:00 17,8 C 19,4 C 70 % 1012,9 hPa 0,0 l/m 5,8 km/h (2 Bft) W 260 2 min 0,000 mm 0,0 UV-I 159 W/m 12,3 C 17,8 C 11,3 km/h (2 Bft) 100,00 %
13.05.2017 19:02 17,7 C 19,4 C 70 % 1012,9 hPa 0,0 l/m 4,5 km/h (1 Bft) W-SW 240 2 min 0,152 mm 0,0 UV-I 146 W/m 12,2 C 17,7 C 8,0 km/h (2 Bft) 100,00 %
13.05.2017 19:04 17,7 C 19,4 C 70 % 1012,9 hPa 0,0 l/m 4,4 km/h (1 Bft) SW 229 2 min 0,000 mm 0,0 UV-I 138 W/m 12,2 C 17,7 C 6,4 km/h (2 Bft) 100,00 %
13.05.2017 19:06 17,6 C 19,4 C 72 % 1012,9 hPa 0,0 l/m 3,6 km/h (1 Bft) SW 229 2 min 0,000 mm 0,0 UV-I 130 W/m 12,5 C 17,6 C 6,4 km/h (2 Bft) 100,00 %
13.05.2017 19:08 17,5 C 19,4 C 72 % 1012,9 hPa 0,0 l/m 3,4 km/h (1 Bft) S-SW 206 2 min 0,000 mm 0,0 UV-I 124 W/m 12,4 C 17,5 C 6,4 km/h (2 Bft) 100,00 %
13.05.2017 19:10 17,4 C 19,4 C 72 % 1012,9 hPa 0,0 l/m 4,1 km/h (1 Bft) S-SW 200 2 min 0,000 mm 0,0 UV-I 118 W/m 12,3 C 17,4 C 6,4 km/h (2 Bft) 98,00 %
13.05.2017 19:12 17,4 C 19,4 C 72 % 1012,9 hPa 0,0 l/m 3,1 km/h (1 Bft) S-SW 192 2 min 0,000 mm 0,0 UV-I 112 W/m 12,3 C 17,4 C 8,0 km/h (2 Bft) 100,00 %
13.05.2017 19:14 17,4 C 19,4 C 72 % 1012,9 hPa 0,0 l/m 3,6 km/h (1 Bft) S-SW 192 2 min 0,000 mm 0,0 UV-I 110 W/m 12,3 C 17,4 C 6,4 km/h (2 Bft) 100,00 %
13.05.2017 19:16 17,3 C 19,4 C 73 % 1012,9 hPa 0,0 l/m 3,4 km/h (1 Bft) S 185 2 min 0,000 mm 0,0 UV-I 110 W/m 12,4 C 17,3 C 6,4 km/h (2 Bft) 98,00 %
13.05.2017 19:18 17,3 C 19,4 C 73 % 1012,9 hPa 0,0 l/m 1,7 km/h (1 Bft) S 190 2 min 0,000 mm 0,0 UV-I 109 W/m 12,4 C 17,3 C 4,8 km/h (1 Bft) 100,00 %
13.05.2017 19:20 17,2 C 19,4 C 73 % 1012,9 hPa 0,0 l/m 2,7 km/h (1 Bft) S 180 2 min 0,000 mm 0,0 UV-I 113 W/m 12,3 C 17,2 C 4,8 km/h (1 Bft) 97,87 %
13.05.2017 19:22 17,3 C 19,4 C 73 % 1012,9 hPa 0,0 l/m 2,8 km/h (1 Bft) S 180 2 min 0,000 mm 0,0 UV-I 114 W/m 12,4 C 17,3 C 6,4 km/h (2 Bft) 98,00 %
13.05.2017 19:24 17,3 C 19,4 C 73 % 1012,9 hPa 0,0 l/m 2,9 km/h (1 Bft) S 181 2 min 0,000 mm 0,0 UV-I 122 W/m 12,4 C 17,3 C 6,4 km/h (2 Bft) 94,00 %
13.05.2017 19:26 17,4 C 19,4 C 71 % 1012,9 hPa 0,0 l/m 3,2 km/h (1 Bft) S 185 2 min 0,000 mm 0,0 UV-I 179 W/m 12,1 C 17,4 C 4,8 km/h (1 Bft) 95,45 %
13.05.2017 19:28 17,4 C 19,4 C 71 % 1013,0 hPa 0,0 l/m 2,5 km/h (1 Bft) S 185 2 min 0,000 mm 0,0 UV-I 172 W/m 12,1 C 17,4 C 6,4 km/h (2 Bft) 97,87 %
13.05.2017 19:30 17,5 C 19,4 C 71 % 1012,9 hPa 0,0 l/m 5,0 km/h (1 Bft) S-SW 197 2 min 0,000 mm 0,0 UV-I 149 W/m 12,2 C 17,5 C 6,4 km/h (2 Bft) 97,56 %
13.05.2017 19:32 17,6 C 19,4 C 71 % 1012,9 hPa 0,0 l/m 2,0 km/h (1 Bft) S-SW 197 2 min 0,000 mm 0,0 UV-I 127 W/m 12,3 C 17,6 C 6,4 km/h (2 Bft) 94,12 %
13.05.2017 19:34 17,6 C 19,4 C 70 % 1012,9 hPa 0,0 l/m 2,6 km/h (1 Bft) S-SW 192 2 min 0,000 mm 0,0 UV-I 108 W/m 12,1 C 17,6 C 6,4 km/h (2 Bft) 98,18 %
13.05.2017 19:36 17,6 C 19,4 C 70 % 1012,9 hPa 0,0 l/m 4,4 km/h (1 Bft) S-SW 192 2 min 0,000 mm 0,0 UV-I 101 W/m 12,1 C 17,6 C 9,7 km/h (2 Bft) 97,87 %
13.05.2017 19:38 17,6 C 19,4 C 72 % 1012,9 hPa 0,0 l/m 3,2 km/h (1 Bft) S-SW 192 2 min 0,000 mm 0,0 UV-I 82 W/m 12,5 C 17,6 C 6,4 km/h (2 Bft) 97,37 %
13.05.2017 19:40 17,5 C 19,4 C 72 % 1012,9 hPa 0,0 l/m 3,6 km/h (1 Bft) S-SW 192 2 min 0,000 mm 0,0 UV-I 77 W/m 12,4 C 17,5 C 6,4 km/h (2 Bft) 96,00 %
13.05.2017 19:42 17,4 C 19,4 C 72 % 1013,0 hPa 0,0 l/m 3,9 km/h (1 Bft) S 182 2 min 0,000 mm 0,0 UV-I 72 W/m 12,3 C 17,4 C 6,4 km/h (2 Bft) 96,00 %
13.05.2017 19:44 17,4 C 19,4 C 73 % 1013,0 hPa 0,0 l/m 3,1 km/h (1 Bft) S 180 2 min 0,000 mm 0,0 UV-I 67 W/m 12,5 C 17,4 C 6,4 km/h (2 Bft) 97,83 %
13.05.2017 19:46 17,3 C 19,4 C 74 % 1013,0 hPa 0,0 l/m 3,6 km/h (1 Bft) S 190 0 min 0,000 mm 0,0 UV-I 60 W/m 12,6 C 17,3 C 6,4 km/h (2 Bft) 91,49 %
13.05.2017 19:48 17,3 C 19,4 C 75 % 1013,1 hPa 0,0 l/m 4,6 km/h (1 Bft) S 179 0 min 0,000 mm 0,0 UV-I 53 W/m 12,8 C 17,3 C 8,0 km/h (2 Bft) 95,12 %
13.05.2017 19:50 17,2 C 19,4 C 76 % 1013,0 hPa 0,0 l/m 4,0 km/h (1 Bft) S 169 0 min 0,000 mm 0,0 UV-I 46 W/m 12,9 C 17,2 C 8,0 km/h (2 Bft) 91,49 %
13.05.2017 19:52 17,1 C 19,4 C 77 % 1013,0 hPa 0,0 l/m 2,8 km/h (1 Bft) S-SO 167 0 min 0,000 mm 0,0 UV-I 40 W/m 13,0 C 17,1 C 6,4 km/h (2 Bft) 96,00 %
13.05.2017 19:54 17,0 C 19,4 C 77 % 1013,0 hPa 0,0 l/m 3,3 km/h (1 Bft) S-SO 167 0 min 0,000 mm 0,0 UV-I 36 W/m 12,9 C 17,0 C 4,8 km/h (1 Bft) 98,00 %
13.05.2017 19:56 17,0 C 19,4 C 78 % 1013,0 hPa 0,0 l/m 1,7 km/h (1 Bft) S-SO 167 0 min 0,000 mm 0,0 UV-I 34 W/m 13,1 C 17,0 C 4,8 km/h (1 Bft) 94,87 %
13.05.2017 19:58 16,9 C 19,4 C 78 % 1013,0 hPa 0,0 l/m 2,3 km/h (1 Bft) S-SO 167 0 min 0,000 mm 0,0 UV-I 31 W/m 13,0 C 16,9 C 4,8 km/h (1 Bft) 98,08 %
13.05.2017 20:00 16,8 C 19,4 C 78 % 1013,0 hPa 0,0 l/m 2,5 km/h (1 Bft) S-SO 167 0 min 0,000 mm 0,0 UV-I 26 W/m 12,9 C 16,8 C 6,4 km/h (2 Bft) 97,44 %
13.05.2017 20:02 16,8 C 19,4 C 79 % 1013,0 hPa 0,0 l/m 2,6 km/h (1 Bft) S-SO 167 0 min 0,076 mm 0,0 UV-I 29 W/m 13,1 C 16,8 C 6,4 km/h (2 Bft) 98,11 %
13.05.2017 20:04 16,7 C 19,4 C 79 % 1013,0 hPa 0,0 l/m 3,1 km/h (1 Bft) S-SO 167 0 min 0,000 mm 0,0 UV-I 33 W/m 13,0 C 16,7 C 6,4 km/h (2 Bft) 100,00 %
13.05.2017 20:06 16,6 C 19,4 C 79 % 1013,0 hPa 0,0 l/m 2,5 km/h (1 Bft) S-SO 167 2 min 0,000 mm 0,0 UV-I 33 W/m 12,9 C 16,6 C 6,4 km/h (2 Bft) 97,87 %
13.05.2017 20:08 16,6 C 19,4 C 80 % 1013,1 hPa 0,0 l/m 2,3 km/h (1 Bft) S-SO 167 2 min 0,000 mm 0,0 UV-I 29 W/m 13,1 C 16,6 C 4,8 km/h (1 Bft) 97,37 %
13.05.2017 20:10 16,6 C 19,4 C 80 % 1013,1 hPa 0,0 l/m 3,3 km/h (1 Bft) S-SO 167 0 min 0,000 mm 0,0 UV-I 22 W/m 13,1 C 16,6 C 6,4 km/h (2 Bft) 98,11 %
13.05.2017 20:12 16,5 C 19,4 C 79 % 1013,1 hPa 0,0 l/m 3,1 km/h (1 Bft) S-SO 167 0 min 0,000 mm 0,0 UV-I 20 W/m 12,8 C 16,5 C 6,4 km/h (2 Bft) 93,62 %
13.05.2017 20:14 16,5 C 19,4 C 79 % 1013,1 hPa 0,0 l/m 2,0 km/h (1 Bft) S-SO 167 0 min 0,000 mm 0,0 UV-I 18 W/m 12,8 C 16,5 C 4,8 km/h (1 Bft) 100,00 %
13.05.2017 20:16 16,4 C 19,4 C 79 % 1013,1 hPa 0,0 l/m 2,8 km/h (1 Bft) S-SO 167 2 min 0,000 mm 0,0 UV-I 18 W/m 12,7 C 16,4 C 6,4 km/h (2 Bft) 100,00 %
13.05.2017 20:18 16,3 C 19,4 C 79 % 1013,1 hPa 0,0 l/m 3,5 km/h (1 Bft) S-SO 167 2 min 0,000 mm 0,0 UV-I 17 W/m 12,6 C 16,3 C 6,4 km/h (2 Bft) 100,00 %
13.05.2017 20:20 16,3 C 18,9 C 79 % 1013,2 hPa 0,0 l/m 4,5 km/h (1 Bft) S 175 2 min 0,000 mm 0,0 UV-I 14 W/m 12,6 C 16,3 C 8,0 km/h (2 Bft) 91,53 %
13.05.2017 20:22 16,3 C 18,9 C 79 % 1013,2 hPa 0,0 l/m 2,6 km/h (1 Bft) S 175 2 min 0,000 mm 0,0 UV-I 13 W/m 12,6 C 16,3 C 4,8 km/h (1 Bft) 100,00 %
13.05.2017 20:25 16,2 C 18,9 C 79 % 1013,2 hPa 0,0 l/m 3,6 km/h (1 Bft) S 178 0 min 0,000 mm 0,0 UV-I 12 W/m 12,6 C 16,2 C 6,4 km/h (2 Bft) 96,25 %
13.05.2017 20:26 16,2 C 18,9 C 79 % 1013,2 hPa 0,0 l/m 2,7 km/h (1 Bft) S 179 0 min 0,000 mm 0,0 UV-I 11 W/m 12,6 C 16,2 C 4,8 km/h (1 Bft) 100,00 %
13.05.2017 20:28 16,1 C 18,9 C 79 % 1013,2 hPa 0,0 l/m 3,3 km/h (1 Bft) S 179 0 min 0,000 mm 0,0 UV-I 11 W/m 12,5 C 16,1 C 4,8 km/h (1 Bft) 98,00 %
13.05.2017 20:30 16,1 C 19,4 C 79 % 1013,2 hPa 0,0 l/m 2,8 km/h (1 Bft) S 179 0 min 0,000 mm 0,0 UV-I 9 W/m 12,5 C 16,1 C 6,4 km/h (2 Bft) 100,00 %
13.05.2017 20:32 16,0 C 18,9 C 79 % 1013,3 hPa 0,0 l/m 2,0 km/h (1 Bft) S 179 0 min 0,000 mm 0,0 UV-I 8 W/m 12,4 C 16,0 C 4,8 km/h (1 Bft) 100,00 %
13.05.2017 20:34 15,9 C 18,9 C 79 % 1013,2 hPa 0,0 l/m 2,1 km/h (1 Bft) S 179 0 min 0,000 mm 0,0 UV-I 7 W/m 12,3 C 15,9 C 3,2 km/h (1 Bft) 100,00 %
13.05.2017 20:36 15,9 C 18,9 C 79 % 1013,3 hPa 0,0 l/m 3,0 km/h (1 Bft) S 179 0 min 0,000 mm 0,0 UV-I 7 W/m 12,3 C 15,9 C 4,8 km/h (1 Bft) 98,00 %
13.05.2017 20:38 15,9 C 18,9 C 78 % 1013,3 hPa 0,0 l/m 3,0 km/h (1 Bft) S 179 0 min 0,000 mm 0,0 UV-I 6 W/m 12,1 C 15,9 C 4,8 km/h (1 Bft) 100,00 %
13.05.2017 20:40 15,8 C 18,9 C 78 % 1013,3 hPa 0,0 l/m 3,4 km/h (1 Bft) S 179 0 min 0,000 mm 0,0 UV-I 5 W/m 12,0 C 15,8 C 6,4 km/h (2 Bft) 97,22 %
13.05.2017 20:42 15,8 C 18,9 C 78 % 1013,3 hPa 0,0 l/m 4,5 km/h (1 Bft) S 184 0 min 0,000 mm 0,0 UV-I 5 W/m 12,0 C 15,8 C 6,4 km/h (2 Bft) 100,00 %
13.05.2017 20:44 15,7 C 18,9 C 78 % 1013,3 hPa 0,0 l/m 3,6 km/h (1 Bft) S 180 0 min 0,000 mm 0,0 UV-I 5 W/m 11,9 C 15,7 C 6,4 km/h (2 Bft) 100,00 %
13.05.2017 20:46 15,7 C 18,9 C 78 % 1013,3 hPa 0,0 l/m 3,9 km/h (1 Bft) S 182 0 min 0,000 mm 0,0 UV-I 5 W/m 11,9 C 15,7 C 4,8 km/h (1 Bft) 97,14 %
13.05.2017 20:48 15,7 C 18,9 C 79 % 1013,3 hPa 0,0 l/m 3,8 km/h (1 Bft) S-SO 165 0 min 0,000 mm 0,0 UV-I 1 W/m 12,1 C 15,7 C 8,0 km/h (2 Bft) 96,43 %
13.05.2017 20:50 15,6 C 18,9 C 79 % 1013,3 hPa 0,0 l/m 1,8 km/h (1 Bft) S-SO 165 0 min 0,000 mm 0,0 UV-I 0 W/m 12,0 C 15,6 C 3,2 km/h (1 Bft) 97,87 %
13.05.2017 20:52 15,5 C 18,9 C 79 % 1013,2 hPa 0,0 l/m 2,0 km/h (1 Bft) S-SO 165 0 min 0,000 mm 0,0 UV-I 0 W/m 11,9 C 15,5 C 3,2 km/h (1 Bft) 97,87 %
13.05.2017 20:54 15,5 C 18,9 C 79 % 1013,3 hPa 0,0 l/m 1,7 km/h (1 Bft) S-SO 165 0 min 0,000 mm 0,0 UV-I 0 W/m 11,9 C 15,5 C 3,2 km/h (1 Bft) 97,37 %
13.05.2017 20:56 15,5 C 18,9 C 79 % 1013,3 hPa 0,0 l/m 2,2 km/h (1 Bft) S-SO 165 0 min 0,000 mm 0,0 UV-I 0 W/m 11,9 C 15,5 C 3,2 km/h (1 Bft) 96,23 %
13.05.2017 20:58 15,5 C 18,9 C 79 % 1013,4 hPa 0,0 l/m 2,8 km/h (1 Bft) S-SO 165 0 min 0,000 mm 0,0 UV-I 0 W/m 11,9 C 15,5 C 6,4 km/h (2 Bft) 97,73 %
13.05.2017 21:00 15,4 C 18,9 C 80 % 1013,4 hPa 0,0 l/m 2,1 km/h (1 Bft) S-SO 165 0 min 0,000 mm 0,0 UV-I 0 W/m 12,0 C 15,4 C 3,2 km/h (1 Bft) 94,34 %
13.05.2017 21:02 15,4 C 18,9 C 80 % 1013,4 hPa 0,0 l/m 2,7 km/h (1 Bft) S-SO 165 0 min 0,026 mm 0,0 UV-I 0 W/m 12,0 C 15,4 C 3,2 km/h (1 Bft) 93,02 %
13.05.2017 21:04 15,3 C 18,9 C 81 % 1013,4 hPa 0,0 l/m 4,2 km/h (1 Bft) S-SO 165 0 min 0,000 mm 0,0 UV-I 0 W/m 12,1 C 15,3 C 6,4 km/h (2 Bft) 94,00 %
13.05.2017 21:06 15,1 C 18,9 C 81 % 1013,4 hPa 0,0 l/m 1,5 km/h (1 Bft) S-SO 165 0 min 0,000 mm 0,0 UV-I 0 W/m 11,9 C 15,1 C 3,2 km/h (1 Bft) 94,74 %
13.05.2017 21:08 15,0 C 18,9 C 82 % 1013,4 hPa 0,0 l/m 2,5 km/h (1 Bft) S-SO 165 0 min 0,000 mm 0,0 UV-I 0 W/m 12,0 C 15,0 C 3,2 km/h (1 Bft) 96,00 %
13.05.2017 21:10 14,9 C 18,9 C 82 % 1013,4 hPa 0,0 l/m 1,7 km/h (1 Bft) S-SO 165 0 min 0,000 mm 0,0 UV-I 0 W/m 11,9 C 14,9 C 3,2 km/h (1 Bft) 96,00 %
13.05.2017 21:12 14,8 C 18,9 C 83 % 1013,5 hPa 0,0 l/m 2,2 km/h (1 Bft) S-SO 165 0 min 0,000 mm 0,0 UV-I 0 W/m 11,9 C 14,8 C 6,4 km/h (2 Bft) 89,74 %
13.05.2017 21:14 14,8 C 18,9 C 83 % 1013,5 hPa 0,0 l/m 3,3 km/h (1 Bft) S-SO 165 0 min 0,000 mm 0,0 UV-I 0 W/m 11,9 C 14,8 C 8,0 km/h (2 Bft) 98,08 %
13.05.2017 21:16 14,7 C 18,9 C 83 % 1013,5 hPa 0,0 l/m 4,2 km/h (1 Bft) S 183 0 min 0,000 mm 0,0 UV-I 0 W/m 11,8 C 14,7 C 9,7 km/h (2 Bft) 97,92 %
13.05.2017 21:19 14,7 C 18,9 C 83 % 1013,6 hPa 0,0 l/m 2,4 km/h (1 Bft) S 183 0 min 0,000 mm 0,0 UV-I 0 W/m 11,8 C 14,7 C 6,4 km/h (2 Bft) 94,29 %
13.05.2017 21:20 14,7 C 18,9 C 83 % 1013,6 hPa 0,0 l/m 0,9 km/h (0 Bft) S 183 0 min 0,000 mm 0,0 UV-I 0 W/m 11,8 C 14,7 C 3,2 km/h (1 Bft) 100,00 %
13.05.2017 21:22 14,5 C 18,9 C 83 % 1013,6 hPa 0,0 l/m 0,2 km/h (0 Bft) S 183 0 min 0,000 mm 0,0 UV-I 0 W/m 11,6 C 14,5 C 1,6 km/h (1 Bft) 94,64 %
13.05.2017 21:24 14,3 C 18,9 C 84 % 1013,6 hPa 0,0 l/m 0,4 km/h (0 Bft) S 182 0 min 0,000 mm 0,0 UV-I 0 W/m 11,6 C 14,3 C 1,6 km/h (1 Bft) 95,45 %
13.05.2017 21:26 14,3 C 18,9 C 84 % 1013,7 hPa 0,0 l/m 1,2 km/h (1 Bft) S 182 0 min 0,000 mm 0,0 UV-I 0 W/m 11,6 C 14,3 C 3,2 km/h (1 Bft) 94,00 %
13.05.2017 21:28 14,3 C 18,9 C 84 % 1013,7 hPa 0,0 l/m 1,7 km/h (1 Bft) S 182 0 min 0,000 mm 0,0 UV-I 0 W/m 11,6 C 14,3 C 3,2 km/h (1 Bft) 95,12 %
13.05.2017 21:30 14,4 C 18,9 C 83 % 1013,7 hPa 0,0 l/m 1,6 km/h (1 Bft) S 182 0 min 0,000 mm 0,0 UV-I 0 W/m 11,5 C 14,4 C 3,2 km/h (1 Bft) 92,45 %
13.05.2017 21:35 14,5 C 18,9 C 83 % 1013,9 hPa 0,0 l/m 1,6 km/h (1 Bft) S 180 0 min 0,000 mm 0,0 UV-I 0 W/m 11,6 C 14,5 C 3,2 km/h (1 Bft) 92,11 %
13.05.2017 21:38 14,3 C 18,9 C 83 % 1013,8 hPa 0,0 l/m 1,1 km/h (1 Bft) S 182 0 min 0,000 mm 0,0 UV-I 0 W/m 11,5 C 14,3 C 3,2 km/h (1 Bft) 93,05 %
13.05.2017 21:40 14,3 C 18,9 C 83 % 1013,9 hPa 0,0 l/m 1,6 km/h (1 Bft) S 180 0 min 0,000 mm 0,0 UV-I 0 W/m 11,5 C 14,3 C 4,8 km/h (1 Bft) 92,98 %
13.05.2017 21:45 14,3 C 18,9 C 83 % 1013,9 hPa 0,0 l/m 0,0 km/h (0 Bft) S 180 0 min 0,000 mm 0,0 UV-I 0 W/m 11,5 C 14,3 C 3,2 km/h (1 Bft) 93,86 %
13.05.2017 21:50 14,4 C 18,9 C 83 % 1014,0 hPa 0,0 l/m 1,6 km/h (1 Bft) S 180 0 min 0,000 mm 0,0 UV-I 0 W/m 11,5 C 14,4 C 3,2 km/h (1 Bft) 94,74 %
13.05.2017 21:52 14,5 C 18,9 C 83 % 1014,0 hPa 0,0 l/m 2,4 km/h (1 Bft) S 182 0 min 0,000 mm 0,0 UV-I 0 W/m 11,6 C 14,5 C 3,2 km/h (1 Bft) 94,44 %
13.05.2017 21:54 14,6 C 18,9 C 82 % 1014,0 hPa 0,0 l/m 2,5 km/h (1 Bft) S 182 0 min 0,000 mm 0,0 UV-I 0 W/m 11,6 C 14,6 C 4,8 km/h (1 Bft) 97,37 %
13.05.2017 21:56 14,6 C 18,9 C 81 % 1014,0 hPa 0,0 l/m 1,6 km/h (1 Bft) S 182 0 min 0,000 mm 0,0 UV-I 0 W/m 11,4 C 14,6 C 3,2 km/h (1 Bft) 96,00 %
13.05.2017 21:58 14,6 C 18,9 C 81 % 1014,0 hPa 0,0 l/m 1,8 km/h (1 Bft) S 182 0 min 0,000 mm 0,0 UV-I 0 W/m 11,4 C 14,6 C 3,2 km/h (1 Bft) 98,00 %
13.05.2017 22:00 14,6 C 18,9 C 82 % 1014,0 hPa 0,0 l/m 1,1 km/h (1 Bft) S 182 0 min 0,000 mm 0,0 UV-I 0 W/m 11,6 C 14,6 C 3,2 km/h (1 Bft) 90,00 %
13.05.2017 22:03 14,6 C 18,9 C 82 % 1014,0 hPa 0,0 l/m 0,8 km/h (0 Bft) S 182 0 min 0,000 mm 0,0 UV-I 0 W/m 11,6 C 14,6 C 3,2 km/h (1 Bft) 93,85 %
13.05.2017 22:04 14,5 C 18,9 C 82 % 1014,0 hPa 0,0 l/m 1,3 km/h (1 Bft) S 182 0 min 0,000 mm 0,0 UV-I 0 W/m 11,5 C 14,5 C 3,2 km/h (1 Bft) 96,15 %
13.05.2017 22:06 14,4 C 18,9 C 83 % 1014,0 hPa 0,0 l/m 0,7 km/h (0 Bft) S 182 0 min 0,000 mm 0,0 UV-I 0 W/m 11,5 C 14,4 C 3,2 km/h (1 Bft) 95,74 %
13.05.2017 22:08 14,3 C 18,9 C 83 % 1014,0 hPa 0,0 l/m 0,0 km/h (0 Bft) S 182 0 min 0,000 mm 0,0 UV-I 0 W/m 11,5 C 14,3 C 0,0 km/h (0 Bft) 98,00 %
13.05.2017 22:10 14,2 C 18,9 C 84 % 1014,0 hPa 0,0 l/m 0,0 km/h (0 Bft) S 182 0 min 0,000 mm 0,0 UV-I 0 W/m 11,5 C 14,2 C 0,0 km/h (0 Bft) 97,87 %
13.05.2017 22:12 14,0 C 18,9 C 85 % 1014,0 hPa 0,0 l/m 0,2 km/h (0 Bft) S 182 0 min 0,000 mm 0,0 UV-I 0 W/m 11,5 C 14,0 C 1,6 km/h (1 Bft) 97,44 %
13.05.2017 22:14 13,9 C 18,9 C 85 % 1014,0 hPa 0,0 l/m 1,2 km/h (1 Bft) S 182 0 min 0,000 mm 0,0 UV-I 0 W/m 11,4 C 13,9 C 3,2 km/h (1 Bft) 98,21 %
13.05.2017 22:16 13,8 C 18,9 C 85 % 1014,1 hPa 0,0 l/m 1,2 km/h (1 Bft) S 182 0 min 0,000 mm 0,0 UV-I 0 W/m 11,3 C 13,8 C 3,2 km/h (1 Bft) 97,37 %
13.05.2017 22:19 13,9 C 18,9 C 85 % 1014,1 hPa 0,0 l/m 1,8 km/h (1 Bft) S 182 0 min 0,000 mm 0,0 UV-I 0 W/m 11,4 C 13,9 C 3,2 km/h (1 Bft) 97,47 %
13.05.2017 22:20 13,9 C 18,9 C 85 % 1014,1 hPa 0,0 l/m 1,1 km/h (1 Bft) S 182 0 min 0,000 mm 0,0 UV-I 0 W/m 11,4 C 13,9 C 1,6 km/h (1 Bft) 91,67 %
13.05.2017 22:22 14,0 C 18,9 C 85 % 1014,1 hPa 0,0 l/m 1,5 km/h (1 Bft) S 182 0 min 0,000 mm 0,0 UV-I 0 W/m 11,5 C 14,0 C 3,2 km/h (1 Bft) 97,87 %
13.05.2017 22:24 14,1 C 18,9 C 85 % 1014,2 hPa 0,0 l/m 2,2 km/h (1 Bft) S 182 0 min 0,000 mm 0,0 UV-I 0 W/m 11,6 C 14,1 C 4,8 km/h (1 Bft) 97,87 %
13.05.2017 22:26 14,1 C 18,9 C 85 % 1014,2 hPa 0,0 l/m 1,7 km/h (1 Bft) S 182 0 min 0,000 mm 0,0 UV-I 0 W/m 11,6 C 14,1 C 3,2 km/h (1 Bft) 100,00 %
13.05.2017 22:28 14,1 C 18,9 C 85 % 1014,2 hPa 0,0 l/m 1,7 km/h (1 Bft) S 182 0 min 0,000 mm 0,0 UV-I 0 W/m 11,6 C 14,1 C 3,2 km/h (1 Bft) 100,00 %
13.05.2017 22:30 14,0 C 18,9 C 86 % 1014,2 hPa 0,0 l/m 0,9 km/h (0 Bft) S 182 0 min 0,000 mm 0,0 UV-I 0 W/m 11,7 C 14,0 C 3,2 km/h (1 Bft) 97,87 %
13.05.2017 22:32 13,9 C 18,9 C 86 % 1014,3 hPa 0,0 l/m 1,5 km/h (1 Bft) S 182 0 min 0,000 mm 0,0 UV-I 0 W/m 11,6 C 13,9 C 3,2 km/h (1 Bft) 97,87 %
13.05.2017 22:34 13,8 C 18,9 C 86 % 1014,3 hPa 0,0 l/m 2,3 km/h (1 Bft) S 182 0 min 0,000 mm 0,0 UV-I 0 W/m 11,5 C 13,8 C 3,2 km/h (1 Bft) 100,00 %
13.05.2017 22:36 13,8 C 18,9 C 86 % 1014,2 hPa 0,0 l/m 1,2 km/h (1 Bft) S 182 0 min 0,000 mm 0,0 UV-I 0 W/m 11,5 C 13,8 C 1,6 km/h (1 Bft) 97,30 %
13.05.2017 22:38 13,7 C 18,9 C 86 % 1014,3 hPa 0,0 l/m 1,9 km/h (1 Bft) S 182 0 min 0,000 mm 0,0 UV-I 0 W/m 11,4 C 13,7 C 3,2 km/h (1 Bft) 97,87 %
13.05.2017 22:40 13,7 C 18,9 C 87 % 1014,3 hPa 0,0 l/m 1,9 km/h (1 Bft) S 182 0 min 0,000 mm 0,0 UV-I 0 W/m 11,6 C 13,7 C 3,2 km/h (1 Bft) 95,74 %
13.05.2017 22:42 13,6 C 18,9 C 87 % 1014,3 hPa 0,0 l/m 2,4 km/h (1 Bft) S 182 0 min 0,000 mm 0,0 UV-I 0 W/m 11,5 C 13,6 C 3,2 km/h (1 Bft) 100,00 %
13.05.2017 22:44 13,4 C 18,9 C 87 % 1014,3 hPa 0,0 l/m 3,1 km/h (1 Bft) S 182 0 min 0,000 mm 0,0 UV-I 0 W/m 11,3 C 13,4 C 4,8 km/h (1 Bft) 100,00 %
13.05.2017 22:46 13,3 C 18,9 C 88 % 1014,3 hPa 0,0 l/m 2,7 km/h (1 Bft) S 182 0 min 0,000 mm 0,0 UV-I 0 W/m 11,4 C 13,3 C 3,2 km/h (1 Bft) 97,62 %
13.05.2017 22:48 13,3 C 18,9 C 88 % 1014,3 hPa 0,0 l/m 1,8 km/h (1 Bft) S 182 0 min 0,000 mm 0,0 UV-I 0 W/m 11,4 C 13,3 C 3,2 km/h (1 Bft) 98,00 %
13.05.2017 22:50 13,2 C 18,9 C 88 % 1014,3 hPa 0,0 l/m 1,7 km/h (1 Bft) S 182 0 min 0,000 mm 0,0 UV-I 0 W/m 11,3 C 13,2 C 3,2 km/h (1 Bft) 97,87 %
13.05.2017 22:52 13,3 C 18,9 C 88 % 1014,3 hPa 0,0 l/m 1,9 km/h (1 Bft) S 182 0 min 0,000 mm 0,0 UV-I 0 W/m 11,4 C 13,3 C 3,2 km/h (1 Bft) 100,00 %
13.05.2017 22:54 13,3 C 18,9 C 89 % 1014,3 hPa 0,0 l/m 2,0 km/h (1 Bft) S 182 0 min 0,000 mm 0,0 UV-I 0 W/m 11,5 C 13,3 C 4,8 km/h (1 Bft) 98,11 %
13.05.2017 22:56 13,4 C 18,9 C 88 % 1014,3 hPa 0,0 l/m 2,7 km/h (1 Bft) S 182 0 min 0,000 mm 0,0 UV-I 0 W/m 11,5 C 13,4 C 3,2 km/h (1 Bft) 97,87 %
13.05.2017 22:58 13,4 C 18,9 C 88 % 1014,3 hPa 0,0 l/m 1,6 km/h (1 Bft) S 182 0 min 0,000 mm 0,0 UV-I 0 W/m 11,5 C 13,4 C 3,2 km/h (1 Bft) 97,56 %
13.05.2017 23:00 13,5 C 18,9 C 88 % 1014,3 hPa 0,0 l/m 2,5 km/h (1 Bft) S 182 0 min 0,000 mm 0,0 UV-I 0 W/m 11,6 C 13,5 C 3,2 km/h (1 Bft) 98,11 %
13.05.2017 23:02 13,6 C 18,9 C 87 % 1014,4 hPa 0,0 l/m 2,6 km/h (1 Bft) S 182 0 min 0,000 mm 0,0 UV-I 0 W/m 11,5 C 13,6 C 4,8 km/h (1 Bft) 100,00 %
13.05.2017 23:04 13,6 C 18,9 C 87 % 1014,4 hPa 0,0 l/m 3,7 km/h (1 Bft) S 182 0 min 0,000 mm 0,0 UV-I 0 W/m 11,5 C 13,6 C 4,8 km/h (1 Bft) 97,56 %
13.05.2017 23:06 13,6 C 18,9 C 87 % 1014,4 hPa 0,0 l/m 2,0 km/h (1 Bft) S 182 0 min 0,000 mm 0,0 UV-I 0 W/m 11,5 C 13,6 C 3,2 km/h (1 Bft) 100,00 %
13.05.2017 23:08 13,5 C 18,9 C 87 % 1014,4 hPa 0,0 l/m 3,8 km/h (1 Bft) S 182 0 min 0,000 mm 0,0 UV-I 0 W/m 11,4 C 13,5 C 4,8 km/h (1 Bft) 96,23 %
13.05.2017 23:10 13,4 C 18,9 C 87 % 1014,4 hPa 0,0 l/m 2,0 km/h (1 Bft) S 182 0 min 0,000 mm 0,0 UV-I 0 W/m 11,3 C 13,4 C 3,2 km/h (1 Bft) 98,00 %
13.05.2017 23:12 13,3 C 18,9 C 88 % 1014,4 hPa 0,0 l/m 1,4 km/h (1 Bft) S 182 0 min 0,000 mm 0,0 UV-I 0 W/m 11,4 C 13,3 C 3,2 km/h (1 Bft) 100,00 %
13.05.2017 23:14 13,3 C 18,9 C 88 % 1014,4 hPa 0,0 l/m 2,1 km/h (1 Bft) S 182 0 min 0,000 mm 0,0 UV-I 0 W/m 11,4 C 13,3 C 3,2 km/h (1 Bft) 96,23 %
13.05.2017 23:16 13,3 C 18,9 C 88 % 1014,4 hPa 0,0 l/m 2,8 km/h (1 Bft) S 182 0 min 0,000 mm 0,0 UV-I 0 W/m 11,4 C 13,3 C 4,8 km/h (1 Bft) 100,00 %
13.05.2017 23:18 13,2 C 18,9 C 88 % 1014,5 hPa 0,0 l/m 4,0 km/h (1 Bft) S 182 0 min 0,000 mm 0,0 UV-I 0 W/m 11,3 C 13,2 C 4,8 km/h (1 Bft) 96,00 %
13.05.2017 23:20 13,2 C 18,9 C 88 % 1014,4 hPa 0,0 l/m 4,2 km/h (1 Bft) S 183 0 min 0,000 mm 0,0 UV-I 0 W/m 11,3 C 13,2 C 6,4 km/h (2 Bft) 100,00 %
13.05.2017 23:22 13,2 C 18,9 C 88 % 1014,4 hPa 0,0 l/m 3,9 km/h (1 Bft) S 183 0 min 0,000 mm 0,0 UV-I 0 W/m 11,3 C 13,2 C 6,4 km/h (2 Bft) 98,11 %
13.05.2017 23:24 13,2 C 18,9 C 88 % 1014,5 hPa 0,0 l/m 4,3 km/h (1 Bft) S-SW 212 0 min 0,000 mm 0,0 UV-I 0 W/m 11,3 C 13,2 C 6,4 km/h (2 Bft) 95,74 %
13.05.2017 23:26 13,2 C 18,9 C 88 % 1014,5 hPa 0,0 l/m 4,3 km/h (1 Bft) S-SW 212 0 min 0,000 mm 0,0 UV-I 0 W/m 11,3 C 13,2 C 6,4 km/h (2 Bft) 100,00 %
13.05.2017 23:28 13,2 C 18,9 C 88 % 1014,5 hPa 0,0 l/m 4,1 km/h (1 Bft) S-SW 212 0 min 0,000 mm 0,0 UV-I 0 W/m 11,3 C 13,2 C 4,8 km/h (1 Bft) 93,62 %
13.05.2017 23:30 13,1 C 18,9 C 88 % 1014,5 hPa 0,0 l/m 4,1 km/h (1 Bft) S-SW 212 0 min 0,000 mm 0,0 UV-I 0 W/m 11,2 C 13,1 C 6,4 km/h (2 Bft) 96,00 %
13.05.2017 23:32 13,1 C 18,9 C 89 % 1014,5 hPa 0,0 l/m 3,9 km/h (1 Bft) S-SW 212 0 min 0,000 mm 0,0 UV-I 0 W/m 11,3 C 13,1 C 4,8 km/h (1 Bft) 95,12 %
13.05.2017 23:34 13,1 C 18,9 C 88 % 1014,6 hPa 0,0 l/m 4,2 km/h (1 Bft) S-SW 212 0 min 0,000 mm 0,0 UV-I 0 W/m 11,2 C 13,1 C 4,8 km/h (1 Bft) 95,74 %
13.05.2017 23:36 13,1 C 18,9 C 88 % 1014,6 hPa 0,0 l/m 3,3 km/h (1 Bft) S-SW 212 0 min 0,000 mm 0,0 UV-I 0 W/m 11,2 C 13,1 C 4,8 km/h (1 Bft) 98,11 %
13.05.2017 23:38 13,1 C 18,9 C 88 % 1014,6 hPa 0,0 l/m 3,6 km/h (1 Bft) S-SW 212 0 min 0,000 mm 0,0 UV-I 0 W/m 11,2 C 13,1 C 4,8 km/h (1 Bft) 98,00 %
13.05.2017 23:40 13,1 C 18,9 C 89 % 1014,5 hPa 0,0 l/m 3,3 km/h (1 Bft) S-SW 212 0 min 0,000 mm 0,0 UV-I 0 W/m 11,3 C 13,1 C 4,8 km/h (1 Bft) 97,14 %
13.05.2017 23:42 13,0 C 18,9 C 89 % 1014,6 hPa 0,0 l/m 2,3 km/h (1 Bft) S-SW 212 0 min 0,000 mm 0,0 UV-I 0 W/m 11,2 C 13,0 C 3,2 km/h (1 Bft) 98,11 %
13.05.2017 23:44 12,9 C 18,9 C 89 % 1014,6 hPa 0,0 l/m 1,5 km/h (1 Bft) S-SW 212 0 min 0,000 mm 0,0 UV-I 0 W/m 11,1 C 12,9 C 4,8 km/h (1 Bft) 96,00 %
13.05.2017 23:46 12,9 C 18,9 C 88 % 1014,6 hPa 0,0 l/m 0,0 km/h (0 Bft) S-SW 212 0 min 0,000 mm 0,0 UV-I 0 W/m 11,0 C 12,9 C 1,6 km/h (1 Bft) 95,65 %
13.05.2017 23:48 12,7 C 18,9 C 88 % 1014,6 hPa 0,0 l/m 1,1 km/h (1 Bft) S-SW 212 0 min 0,000 mm 0,0 UV-I 0 W/m 10,8 C 12,7 C 3,2 km/h (1 Bft) 96,92 %
13.05.2017 23:50 12,5 C 18,9 C 89 % 1014,6 hPa 0,0 l/m 0,3 km/h (0 Bft) S-SW 212 0 min 0,000 mm 0,0 UV-I 0 W/m 10,7 C 12,5 C 1,6 km/h (1 Bft) 94,00 %
13.05.2017 23:52 12,4 C 18,9 C 89 % 1014,6 hPa 0,0 l/m 0,0 km/h (0 Bft) S-SW 212 0 min 0,000 mm 0,0 UV-I 0 W/m 10,6 C 12,4 C 0,0 km/h (0 Bft) 97,87 %
13.05.2017 23:54 12,3 C 18,9 C 90 % 1014,6 hPa 0,0 l/m 0,0 km/h (0 Bft) S-SW 212 0 min 0,000 mm 0,0 UV-I 0 W/m 10,7 C 12,3 C 0,0 km/h (0 Bft) 97,87 %
13.05.2017 23:56 12,1 C 18,9 C 90 % 1014,6 hPa 0,0 l/m 0,0 km/h (0 Bft) S-SW 212 0 min 0,000 mm 0,0 UV-I 0 W/m 10,5 C 12,1 C 0,0 km/h (0 Bft) 96,00 %
13.05.2017 23:58 12,1 C 18,9 C 91 % 1014,6 hPa 0,0 l/m 0,0 km/h (0 Bft) S-SW 212 0 min 0,000 mm 0,0 UV-I 0 W/m 10,7 C 12,1 C 0,0 km/h (0 Bft) 97,87 %
_ Min-Zeit 23:56 01:04 16:00 00:00 - 21:45 - - - - - - 00:40 08:40 22:08 08:00
Minimum _ 12,1 C 17,8 C 55 % 1005,0 hPa - 0,0 km/h (0 Bft) - - - - - - 9,5 C 7,7 C 0,0 km/h (0 Bft) 89,29 %
_ Max-Zeit 16:28 16:34 07:22 23:34 03:04 11:30 - - 05:40 13:00 12:48 12:50 13:34 16:30 11:54 00:36
Maximum _ 21,4 C 19,4 C 95 % 1014,6 hPa 0,2 l/m 20,0 km/h
W-SW (4 Bft)
- - 2 min 0,508 mm 5,7 UV-I 1112 W/m 14,6 C 21,3 C 32,2 km/h
SW (5 Bft)
100,00 %
Durchschnitt _ 15,4 C 18,4 C 80 % 1010,6 hPa #5,0 l/m 8,5 km/h (2 Bft) W-SW - #6:40 h #3,353 mm 2,7 UV-I 330 W/m 11,8 C 14,0 C 13,5 km/h (3 Bft) 97,17 %